Time,TemperatureF,DewpointF,PressureIn,WindDirection,WindDirectionDegrees,WindSpeedMPH,WindSpeedGustMPH,Humidity,HourlyPrecipIn,Conditions,Clouds,dailyrainin,SoftwareType,DateUTC
2013-06-12 00:00:00,67.2,24.8,29.82,NE,42,2.0,5.0,20,0.00,,SKC,0.00,VWS V14.01,2013-06-12 06:00:00,
2013-06-12 00:01:00,67.2,24.8,29.82,NE,51,4.0,4.0,20,0.00,,SKC,0.00,VWS V14.01,2013-06-12 06:01:00,
2013-06-12 00:02:00,67.1,24.7,29.82,North,355,4.0,7.0,20,0.00,,SKC,0.00,VWS V14.01,2013-06-12 06:02:00,
2013-06-12 00:03:00,67.1,23.5,29.83,North,360,3.0,8.0,19,0.00,,SKC,0.00,VWS V14.01,2013-06-12 06:03:00,
2013-06-12 00:04:00,67.1,24.7,29.83,North,9,5.0,6.0,20,0.00,,SKC,0.00,VWS V14.01,2013-06-12 06:04:00,
2013-06-12 00:05:00,67.1,24.7,29.83,North,360,6.0,9.0,20,0.00,,SKC,0.00,VWS V14.01,2013-06-12 06:05:00,
2013-06-12 00:06:00,67.1,24.7,29.83,North,9,8.0,12.0,20,0.00,,SKC,0.00,VWS V14.01,2013-06-12 06:06:00,
2013-06-12 00:07:00,67.0,23.4,29.83,NE,34,1.0,11.0,19,0.00,,SKC,0.00,VWS V14.01,2013-06-12 06:07:00,
2013-06-12 00:08:00,67.0,24.6,29.82,North,5,4.0,6.0,20,0.00,,SKC,0.00,VWS V14.01,2013-06-12 06:08:00,
2013-06-12 00:09:00,67.0,24.6,29.83,NNW,331,8.0,11.0,20,0.00,,SKC,0.00,VWS V14.01,2013-06-12 06:09:00,
2013-06-12 00:10:00,66.9,24.6,29.83,NNE,30,6.0,10.0,20,0.00,,SKC,0.00,VWS V14.01,2013-06-12 06:10:00,
2013-06-12 00:11:00,66.9,24.6,29.83,NNE,24,5.0,7.0,20,0.00,,SKC,0.00,VWS V14.01,2013-06-12 06:11:00,
2013-06-12 00:12:00,66.9,24.5,29.83,NW,319,6.0,8.0,20,0.00,,SKC,0.00,VWS V14.01,2013-06-12 06:12:00,
2013-06-12 00:13:00,66.9,24.6,29.83,North,360,8.0,11.0,20,0.00,,SKC,0.00,VWS V14.01,2013-06-12 06:13:00,
2013-06-12 00:14:00,66.9,24.6,29.83,North,360,8.0,13.0,20,0.00,,SKC,0.00,VWS V14.01,2013-06-12 06:14:00,
2013-06-12 00:15:00,66.9,24.6,29.83,NW,319,15.0,16.0,20,0.00,,SKC,0.00,VWS V14.01,2013-06-12 06:15:00,
2013-06-12 00:16:00,66.9,23.3,29.84,NNE,20,13.0,15.0,19,0.00,,SKC,0.00,VWS V14.01,2013-06-12 06:16:00,
2013-06-12 00:17:00,67.0,23.4,29.84,North,360,18.0,18.0,19,0.00,,SKC,0.00,VWS V14.01,2013-06-12 06:17:00,
2013-06-12 00:18:00,67.1,23.5,29.83,South,169,6.0,18.0,19,0.00,,SKC,0.00,VWS V14.01,2013-06-12 06:18:00,
2013-06-12 00:19:00,67.2,23.6,29.84,ESE,113,4.0,7.0,19,0.00,,SKC,0.00,VWS V14.01,2013-06-12 06:19:00,
2013-06-12 00:20:00,67.2,24.8,29.84,ESE,110,4.0,7.0,20,0.00,,SKC,0.00,VWS V14.01,2013-06-12 06:20:00,
2013-06-12 00:21:00,67.2,24.8,29.83,NNW,345,12.0,12.0,20,0.00,,SKC,0.00,VWS V14.01,2013-06-12 06:21:00,
2013-06-12 00:22:00,67.3,23.7,29.83,North,360,17.0,17.0,19,0.00,,SKC,0.00,VWS V14.01,2013-06-12 06:22:00,
2013-06-12 00:23:00,67.3,23.7,29.84,WNW,300,5.0,19.0,19,0.00,,SKC,0.00,VWS V14.01,2013-06-12 06:23:00,
2013-06-12 00:24:00,67.4,23.7,29.84,South,185,12.0,13.0,19,0.00,,SKC,0.00,VWS V14.01,2013-06-12 06:24:00,
2013-06-12 00:25:00,67.6,23.9,29.83,NW,305,5.0,12.0,19,0.00,,SKC,0.00,VWS V14.01,2013-06-12 06:25:00,
2013-06-12 00:26:00,67.7,24.0,29.84,NNW,342,4.0,7.0,19,0.00,,SKC,0.00,VWS V14.01,2013-06-12 06:26:00,
2013-06-12 00:27:00,67.9,24.1,29.83,NW,304,6.0,7.0,19,0.00,,SKC,0.00,VWS V14.01,2013-06-12 06:27:00,
2013-06-12 00:28:00,67.9,24.1,29.83,WNW,302,10.0,11.0,19,0.00,,SKC,0.00,VWS V14.01,2013-06-12 06:28:00,
2013-06-12 00:29:00,68.0,24.2,29.83,WNW,296,3.0,10.0,19,0.00,,SKC,0.00,VWS V14.01,2013-06-12 06:29:00,
2013-06-12 00:30:00,68.1,24.3,29.83,North,360,0.0,3.0,19,0.00,,SKC,0.00,VWS V14.01,2013-06-12 06:30:00,
2013-06-12 00:31:00,68.1,24.3,29.83,WNW,292,3.0,3.0,19,0.00,,SKC,0.00,VWS V14.01,2013-06-12 06:31:00,
2013-06-12 00:32:00,68.2,24.4,29.84,WNW,294,2.0,4.0,19,0.00,,SKC,0.00,VWS V14.01,2013-06-12 06:32:00,
2013-06-12 00:33:00,68.2,24.4,29.83,North,360,0.0,3.0,19,0.00,,SKC,0.00,VWS V14.01,2013-06-12 06:33:00,
2013-06-12 00:34:00,68.2,24.4,29.84,North,360,3.0,3.0,19,0.00,,SKC,0.00,VWS V14.01,2013-06-12 06:34:00,
2013-06-12 00:35:00,68.1,24.3,29.84,West,271,10.0,10.0,19,0.00,,SKC,0.00,VWS V14.01,2013-06-12 06:35:00,
2013-06-12 00:36:00,68.0,24.2,29.84,West,265,6.0,12.0,19,0.00,,SKC,0.00,VWS V14.01,2013-06-12 06:36:00,
2013-06-12 00:37:00,68.0,24.2,29.84,West,262,1.0,6.0,19,0.00,,SKC,0.00,VWS V14.01,2013-06-12 06:37:00,
2013-06-12 00:38:00,67.9,24.1,29.83,West,260,2.0,3.0,19,0.00,,SKC,0.00,VWS V14.01,2013-06-12 06:38:00,
2013-06-12 00:39:00,67.8,25.3,29.83,NNW,343,6.0,6.0,20,0.00,,SKC,0.00,VWS V14.01,2013-06-12 06:39:00,
2013-06-12 00:40:00,67.6,23.9,29.84,North,350,5.0,6.0,19,0.00,,SKC,0.00,VWS V14.01,2013-06-12 06:40:00,
2013-06-12 00:41:00,67.5,23.8,29.84,North,360,8.0,8.0,19,0.00,,SKC,0.00,VWS V14.01,2013-06-12 06:41:00,
2013-06-12 00:42:00,67.4,23.7,29.84,NNE,12,0.0,8.0,19,0.00,,SKC,0.00,VWS V14.01,2013-06-12 06:42:00,
2013-06-12 00:43:00,67.3,24.9,29.84,North,5,1.0,2.0,20,0.00,,SKC,0.00,VWS V14.01,2013-06-12 06:43:00,
2013-06-12 00:44:00,67.2,23.6,29.85,East,79,4.0,7.0,19,0.00,,SKC,0.00,VWS V14.01,2013-06-12 06:44:00,
2013-06-12 00:45:00,67.1,23.5,29.85,East,98,2.0,4.0,19,0.00,,SKC,0.00,VWS V14.01,2013-06-12 06:45:00,
2013-06-12 00:46:00,67.1,24.7,29.85,WNW,286,4.0,4.0,20,0.00,,SKC,0.00,VWS V14.01,2013-06-12 06:46:00,
2013-06-12 00:47:00,67.0,24.6,29.85,North,360,4.0,7.0,20,0.00,,SKC,0.00,VWS V14.01,2013-06-12 06:47:00,
2013-06-12 00:48:00,66.9,23.3,29.85,WNW,302,3.0,5.0,19,0.00,,SKC,0.00,VWS V14.01,2013-06-12 06:48:00,
2013-06-12 00:49:00,66.8,24.5,29.86,WNW,297,6.0,6.0,20,0.00,,SKC,0.00,VWS V14.01,2013-06-12 06:49:00,
2013-06-12 00:50:00,66.7,24.4,29.85,WNW,293,4.0,8.0,20,0.00,,SKC,0.00,VWS V14.01,2013-06-12 06:50:00,
2013-06-12 00:51:00,66.6,24.3,29.86,WNW,293,0.0,4.0,20,0.00,,SKC,0.00,VWS V14.01,2013-06-12 06:51:00,
2013-06-12 00:52:00,66.6,24.3,29.86,WNW,293,0.0,3.0,20,0.00,,SKC,0.00,VWS V14.01,2013-06-12 06:52:00,
2013-06-12 00:53:00,66.6,24.3,29.86,WNW,294,1.0,4.0,20,0.00,,SKC,0.00,VWS V14.01,2013-06-12 06:53:00,
2013-06-12 00:54:00,66.5,24.2,29.85,WNW,293,1.0,2.0,20,0.00,,SKC,0.00,VWS V14.01,2013-06-12 06:54:00,
2013-06-12 00:55:00,66.5,24.2,29.85,WNW,293,3.0,4.0,20,0.00,,SKC,0.00,VWS V14.01,2013-06-12 06:55:00,
2013-06-12 00:56:00,66.5,24.2,29.86,WNW,292,4.0,5.0,20,0.00,,SKC,0.00,VWS V14.01,2013-06-12 06:56:00,
2013-06-12 00:57:00,66.5,24.2,29.86,WNW,288,5.0,7.0,20,0.00,,SKC,0.00,VWS V14.01,2013-06-12 06:57:00,
2013-06-12 00:58:00,66.3,24.1,29.86,WNW,296,1.0,5.0,20,0.00,,SKC,0.00,VWS V14.01,2013-06-12 06:58:00,
2013-06-12 00:59:00,66.3,24.1,29.86,WNW,300,0.0,4.0,20,0.00,,SKC,0.00,VWS V14.01,2013-06-12 06:59:00,
2013-06-12 01:00:00,66.2,24.0,29.85,WNW,298,0.0,1.0,20,0.00,,SKC,0.00,VWS V14.01,2013-06-12 07:00:00,
2013-06-12 01:01:00,66.2,25.1,29.86,WNW,302,1.0,1.0,21,0.00,,SKC,0.00,VWS V14.01,2013-06-12 07:01:00,
2013-06-12 01:02:00,66.1,25.1,29.86,WNW,299,0.0,1.0,21,0.00,,SKC,0.00,VWS V14.01,2013-06-12 07:02:00,
2013-06-12 01:03:00,66.0,23.8,29.86,WNW,301,0.0,0.0,20,0.00,,SKC,0.00,VWS V14.01,2013-06-12 07:03:00,
2013-06-12 01:04:00,65.9,23.7,29.86,WNW,296,1.0,2.0,20,0.00,,SKC,0.00,VWS V14.01,2013-06-12 07:04:00,
2013-06-12 01:05:00,65.9,24.9,29.86,WNW,299,3.0,4.0,21,0.00,,SKC,0.00,VWS V14.01,2013-06-12 07:05:00,
2013-06-12 01:06:00,65.8,24.8,29.86,WNW,300,1.0,3.0,21,0.00,,SKC,0.00,VWS V14.01,2013-06-12 07:06:00,
2013-06-12 01:07:00,65.7,24.7,29.87,WNW,301,1.0,1.0,21,0.00,,SKC,0.00,VWS V14.01,2013-06-12 07:07:00,
2013-06-12 01:08:00,65.6,24.6,29.86,North,360,3.0,3.0,21,0.00,,SKC,0.00,VWS V14.01,2013-06-12 07:08:00,
2013-06-12 01:09:00,65.5,24.6,29.86,NE,49,0.0,3.0,21,0.00,,SKC,0.00,VWS V14.01,2013-06-12 07:09:00,
2013-06-12 01:10:00,65.4,24.5,29.86,NE,46,0.0,0.0,21,0.00,,SKC,0.00,VWS V14.01,2013-06-12 07:10:00,
2013-06-12 01:11:00,65.3,24.4,29.86,NE,46,0.0,1.0,21,0.00,,SKC,0.00,VWS V14.01,2013-06-12 07:11:00,
2013-06-12 01:12:00,65.3,24.4,29.86,NE,49,1.0,3.0,21,0.00,,SKC,0.00,VWS V14.01,2013-06-12 07:12:00,
2013-06-12 01:13:00,65.3,24.4,29.86,South,182,9.0,9.0,21,0.00,,SKC,0.00,VWS V14.01,2013-06-12 07:13:00,
2013-06-12 01:14:00,65.2,24.3,29.86,SSE,147,6.0,11.0,21,0.00,,SKC,0.00,VWS V14.01,2013-06-12 07:14:00,
2013-06-12 01:15:00,65.2,23.1,29.86,SSE,155,5.0,6.0,20,0.00,,SKC,0.00,VWS V14.01,2013-06-12 07:15:00,
2013-06-12 01:16:00,65.2,24.3,29.86,South,178,2.0,5.0,21,0.00,,SKC,0.00,VWS V14.01,2013-06-12 07:16:00,
2013-06-12 01:17:00,65.2,24.3,29.86,West,275,8.0,8.0,21,0.00,,SKC,0.00,VWS V14.01,2013-06-12 07:17:00,
2013-06-12 01:18:00,65.2,24.3,29.87,West,273,5.0,9.0,21,0.00,,SKC,0.00,VWS V14.01,2013-06-12 07:18:00,
2013-06-12 01:19:00,65.1,24.2,29.86,West,273,6.0,8.0,21,0.00,,SKC,0.00,VWS V14.01,2013-06-12 07:19:00,
2013-06-12 01:20:00,65.0,24.1,29.86,West,262,9.0,11.0,21,0.00,,SKC,0.00,VWS V14.01,2013-06-12 07:20:00,
2013-06-12 01:21:00,64.9,24.1,29.87,WNW,299,7.0,9.0,21,0.00,,SKC,0.00,VWS V14.01,2013-06-12 07:21:00,
2013-06-12 01:22:00,64.9,24.1,29.87,SW,224,5.0,12.0,21,0.00,,SKC,0.00,VWS V14.01,2013-06-12 07:22:00,
2013-06-12 01:23:00,64.8,24.0,29.87,SW,217,0.0,5.0,21,0.00,,SKC,0.00,VWS V14.01,2013-06-12 07:23:00,
2013-06-12 01:24:00,64.8,24.0,29.87,WSW,248,0.0,4.0,21,0.00,,SKC,0.00,VWS V14.01,2013-06-12 07:24:00,
2013-06-12 01:25:00,64.7,23.9,29.87,WSW,248,1.0,2.0,21,0.00,,SKC,0.00,VWS V14.01,2013-06-12 07:25:00,
2013-06-12 01:26:00,64.7,23.9,29.87,WNW,289,2.0,2.0,21,0.00,,SKC,0.00,VWS V14.01,2013-06-12 07:26:00,
2013-06-12 01:27:00,64.7,23.9,29.87,North,360,2.0,5.0,21,0.00,,SKC,0.00,VWS V14.01,2013-06-12 07:27:00,
2013-06-12 01:28:00,64.7,23.9,29.87,West,279,4.0,5.0,21,0.00,,SKC,0.00,VWS V14.01,2013-06-12 07:28:00,
2013-06-12 01:29:00,64.7,23.9,29.87,WNW,284,0.0,4.0,21,0.00,,SKC,0.00,VWS V14.01,2013-06-12 07:29:00,
2013-06-12 01:30:00,64.6,23.8,29.87,WNW,283,1.0,2.0,21,0.00,,SKC,0.00,VWS V14.01,2013-06-12 07:30:00,
2013-06-12 01:31:00,64.6,23.8,29.87,West,281,0.0,2.0,21,0.00,,SKC,0.00,VWS V14.01,2013-06-12 07:31:00,
2013-06-12 01:32:00,64.7,23.9,29.87,WNW,284,0.0,1.0,21,0.00,,SKC,0.00,VWS V14.01,2013-06-12 07:32:00,
2013-06-12 01:33:00,64.7,22.7,29.87,North,360,0.0,0.0,20,0.00,,SKC,0.00,VWS V14.01,2013-06-12 07:33:00,
2013-06-12 01:34:00,64.7,23.9,29.87,WNW,285,0.0,0.0,21,0.00,,SKC,0.00,VWS V14.01,2013-06-12 07:34:00,
2013-06-12 01:35:00,64.8,24.0,29.87,North,360,2.0,3.0,21,0.00,,SKC,0.00,VWS V14.01,2013-06-12 07:35:00,
2013-06-12 01:36:00,64.8,24.0,29.88,North,360,5.0,5.0,21,0.00,,SKC,0.00,VWS V14.01,2013-06-12 07:36:00,
2013-06-12 01:37:00,64.8,22.8,29.87,North,360,9.0,9.0,20,0.00,,SKC,0.00,VWS V14.01,2013-06-12 07:37:00,
2013-06-12 01:38:00,64.9,22.9,29.88,WNW,296,6.0,10.0,20,0.00,,SKC,0.00,VWS V14.01,2013-06-12 07:38:00,
2013-06-12 01:39:00,64.9,24.1,29.88,WNW,292,5.0,7.0,21,0.00,,SKC,0.00,VWS V14.01,2013-06-12 07:39:00,
2013-06-12 01:40:00,64.9,24.1,29.88,WNW,295,5.0,6.0,21,0.00,,SKC,0.00,VWS V14.01,2013-06-12 07:40:00,
2013-06-12 01:41:00,64.9,24.1,29.88,WNW,294,0.0,5.0,21,0.00,,SKC,0.00,VWS V14.01,2013-06-12 07:41:00,
2013-06-12 01:42:00,64.8,24.0,29.88,WNW,303,4.0,5.0,21,0.00,,SKC,0.00,VWS V14.01,2013-06-12 07:42:00,
2013-06-12 01:43:00,64.8,24.0,29.88,WNW,290,5.0,7.0,21,0.00,,SKC,0.00,VWS V14.01,2013-06-12 07:43:00,
2013-06-12 01:44:00,64.8,24.0,29.88,West,269,7.0,11.0,21,0.00,,SKC,0.00,VWS V14.01,2013-06-12 07:44:00,
2013-06-12 01:45:00,64.7,23.9,29.88,WSW,257,4.0,10.0,21,0.00,,SKC,0.00,VWS V14.01,2013-06-12 07:45:00,
2013-06-12 01:46:00,64.7,22.7,29.88,WSW,242,5.0,10.0,20,0.00,,SKC,0.00,VWS V14.01,2013-06-12 07:46:00,
2013-06-12 01:47:00,64.7,22.7,29.88,North,360,9.0,12.0,20,0.00,,SKC,0.00,VWS V14.01,2013-06-12 07:47:00,
2013-06-12 01:48:00,64.6,22.6,29.88,WSW,252,11.0,16.0,20,0.00,,SKC,0.00,VWS V14.01,2013-06-12 07:48:00,
2013-06-12 01:49:00,64.6,22.6,29.88,SW,229,10.0,14.0,20,0.00,,SKC,0.00,VWS V14.01,2013-06-12 07:49:00,
2013-06-12 01:50:00,64.6,22.6,29.88,WNW,285,8.0,11.0,20,0.00,,SKC,0.00,VWS V14.01,2013-06-12 07:50:00,
2013-06-12 01:51:00,64.6,23.8,29.88,WNW,296,9.0,10.0,21,0.00,,SKC,0.00,VWS V14.01,2013-06-12 07:51:00,
2013-06-12 01:52:00,64.5,23.7,29.88,WNW,296,7.0,14.0,21,0.00,,SKC,0.00,VWS V14.01,2013-06-12 07:52:00,
2013-06-12 01:53:00,64.5,23.7,29.88,West,280,10.0,10.0,21,0.00,,SKC,0.00,VWS V14.01,2013-06-12 07:53:00,
2013-06-12 01:54:00,64.5,23.7,29.88,North,360,9.0,15.0,21,0.00,,SKC,0.00,VWS V14.01,2013-06-12 07:54:00,
2013-06-12 01:55:00,64.4,22.5,29.89,WSW,250,11.0,14.0,20,0.00,,SKC,0.00,VWS V14.01,2013-06-12 07:55:00,
2013-06-12 01:56:00,64.5,22.6,29.88,West,265,10.0,13.0,20,0.00,,SKC,0.00,VWS V14.01,2013-06-12 07:56:00,
2013-06-12 01:57:00,64.5,22.6,29.88,North,360,10.0,13.0,20,0.00,,SKC,0.00,VWS V14.01,2013-06-12 07:57:00,
2013-06-12 01:58:00,64.5,22.6,29.88,WSW,258,11.0,17.0,20,0.00,,SKC,0.00,VWS V14.01,2013-06-12 07:58:00,
2013-06-12 01:59:00,64.7,22.7,29.88,WSW,245,15.0,15.0,20,0.00,,SKC,0.00,VWS V14.01,2013-06-12 07:59:00,
2013-06-12 02:00:00,64.8,22.8,29.88,WNW,290,11.0,14.0,20,0.00,,SKC,0.00,VWS V14.01,2013-06-12 08:00:00,
2013-06-12 02:01:00,64.9,22.9,29.88,WNW,300,10.0,12.0,20,0.00,,SKC,0.00,VWS V14.01,2013-06-12 08:01:00,
2013-06-12 02:02:00,64.9,22.9,29.88,West,263,6.0,10.0,20,0.00,,SKC,0.00,VWS V14.01,2013-06-12 08:02:00,
2013-06-12 02:03:00,65.0,23.0,29.88,West,269,6.0,8.0,20,0.00,,SKC,0.00,VWS V14.01,2013-06-12 08:03:00,
2013-06-12 02:04:00,65.1,23.1,29.88,North,360,6.0,10.0,20,0.00,,SKC,0.00,VWS V14.01,2013-06-12 08:04:00,
2013-06-12 02:05:00,65.1,23.1,29.88,WNW,296,9.0,11.0,20,0.00,,SKC,0.00,VWS V14.01,2013-06-12 08:05:00,
2013-06-12 02:06:00,65.1,23.1,29.88,WSW,250,7.0,10.0,20,0.00,,SKC,0.00,VWS V14.01,2013-06-12 08:06:00,
2013-06-12 02:07:00,65.0,23.0,29.88,WNW,285,7.0,7.0,20,0.00,,SKC,0.00,VWS V14.01,2013-06-12 08:07:00,
2013-06-12 02:08:00,65.0,23.0,29.89,West,265,7.0,9.0,20,0.00,,SKC,0.00,VWS V14.01,2013-06-12 08:08:00,
2013-06-12 02:09:00,64.9,22.9,29.88,North,360,10.0,13.0,20,0.00,,SKC,0.00,VWS V14.01,2013-06-12 08:09:00,
2013-06-12 02:10:00,64.9,22.9,29.89,North,360,7.0,11.0,20,0.00,,SKC,0.00,VWS V14.01,2013-06-12 08:10:00,
2013-06-12 02:11:00,64.9,22.9,29.89,West,275,5.0,8.0,20,0.00,,SKC,0.00,VWS V14.01,2013-06-12 08:11:00,
2013-06-12 02:12:00,64.8,22.8,29.89,West,271,2.0,5.0,20,0.00,,SKC,0.00,VWS V14.01,2013-06-12 08:12:00,
2013-06-12 02:13:00,64.8,22.8,29.89,North,360,5.0,5.0,20,0.00,,SKC,0.00,VWS V14.01,2013-06-12 08:13:00,
2013-06-12 02:14:00,64.8,22.8,29.89,West,269,10.0,10.0,20,0.00,,SKC,0.00,VWS V14.01,2013-06-12 08:14:00,
2013-06-12 02:15:00,64.7,22.7,29.89,WNW,294,9.0,11.0,20,0.00,,SKC,0.00,VWS V14.01,2013-06-12 08:15:00,
2013-06-12 02:16:00,64.7,22.7,29.89,WSW,257,7.0,10.0,20,0.00,,SKC,0.00,VWS V14.01,2013-06-12 08:16:00,
2013-06-12 02:17:00,64.7,22.7,29.89,WSW,238,4.0,7.0,20,0.00,,SKC,0.00,VWS V14.01,2013-06-12 08:17:00,
2013-06-12 02:18:00,64.6,22.6,29.89,WSW,244,6.0,6.0,20,0.00,,SKC,0.00,VWS V14.01,2013-06-12 08:18:00,
2013-06-12 02:19:00,64.5,22.6,29.89,WSW,237,5.0,7.0,20,0.00,,SKC,0.00,VWS V14.01,2013-06-12 08:19:00,
2013-06-12 02:20:00,64.5,22.6,29.89,WSW,253,9.0,9.0,20,0.00,,SKC,0.00,VWS V14.01,2013-06-12 08:20:00,
2013-06-12 02:21:00,64.4,22.5,29.89,North,360,10.0,10.0,20,0.00,,SKC,0.00,VWS V14.01,2013-06-12 08:21:00,
2013-06-12 02:22:00,64.3,22.4,29.89,North,360,11.0,14.0,20,0.00,,SKC,0.00,VWS V14.01,2013-06-12 08:22:00,
2013-06-12 02:23:00,64.2,22.3,29.89,West,269,10.0,14.0,20,0.00,,SKC,0.00,VWS V14.01,2013-06-12 08:23:00,
2013-06-12 02:24:00,64.3,22.4,29.89,WNW,292,15.0,15.0,20,0.00,,SKC,0.00,VWS V14.01,2013-06-12 08:24:00,
2013-06-12 02:25:00,64.4,22.5,29.88,West,262,12.0,16.0,20,0.00,,SKC,0.00,VWS V14.01,2013-06-12 08:25:00,
2013-06-12 02:26:00,64.6,22.6,29.89,WSW,248,7.0,12.0,20,0.00,,SKC,0.00,VWS V14.01,2013-06-12 08:26:00,
2013-06-12 02:27:00,64.8,22.8,29.88,WSW,239,6.0,10.0,20,0.00,,SKC,0.00,VWS V14.01,2013-06-12 08:27:00,
2013-06-12 02:28:00,64.9,22.9,29.88,WSW,250,12.0,12.0,20,0.00,,SKC,0.00,VWS V14.01,2013-06-12 08:28:00,
2013-06-12 02:29:00,64.9,22.9,29.88,SW,227,8.0,12.0,20,0.00,,SKC,0.00,VWS V14.01,2013-06-12 08:29:00,
2013-06-12 02:30:00,64.8,22.8,29.88,SW,234,4.0,8.0,20,0.00,,SKC,0.00,VWS V14.01,2013-06-12 08:30:00,
2013-06-12 02:31:00,64.6,23.8,29.88,WSW,254,3.0,4.0,21,0.00,,SKC,0.00,VWS V14.01,2013-06-12 08:31:00,
2013-06-12 02:32:00,64.4,22.5,29.88,West,279,7.0,9.0,20,0.00,,SKC,0.00,VWS V14.01,2013-06-12 08:32:00,
2013-06-12 02:33:00,64.2,22.3,29.88,West,281,9.0,10.0,20,0.00,,SKC,0.00,VWS V14.01,2013-06-12 08:33:00,
2013-06-12 02:34:00,64.1,22.2,29.88,West,277,8.0,9.0,20,0.00,,SKC,0.00,VWS V14.01,2013-06-12 08:34:00,
2013-06-12 02:35:00,64.1,22.2,29.89,West,259,5.0,8.0,20,0.00,,SKC,0.00,VWS V14.01,2013-06-12 08:35:00,
2013-06-12 02:36:00,64.1,22.2,29.89,West,259,4.0,10.0,20,0.00,,SKC,0.00,VWS V14.01,2013-06-12 08:36:00,
2013-06-12 02:37:00,64.1,22.2,29.89,WSW,258,5.0,6.0,20,0.00,,SKC,0.00,VWS V14.01,2013-06-12 08:37:00,
2013-06-12 02:38:00,64.1,22.2,29.89,WSW,248,5.0,7.0,20,0.00,,SKC,0.00,VWS V14.01,2013-06-12 08:38:00,
2013-06-12 02:39:00,64.2,23.5,29.89,WSW,246,6.0,10.0,21,0.00,,SKC,0.00,VWS V14.01,2013-06-12 08:39:00,
2013-06-12 02:40:00,64.0,23.3,29.89,SW,236,6.0,10.0,21,0.00,,SKC,0.00,VWS V14.01,2013-06-12 08:40:00,
2013-06-12 02:41:00,63.8,23.1,29.89,West,268,4.0,6.0,21,0.00,,SKC,0.00,VWS V14.01,2013-06-12 08:41:00,
2013-06-12 02:42:00,63.5,24.0,29.89,WNW,289,4.0,5.0,22,0.00,,SKC,0.00,VWS V14.01,2013-06-12 08:42:00,
2013-06-12 02:43:00,63.3,22.7,29.89,West,280,4.0,5.0,21,0.00,,SKC,0.00,VWS V14.01,2013-06-12 08:43:00,
2013-06-12 02:44:00,63.1,22.6,29.89,West,279,3.0,4.0,21,0.00,,SKC,0.00,VWS V14.01,2013-06-12 08:44:00,
2013-06-12 02:45:00,63.0,22.5,29.89,West,273,3.0,3.0,21,0.00,,SKC,0.00,VWS V14.01,2013-06-12 08:45:00,
2013-06-12 02:46:00,62.9,22.4,29.89,West,277,2.0,3.0,21,0.00,,SKC,0.00,VWS V14.01,2013-06-12 08:46:00,
2013-06-12 02:47:00,62.9,22.4,29.89,West,275,3.0,3.0,21,0.00,,SKC,0.00,VWS V14.01,2013-06-12 08:47:00,
2013-06-12 02:48:00,63.0,22.5,29.89,WSW,251,4.0,5.0,21,0.00,,SKC,0.00,VWS V14.01,2013-06-12 08:48:00,
2013-06-12 02:49:00,63.1,22.6,29.89,WSW,258,1.0,4.0,21,0.00,,SKC,0.00,VWS V14.01,2013-06-12 08:49:00,
2013-06-12 02:50:00,63.1,22.6,29.89,WSW,256,2.0,3.0,21,0.00,,SKC,0.00,VWS V14.01,2013-06-12 08:50:00,
2013-06-12 02:51:00,63.2,22.6,29.89,West,271,2.0,3.0,21,0.00,,SKC,0.00,VWS V14.01,2013-06-12 08:51:00,
2013-06-12 02:52:00,63.2,22.6,29.89,WNW,301,3.0,3.0,21,0.00,,SKC,0.00,VWS V14.01,2013-06-12 08:52:00,
2013-06-12 02:53:00,63.2,22.6,29.89,WNW,300,3.0,5.0,21,0.00,,SKC,0.00,VWS V14.01,2013-06-12 08:53:00,
2013-06-12 02:54:00,63.3,22.7,29.90,WNW,296,5.0,5.0,21,0.00,,SKC,0.00,VWS V14.01,2013-06-12 08:54:00,
2013-06-12 02:55:00,63.4,21.7,29.89,WNW,303,4.0,5.0,20,0.00,,SKC,0.00,VWS V14.01,2013-06-12 08:55:00,
2013-06-12 02:56:00,63.5,22.9,29.90,WNW,302,5.0,6.0,21,0.00,,SKC,0.00,VWS V14.01,2013-06-12 08:56:00,
2013-06-12 02:57:00,63.5,21.7,29.90,WNW,298,3.0,5.0,20,0.00,,SKC,0.00,VWS V14.01,2013-06-12 08:57:00,
2013-06-12 02:58:00,63.5,22.9,29.90,WNW,298,2.0,3.0,21,0.00,,SKC,0.00,VWS V14.01,2013-06-12 08:58:00,
2013-06-12 02:59:00,63.6,23.0,29.90,North,360,3.0,4.0,21,0.00,,SKC,0.00,VWS V14.01,2013-06-12 08:59:00,
2013-06-12 03:00:00,63.7,23.1,29.90,WNW,299,3.0,6.0,21,0.00,,SKC,0.00,VWS V14.01,2013-06-12 09:00:00,
2013-06-12 03:01:00,63.7,21.9,29.90,WNW,302,6.0,6.0,20,0.00,,SKC,0.00,VWS V14.01,2013-06-12 09:01:00,
2013-06-12 03:02:00,63.8,22.0,29.90,NW,314,7.0,7.0,20,0.00,,SKC,0.00,VWS V14.01,2013-06-12 09:02:00,
2013-06-12 03:03:00,63.9,22.1,29.90,NW,317,2.0,7.0,20,0.00,,SKC,0.00,VWS V14.01,2013-06-12 09:03:00,
2013-06-12 03:04:00,63.9,22.1,29.90,NW,319,1.0,6.0,20,0.00,,SKC,0.00,VWS V14.01,2013-06-12 09:04:00,
2013-06-12 03:05:00,64.0,22.1,29.90,NW,319,2.0,2.0,20,0.00,,SKC,0.00,VWS V14.01,2013-06-12 09:05:00,
2013-06-12 03:06:00,64.0,23.3,29.90,NW,311,6.0,6.0,21,0.00,,SKC,0.00,VWS V14.01,2013-06-12 09:06:00,
2013-06-12 03:07:00,63.9,23.2,29.90,North,360,3.0,6.0,21,0.00,,SKC,0.00,VWS V14.01,2013-06-12 09:07:00,
2013-06-12 03:08:00,63.9,23.2,29.90,North,360,7.0,7.0,21,0.00,,SKC,0.00,VWS V14.01,2013-06-12 09:08:00,
2013-06-12 03:09:00,63.8,23.1,29.90,North,360,4.0,7.0,21,0.00,,SKC,0.00,VWS V14.01,2013-06-12 09:09:00,
2013-06-12 03:10:00,63.5,22.9,29.90,West,275,4.0,4.0,21,0.00,,SKC,0.00,VWS V14.01,2013-06-12 09:10:00,
2013-06-12 03:11:00,63.3,22.7,29.90,North,360,2.0,5.0,21,0.00,,SKC,0.00,VWS V14.01,2013-06-12 09:11:00,
2013-06-12 03:12:00,63.0,23.6,29.90,WNW,292,0.0,3.0,22,0.00,,SKC,0.00,VWS V14.01,2013-06-12 09:12:00,
2013-06-12 03:13:00,62.8,23.4,29.90,North,360,2.0,5.0,22,0.00,,SKC,0.00,VWS V14.01,2013-06-12 09:13:00,
2013-06-12 03:14:00,62.6,22.1,29.90,NNW,338,6.0,6.0,21,0.00,,SKC,0.00,VWS V14.01,2013-06-12 09:14:00,
2013-06-12 03:15:00,62.5,22.1,29.90,WNW,295,4.0,7.0,21,0.00,,SKC,0.00,VWS V14.01,2013-06-12 09:15:00,
2013-06-12 03:16:00,62.4,22.0,29.90,WNW,296,3.0,4.0,21,0.00,,SKC,0.00,VWS V14.01,2013-06-12 09:16:00,
2013-06-12 03:17:00,62.5,22.1,29.90,NW,316,5.0,5.0,21,0.00,,SKC,0.00,VWS V14.01,2013-06-12 09:17:00,
2013-06-12 03:18:00,62.5,22.1,29.91,North,360,4.0,6.0,21,0.00,,SKC,0.00,VWS V14.01,2013-06-12 09:18:00,
2013-06-12 03:19:00,62.6,22.1,29.90,NW,315,3.0,5.0,21,0.00,,SKC,0.00,VWS V14.01,2013-06-12 09:19:00,
2013-06-12 03:20:00,62.7,22.2,29.90,North,360,0.0,4.0,21,0.00,,SKC,0.00,VWS V14.01,2013-06-12 09:20:00,
2013-06-12 03:21:00,62.7,22.2,29.91,NW,310,2.0,5.0,21,0.00,,SKC,0.00,VWS V14.01,2013-06-12 09:21:00,
2013-06-12 03:22:00,62.6,23.2,29.91,NW,311,4.0,5.0,22,0.00,,SKC,0.00,VWS V14.01,2013-06-12 09:22:00,
2013-06-12 03:23:00,62.4,23.1,29.91,NW,311,4.0,4.0,22,0.00,,SKC,0.00,VWS V14.01,2013-06-12 09:23:00,
2013-06-12 03:24:00,62.1,22.8,29.91,NW,311,3.0,4.0,22,0.00,,SKC,0.00,VWS V14.01,2013-06-12 09:24:00,
2013-06-12 03:25:00,61.8,23.6,29.91,NW,308,2.0,3.0,23,0.00,,SKC,0.00,VWS V14.01,2013-06-12 09:25:00,
2013-06-12 03:26:00,61.6,22.4,29.91,NW,312,2.0,3.0,22,0.00,,SKC,0.00,VWS V14.01,2013-06-12 09:26:00,
2013-06-12 03:27:00,61.6,22.4,29.91,NW,313,2.0,4.0,22,0.00,,SKC,0.00,VWS V14.01,2013-06-12 09:27:00,
2013-06-12 03:28:00,61.6,22.4,29.91,NW,310,0.0,3.0,22,0.00,,SKC,0.00,VWS V14.01,2013-06-12 09:28:00,
2013-06-12 03:29:00,61.7,22.5,29.91,NW,315,1.0,2.0,22,0.00,,SKC,0.00,VWS V14.01,2013-06-12 09:29:00,
2013-06-12 03:30:00,61.8,22.6,29.91,NW,311,3.0,4.0,22,0.00,,SKC,0.00,VWS V14.01,2013-06-12 09:30:00,
2013-06-12 03:31:00,61.9,22.7,29.91,NW,309,2.0,4.0,22,0.00,,SKC,0.00,VWS V14.01,2013-06-12 09:31:00,
2013-06-12 03:32:00,62.1,22.8,29.91,NW,310,4.0,5.0,22,0.00,,SKC,0.00,VWS V14.01,2013-06-12 09:32:00,
2013-06-12 03:33:00,62.2,22.9,29.91,WNW,294,5.0,7.0,22,0.00,,SKC,0.00,VWS V14.01,2013-06-12 09:33:00,
2013-06-12 03:34:00,62.3,23.0,29.91,WNW,294,3.0,5.0,22,0.00,,SKC,0.00,VWS V14.01,2013-06-12 09:34:00,
2013-06-12 03:35:00,62.4,22.0,29.91,WNW,300,3.0,4.0,21,0.00,,SKC,0.00,VWS V14.01,2013-06-12 09:35:00,
2013-06-12 03:36:00,62.5,22.1,29.91,WNW,292,1.0,3.0,21,0.00,,SKC,0.00,VWS V14.01,2013-06-12 09:36:00,
2013-06-12 03:37:00,62.6,23.2,29.90,WNW,294,4.0,5.0,22,0.00,,SKC,0.00,VWS V14.01,2013-06-12 09:37:00,
2013-06-12 03:38:00,62.7,23.3,29.91,WNW,284,5.0,6.0,22,0.00,,SKC,0.00,VWS V14.01,2013-06-12 09:38:00,
2013-06-12 03:39:00,62.7,23.3,29.91,WNW,287,5.0,6.0,22,0.00,,SKC,0.00,VWS V14.01,2013-06-12 09:39:00,
2013-06-12 03:40:00,62.7,23.3,29.91,West,279,9.0,10.0,22,0.00,,SKC,0.00,VWS V14.01,2013-06-12 09:40:00,
2013-06-12 03:41:00,62.6,23.2,29.91,WNW,294,7.0,9.0,22,0.00,,SKC,0.00,VWS V14.01,2013-06-12 09:41:00,
2013-06-12 03:42:00,62.6,23.2,29.91,North,360,7.0,10.0,22,0.00,,SKC,0.00,VWS V14.01,2013-06-12 09:42:00,
2013-06-12 03:43:00,62.6,22.1,29.91,WNW,300,10.0,11.0,21,0.00,,SKC,0.00,VWS V14.01,2013-06-12 09:43:00,
2013-06-12 03:44:00,62.6,22.1,29.91,North,360,13.0,14.0,21,0.00,,SKC,0.00,VWS V14.01,2013-06-12 09:44:00,
2013-06-12 03:45:00,62.7,22.2,29.91,West,278,10.0,15.0,21,0.00,,SKC,0.00,VWS V14.01,2013-06-12 09:45:00,
2013-06-12 03:46:00,62.8,22.3,29.91,WNW,300,7.0,12.0,21,0.00,,SKC,0.00,VWS V14.01,2013-06-12 09:46:00,
2013-06-12 03:47:00,62.9,22.4,29.91,WNW,296,8.0,10.0,21,0.00,,SKC,0.00,VWS V14.01,2013-06-12 09:47:00,
2013-06-12 03:48:00,63.1,22.6,29.91,WNW,286,9.0,12.0,21,0.00,,SKC,0.00,VWS V14.01,2013-06-12 09:48:00,
2013-06-12 03:49:00,63.2,22.6,29.91,NW,304,6.0,9.0,21,0.00,,SKC,0.00,VWS V14.01,2013-06-12 09:49:00,
2013-06-12 03:50:00,63.4,22.8,29.91,NW,306,10.0,11.0,21,0.00,,SKC,0.00,VWS V14.01,2013-06-12 09:50:00,
2013-06-12 03:51:00,63.5,22.9,29.91,WNW,301,9.0,10.0,21,0.00,,SKC,0.00,VWS V14.01,2013-06-12 09:51:00,
2013-06-12 03:52:00,63.5,22.9,29.91,NW,316,7.0,11.0,21,0.00,,SKC,0.00,VWS V14.01,2013-06-12 09:52:00,
2013-06-12 03:53:00,63.6,23.0,29.91,WNW,298,9.0,12.0,21,0.00,,SKC,0.00,VWS V14.01,2013-06-12 09:53:00,
2013-06-12 03:54:00,63.6,23.0,29.91,NW,304,11.0,16.0,21,0.00,,SKC,0.00,VWS V14.01,2013-06-12 09:54:00,
2013-06-12 03:55:00,63.6,23.0,29.91,WNW,282,14.0,14.0,21,0.00,,SKC,0.00,VWS V14.01,2013-06-12 09:55:00,
2013-06-12 03:56:00,63.7,23.1,29.91,North,360,14.0,14.0,21,0.00,,SKC,0.00,VWS V14.01,2013-06-12 09:56:00,
2013-06-12 03:57:00,63.8,23.1,29.91,WNW,286,10.0,14.0,21,0.00,,SKC,0.00,VWS V14.01,2013-06-12 09:57:00,
2013-06-12 03:58:00,63.8,23.1,29.91,WNW,289,9.0,11.0,21,0.00,,SKC,0.00,VWS V14.01,2013-06-12 09:58:00,
2013-06-12 03:59:00,63.9,23.2,29.91,WNW,302,6.0,10.0,21,0.00,,SKC,0.00,VWS V14.01,2013-06-12 09:59:00,
2013-06-12 04:00:00,63.9,23.2,29.91,West,277,7.0,10.0,21,0.00,,SKC,0.00,VWS V14.01,2013-06-12 10:00:00,
2013-06-12 04:01:00,64.0,23.3,29.91,North,360,7.0,10.0,21,0.00,,SKC,0.00,VWS V14.01,2013-06-12 10:01:00,
2013-06-12 04:02:00,64.0,23.3,29.92,WSW,258,6.0,8.0,21,0.00,,SKC,0.00,VWS V14.01,2013-06-12 10:02:00,
2013-06-12 04:03:00,63.9,23.2,29.92,West,267,6.0,7.0,21,0.00,,SKC,0.00,VWS V14.01,2013-06-12 10:03:00,
2013-06-12 04:04:00,63.9,23.2,29.92,West,275,3.0,6.0,21,0.00,,SKC,0.00,VWS V14.01,2013-06-12 10:04:00,
2013-06-12 04:05:00,63.8,23.1,29.92,West,276,2.0,4.0,21,0.00,,SKC,0.00,VWS V14.01,2013-06-12 10:05:00,
2013-06-12 04:06:00,63.7,23.1,29.91,West,275,3.0,4.0,21,0.00,,SKC,0.00,VWS V14.01,2013-06-12 10:06:00,
2013-06-12 04:07:00,63.7,23.1,29.91,WNW,282,4.0,5.0,21,0.00,,SKC,0.00,VWS V14.01,2013-06-12 10:07:00,
2013-06-12 04:08:00,63.6,23.0,29.92,North,360,5.0,6.0,21,0.00,,SKC,0.00,VWS V14.01,2013-06-12 10:08:00,
2013-06-12 04:09:00,63.6,24.1,29.92,SW,229,3.0,5.0,22,0.00,,SKC,0.00,VWS V14.01,2013-06-12 10:09:00,
2013-06-12 04:10:00,63.4,23.9,29.92,SW,225,3.0,3.0,22,0.00,,SKC,0.00,VWS V14.01,2013-06-12 10:10:00,
2013-06-12 04:11:00,63.2,23.8,29.92,SW,223,3.0,5.0,22,0.00,,SKC,0.00,VWS V14.01,2013-06-12 10:11:00,
2013-06-12 04:12:00,62.9,23.5,29.92,SW,234,6.0,8.0,22,0.00,,SKC,0.00,VWS V14.01,2013-06-12 10:12:00,
2013-06-12 04:13:00,62.6,23.2,29.91,WSW,245,7.0,13.0,22,0.00,,SKC,0.00,VWS V14.01,2013-06-12 10:13:00,
2013-06-12 04:14:00,62.3,23.0,29.91,WSW,254,5.0,7.0,22,0.00,,SKC,0.00,VWS V14.01,2013-06-12 10:14:00,
2013-06-12 04:15:00,61.9,23.7,29.91,West,279,5.0,5.0,23,0.00,,SKC,0.00,VWS V14.01,2013-06-12 10:15:00,
2013-06-12 04:16:00,61.6,23.5,29.91,WNW,290,1.0,5.0,23,0.00,,SKC,0.00,VWS V14.01,2013-06-12 10:16:00,
2013-06-12 04:17:00,61.4,23.3,29.91,WNW,284,2.0,3.0,23,0.00,,SKC,0.00,VWS V14.01,2013-06-12 10:17:00,
2013-06-12 04:18:00,61.3,23.2,29.91,SSW,211,5.0,7.0,23,0.00,,SKC,0.00,VWS V14.01,2013-06-12 10:18:00,
2013-06-12 04:19:00,61.1,23.0,29.91,SW,222,9.0,10.0,23,0.00,,SKC,0.00,VWS V14.01,2013-06-12 10:19:00,
2013-06-12 04:20:00,60.9,22.9,29.92,WSW,256,5.0,10.0,23,0.00,,SKC,0.00,VWS V14.01,2013-06-12 10:20:00,
2013-06-12 04:21:00,60.6,22.6,29.92,West,266,5.0,10.0,23,0.00,,SKC,0.00,VWS V14.01,2013-06-12 10:21:00,
2013-06-12 04:22:00,60.3,23.4,29.92,North,360,6.0,10.0,24,0.00,,SKC,0.00,VWS V14.01,2013-06-12 10:22:00,
2013-06-12 04:23:00,60.0,23.1,29.91,West,275,6.0,7.0,24,0.00,,SKC,0.00,VWS V14.01,2013-06-12 10:23:00,
2013-06-12 04:24:00,59.8,23.9,29.92,West,278,3.0,6.0,25,0.00,,SKC,0.00,VWS V14.01,2013-06-12 10:24:00,
2013-06-12 04:28:00,59.6,22.8,29.92,WNW,292,4.0,6.0,24,0.00,,SKC,0.00,VWS V14.01,2013-06-12 10:28:00,
2013-06-12 04:34:00,60.5,22.5,29.93,NW,315,4.0,6.0,23,0.00,,SKC,0.00,VWS V14.01,2013-06-12 10:34:00,
2013-06-12 04:40:00,60.1,23.2,29.93,WNW,291,0.0,4.0,24,0.00,,SKC,0.00,VWS V14.01,2013-06-12 10:40:00,
2013-06-12 04:46:00,59.0,23.2,29.94,West,278,3.0,5.0,25,0.00,,SKC,0.00,VWS V14.01,2013-06-12 10:46:00,
2013-06-12 04:51:00,59.0,23.2,29.94,NW,306,5.0,9.0,25,0.00,,SKC,0.00,VWS V14.01,2013-06-12 10:51:00,
2013-06-12 04:57:00,59.0,23.2,29.94,North,360,1.0,5.0,25,0.00,,SKC,0.00,VWS V14.01,2013-06-12 10:57:00,
2013-06-12 05:02:00,59.2,23.4,29.94,West,268,2.0,7.0,25,0.00,,SKC,0.00,VWS V14.01,2013-06-12 11:02:00,
2013-06-12 05:08:00,58.9,23.2,29.94,North,360,2.0,6.0,25,0.00,,SKC,0.00,VWS V14.01,2013-06-12 11:08:00,
2013-06-12 05:13:00,59.0,23.2,29.95,North,360,3.0,5.0,25,0.00,,SKC,0.00,VWS V14.01,2013-06-12 11:13:00,
2013-06-12 05:18:00,58.7,23.0,29.95,WNW,292,0.0,2.0,25,0.00,,SKC,0.00,VWS V14.01,2013-06-12 11:18:00,
2013-06-12 05:24:00,58.3,23.6,29.94,WNW,290,0.0,0.0,26,0.00,,SKC,0.00,VWS V14.01,2013-06-12 11:24:00,
2013-06-12 05:29:00,57.8,23.2,29.95,NNE,21,0.0,1.0,26,0.00,,SKC,0.00,VWS V14.01,2013-06-12 11:29:00,
2013-06-12 05:34:00,57.8,23.2,29.96,NNE,17,2.0,2.0,26,0.00,,SKC,0.00,VWS V14.01,2013-06-12 11:34:00,
2013-06-12 05:39:00,57.8,23.2,29.96,NNE,22,0.0,0.0,26,0.00,,SKC,0.00,VWS V14.01,2013-06-12 11:39:00,
2013-06-12 05:45:00,58.3,23.6,29.96,NNE,22,1.0,2.0,26,0.00,,SKC,0.00,VWS V14.01,2013-06-12 11:45:00,
2013-06-12 05:51:00,58.4,24.6,29.96,NE,34,1.0,2.0,27,0.00,,SKC,0.00,VWS V14.01,2013-06-12 11:51:00,
2013-06-12 05:56:00,58.1,23.4,29.96,North,5,2.0,4.0,26,0.00,,SKC,0.00,VWS V14.01,2013-06-12 11:56:00,
2013-06-12 05:59:00,58.2,24.4,29.96,North,0,2.0,3.0,27,0.00,,SKC,0.00,VWS V14.01,2013-06-12 11:59:00,
2013-06-12 06:00:00,58.2,24.4,29.96,North,0,1.0,1.0,27,0.00,,SKC,0.00,VWS V14.01,2013-06-12 12:00:00,
2013-06-12 06:01:00,58.2,24.4,29.96,North,0,0.0,0.0,27,0.00,,SKC,0.00,VWS V14.01,2013-06-12 12:01:00,
2013-06-12 06:02:00,58.2,25.3,29.97,North,0,2.0,6.0,28,0.00,,SKC,0.00,VWS V14.01,2013-06-12 12:02:00,
2013-06-12 06:04:00,58.2,25.3,29.97,North,0,2.0,6.0,28,0.00,,SKC,0.00,VWS V14.01,2013-06-12 12:04:00,
2013-06-12 06:05:00,57.9,24.1,29.97,WNW,292,2.0,5.0,27,0.00,,SKC,0.00,VWS V14.01,2013-06-12 12:05:00,
2013-06-12 06:06:00,57.8,24.9,29.97,NW,321,4.0,4.0,28,0.00,,SKC,0.00,VWS V14.01,2013-06-12 12:06:00,
2013-06-12 06:07:00,57.7,24.0,29.97,North,360,2.0,4.0,27,0.00,,SKC,0.00,VWS V14.01,2013-06-12 12:07:00,
2013-06-12 06:08:00,57.6,24.8,29.97,NW,320,0.0,2.0,28,0.00,,SKC,0.00,VWS V14.01,2013-06-12 12:08:00,
2013-06-12 06:09:00,57.6,24.8,29.97,NW,323,0.0,0.0,28,0.00,,SKC,0.00,VWS V14.01,2013-06-12 12:09:00,
2013-06-12 06:10:00,57.5,24.7,29.97,NW,319,2.0,2.0,28,0.00,,SKC,0.00,VWS V14.01,2013-06-12 12:10:00,
2013-06-12 06:11:00,57.5,24.7,29.97,NW,306,4.0,6.0,28,0.00,,SKC,0.00,VWS V14.01,2013-06-12 12:11:00,
2013-06-12 06:12:00,57.5,24.7,29.98,WNW,290,5.0,5.0,28,0.00,,SKC,0.00,VWS V14.01,2013-06-12 12:12:00,
2013-06-12 06:13:00,57.4,24.6,29.98,WNW,294,3.0,5.0,28,0.00,,SKC,0.00,VWS V14.01,2013-06-12 12:13:00,
2013-06-12 06:14:00,57.3,24.5,29.98,North,360,3.0,4.0,28,0.00,,SKC,0.00,VWS V14.01,2013-06-12 12:14:00,
2013-06-12 06:15:00,57.2,24.4,29.97,WNW,293,1.0,3.0,28,0.00,,SKC,0.00,VWS V14.01,2013-06-12 12:15:00,
2013-06-12 06:16:00,57.2,23.5,29.98,WNW,298,2.0,3.0,27,0.00,,SKC,0.00,VWS V14.01,2013-06-12 12:16:00,
2013-06-12 06:17:00,57.2,24.4,29.98,WNW,293,1.0,3.0,28,0.00,,SKC,0.00,VWS V14.01,2013-06-12 12:17:00,
2013-06-12 06:18:00,57.2,24.4,29.98,WNW,296,0.0,1.0,28,0.00,,SKC,0.00,VWS V14.01,2013-06-12 12:18:00,
2013-06-12 06:19:00,57.2,25.2,29.98,WNW,292,0.0,0.0,29,0.00,,SKC,0.00,VWS V14.01,2013-06-12 12:19:00,
2013-06-12 06:20:00,57.3,25.3,29.98,North,360,0.0,0.0,29,0.00,,SKC,0.00,VWS V14.01,2013-06-12 12:20:00,
2013-06-12 06:21:00,57.2,25.2,29.98,WNW,289,0.0,0.0,29,0.00,,SKC,0.00,VWS V14.01,2013-06-12 12:21:00,
2013-06-12 06:22:00,57.2,25.2,29.98,WNW,290,0.0,0.0,29,0.00,,SKC,0.00,VWS V14.01,2013-06-12 12:22:00,
2013-06-12 06:23:00,57.2,25.2,29.98,WNW,293,0.0,0.0,29,0.00,,SKC,0.00,VWS V14.01,2013-06-12 12:23:00,
2013-06-12 06:24:00,57.1,25.2,29.98,WNW,293,0.0,0.0,29,0.00,,SKC,0.00,VWS V14.01,2013-06-12 12:24:00,
2013-06-12 06:25:00,57.0,25.1,29.98,WNW,296,0.0,0.0,29,0.00,,SKC,0.00,VWS V14.01,2013-06-12 12:25:00,
2013-06-12 06:26:00,56.9,25.8,29.98,WNW,296,0.0,0.0,30,0.00,,SKC,0.00,VWS V14.01,2013-06-12 12:26:00,
2013-06-12 06:27:00,56.8,25.7,29.98,WNW,292,0.0,0.0,30,0.00,,SKC,0.00,VWS V14.01,2013-06-12 12:27:00,
2013-06-12 06:28:00,56.8,24.9,29.98,WNW,293,0.0,0.0,29,0.00,,SKC,0.00,VWS V14.01,2013-06-12 12:28:00,
2013-06-12 06:29:00,56.7,25.6,29.98,North,360,0.0,0.0,30,0.00,,SKC,0.00,VWS V14.01,2013-06-12 12:29:00,
2013-06-12 06:30:00,56.6,25.5,29.98,WNW,296,0.0,1.0,30,0.00,,SKC,0.00,VWS V14.01,2013-06-12 12:30:00,
2013-06-12 06:31:00,56.5,24.6,29.98,WNW,295,0.0,0.0,29,0.00,,SKC,0.00,VWS V14.01,2013-06-12 12:31:00,
2013-06-12 06:32:00,56.4,24.6,29.98,WNW,295,0.0,0.0,29,0.00,,SKC,0.00,VWS V14.01,2013-06-12 12:32:00,
2013-06-12 06:33:00,56.4,25.4,29.98,WNW,290,0.0,1.0,30,0.00,,SKC,0.00,VWS V14.01,2013-06-12 12:33:00,
2013-06-12 06:34:00,56.3,26.1,29.98,WNW,295,0.0,0.0,31,0.00,,SKC,0.00,VWS V14.01,2013-06-12 12:34:00,
2013-06-12 06:35:00,56.3,24.5,29.98,North,360,0.0,0.0,29,0.00,,SKC,0.00,VWS V14.01,2013-06-12 12:35:00,
2013-06-12 06:36:00,56.3,26.1,29.98,North,360,0.0,0.0,31,0.00,,SKC,0.00,VWS V14.01,2013-06-12 12:36:00,
2013-06-12 06:37:00,56.3,26.1,29.98,WNW,294,0.0,0.0,31,0.00,,SKC,0.00,VWS V14.01,2013-06-12 12:37:00,
2013-06-12 06:38:00,56.3,27.6,29.98,WNW,296,0.0,1.0,33,0.00,,SKC,0.00,VWS V14.01,2013-06-12 12:38:00,
2013-06-12 06:39:00,56.4,26.2,29.98,WNW,292,0.0,1.0,31,0.00,,SKC,0.00,VWS V14.01,2013-06-12 12:39:00,
2013-06-12 06:40:00,56.4,25.4,29.98,WNW,295,1.0,1.0,30,0.00,,SKC,0.00,VWS V14.01,2013-06-12 12:40:00,
2013-06-12 06:41:00,56.4,25.4,29.98,WNW,292,6.0,6.0,30,0.00,,SKC,0.00,VWS V14.01,2013-06-12 12:41:00,
2013-06-12 06:42:00,56.5,25.5,29.98,NNW,327,5.0,6.0,30,0.00,,SKC,0.00,VWS V14.01,2013-06-12 12:42:00,
2013-06-12 06:43:00,56.6,26.3,29.98,NW,320,3.0,6.0,31,0.00,,SKC,0.00,VWS V14.01,2013-06-12 12:43:00,
2013-06-12 06:44:00,56.7,26.4,29.98,WNW,299,5.0,7.0,31,0.00,,SKC,0.00,VWS V14.01,2013-06-12 12:44:00,
2013-06-12 06:45:00,56.8,26.5,29.98,WNW,301,4.0,6.0,31,0.00,,SKC,0.00,VWS V14.01,2013-06-12 12:45:00,
2013-06-12 06:46:00,57.0,25.9,29.98,WNW,303,4.0,6.0,30,0.00,,SKC,0.00,VWS V14.01,2013-06-12 12:46:00,
2013-06-12 06:47:00,57.1,27.5,29.98,WNW,302,2.0,4.0,32,0.00,,SKC,0.00,VWS V14.01,2013-06-12 12:47:00,
2013-06-12 06:48:00,57.3,27.7,29.98,WNW,298,1.0,2.0,32,0.00,,SKC,0.00,VWS V14.01,2013-06-12 12:48:00,
2013-06-12 06:49:00,57.4,27.0,29.98,WNW,303,0.0,2.0,31,0.00,,SKC,0.00,VWS V14.01,2013-06-12 12:49:00,
2013-06-12 06:50:00,57.5,27.9,29.98,NW,304,0.0,0.0,32,0.00,,SKC,0.00,VWS V14.01,2013-06-12 12:50:00,
2013-06-12 06:51:00,57.6,27.2,29.98,WNW,302,0.0,0.0,31,0.00,,SKC,0.00,VWS V14.01,2013-06-12 12:51:00,
2013-06-12 06:52:00,57.7,26.5,29.99,WNW,300,1.0,1.0,30,0.00,,SKC,0.00,VWS V14.01,2013-06-12 12:52:00,
2013-06-12 06:53:00,57.9,26.7,29.99,NW,306,3.0,5.0,30,0.00,,SKC,0.00,VWS V14.01,2013-06-12 12:53:00,
2013-06-12 06:54:00,58.0,25.9,29.99,NW,311,2.0,5.0,29,0.00,,SKC,0.00,VWS V14.01,2013-06-12 12:54:00,
2013-06-12 06:55:00,58.0,25.9,29.98,NW,317,3.0,5.0,29,0.00,,SKC,0.00,VWS V14.01,2013-06-12 12:55:00,
2013-06-12 06:56:00,58.1,26.0,29.99,NW,312,1.0,3.0,29,0.00,,SKC,0.00,VWS V14.01,2013-06-12 12:56:00,
2013-06-12 06:57:00,58.2,27.7,29.99,NW,316,0.0,2.0,31,0.00,,SKC,0.00,VWS V14.01,2013-06-12 12:57:00,
2013-06-12 06:58:00,58.3,27.8,29.98,NW,311,0.0,0.0,31,0.00,,SKC,0.00,VWS V14.01,2013-06-12 12:58:00,
2013-06-12 06:59:00,58.4,27.1,29.98,NW,313,1.0,2.0,30,0.00,,SKC,0.00,VWS V14.01,2013-06-12 12:59:00,
2013-06-12 07:00:00,58.5,27.2,29.99,NW,314,1.0,2.0,30,0.00,,SKC,0.00,VWS V14.01,2013-06-12 13:00:00,
2013-06-12 07:01:00,58.6,27.3,29.99,NW,311,2.0,3.0,30,0.00,,SKC,0.00,VWS V14.01,2013-06-12 13:01:00,
2013-06-12 07:02:00,58.7,27.4,29.99,NW,313,4.0,5.0,30,0.00,,SKC,0.00,VWS V14.01,2013-06-12 13:02:00,
2013-06-12 07:03:00,58.9,28.3,29.99,NW,311,2.0,4.0,31,0.00,,SKC,0.00,VWS V14.01,2013-06-12 13:03:00,
2013-06-12 07:04:00,59.0,27.6,29.99,NW,311,2.0,5.0,30,0.00,,SKC,0.00,VWS V14.01,2013-06-12 13:04:00,
2013-06-12 07:05:00,59.0,28.4,29.99,NW,307,2.0,3.0,31,0.00,,SKC,0.00,VWS V14.01,2013-06-12 13:05:00,
2013-06-12 07:06:00,59.0,28.4,29.99,NW,308,2.0,2.0,31,0.00,,SKC,0.00,VWS V14.01,2013-06-12 13:06:00,
2013-06-12 07:07:00,59.0,28.4,29.99,NW,309,2.0,3.0,31,0.00,,SKC,0.00,VWS V14.01,2013-06-12 13:07:00,
2013-06-12 07:08:00,59.1,30.0,29.99,North,360,4.0,4.0,33,0.00,,SKC,0.00,VWS V14.01,2013-06-12 13:08:00,
2013-06-12 07:09:00,59.1,29.3,29.99,North,360,2.0,5.0,32,0.00,,SKC,0.00,VWS V14.01,2013-06-12 13:09:00,
2013-06-12 07:10:00,59.3,29.5,29.99,NW,323,0.0,2.0,32,0.00,,SKC,0.00,VWS V14.01,2013-06-12 13:10:00,
2013-06-12 07:11:00,59.3,29.5,29.99,NW,321,0.0,0.0,32,0.00,,SKC,0.00,VWS V14.01,2013-06-12 13:11:00,
2013-06-12 07:12:00,59.4,29.6,29.99,NW,322,0.0,1.0,32,0.00,,SKC,0.00,VWS V14.01,2013-06-12 13:12:00,
2013-06-12 07:13:00,59.5,29.6,29.99,NNW,327,0.0,1.0,32,0.00,,SKC,0.00,VWS V14.01,2013-06-12 13:13:00,
2013-06-12 07:14:00,59.5,28.9,29.99,North,9,0.0,2.0,31,0.00,,SKC,0.00,VWS V14.01,2013-06-12 13:14:00,
2013-06-12 07:15:00,59.6,28.1,30.00,NNE,30,2.0,2.0,30,0.00,,SKC,0.00,VWS V14.01,2013-06-12 13:15:00,
2013-06-12 07:16:00,59.6,29.0,29.99,NNE,28,0.0,2.0,31,0.00,,SKC,0.00,VWS V14.01,2013-06-12 13:16:00,
2013-06-12 07:17:00,59.7,29.0,30.00,NNE,27,0.0,1.0,31,0.00,,SKC,0.00,VWS V14.01,2013-06-12 13:17:00,
2013-06-12 07:18:00,59.8,29.9,30.00,NNE,27,1.0,1.0,32,0.00,,SKC,0.00,VWS V14.01,2013-06-12 13:18:00,
2013-06-12 07:19:00,59.8,28.3,30.00,NNE,30,2.0,4.0,30,0.00,,SKC,0.00,VWS V14.01,2013-06-12 13:19:00,
2013-06-12 07:20:00,59.9,29.2,30.00,NNE,32,4.0,4.0,31,0.00,,SKC,0.00,VWS V14.01,2013-06-12 13:20:00,
2013-06-12 07:21:00,59.9,28.4,29.99,North,5,2.0,5.0,30,0.00,,SKC,0.00,VWS V14.01,2013-06-12 13:21:00,
2013-06-12 07:22:00,60.0,28.5,29.99,North,5,4.0,5.0,30,0.00,,SKC,0.00,VWS V14.01,2013-06-12 13:22:00,
2013-06-12 07:23:00,60.1,29.4,29.99,North,5,2.0,4.0,31,0.00,,SKC,0.00,VWS V14.01,2013-06-12 13:23:00,
2013-06-12 07:24:00,60.1,29.4,29.99,North,5,0.0,3.0,31,0.00,,SKC,0.00,VWS V14.01,2013-06-12 13:24:00,
2013-06-12 07:25:00,60.2,29.5,29.99,North,5,0.0,1.0,31,0.00,,SKC,0.00,VWS V14.01,2013-06-12 13:25:00,
2013-06-12 07:26:00,60.3,28.8,29.99,North,9,0.0,2.0,30,0.00,,SKC,0.00,VWS V14.01,2013-06-12 13:26:00,
2013-06-12 07:27:00,60.5,30.5,29.99,North,5,0.0,1.0,32,0.00,,SKC,0.00,VWS V14.01,2013-06-12 13:27:00,
2013-06-12 07:28:00,60.6,29.0,29.99,North,9,2.0,2.0,30,0.00,,SKC,0.00,VWS V14.01,2013-06-12 13:28:00,
2013-06-12 07:29:00,60.8,27.5,30.00,North,5,3.0,3.0,28,0.00,,SKC,0.00,VWS V14.01,2013-06-12 13:29:00,
2013-06-12 07:30:00,60.9,29.3,30.00,NW,326,4.0,5.0,30,0.00,,SKC,0.00,VWS V14.01,2013-06-12 13:30:00,
2013-06-12 07:31:00,61.1,31.0,30.00,NNW,330,4.0,4.0,32,0.00,,SKC,0.00,VWS V14.01,2013-06-12 13:31:00,
2013-06-12 07:32:00,61.2,31.9,30.00,NNW,329,1.0,4.0,33,0.00,,SKC,0.00,VWS V14.01,2013-06-12 13:32:00,
2013-06-12 07:33:00,61.3,32.0,30.00,North,360,0.0,1.0,33,0.00,,SKC,0.00,VWS V14.01,2013-06-12 13:33:00,
2013-06-12 07:34:00,61.3,32.0,30.00,NNW,327,0.0,2.0,33,0.00,,SKC,0.00,VWS V14.01,2013-06-12 13:34:00,
2013-06-12 07:35:00,61.4,32.1,30.00,NW,325,1.0,1.0,33,0.00,,SKC,0.00,VWS V14.01,2013-06-12 13:35:00,
2013-06-12 07:36:00,61.4,32.8,30.00,NNW,328,0.0,1.0,34,0.00,,SKC,0.00,VWS V14.01,2013-06-12 13:36:00,
2013-06-12 07:37:00,61.4,32.8,30.00,NNW,329,0.0,0.0,34,0.00,,SKC,0.00,VWS V14.01,2013-06-12 13:37:00,
2013-06-12 07:38:00,61.5,32.2,30.00,NNW,329,0.0,1.0,33,0.00,,SKC,0.00,VWS V14.01,2013-06-12 13:38:00,
2013-06-12 07:39:00,61.5,32.2,30.00,NNW,331,0.0,0.0,33,0.00,,SKC,0.00,VWS V14.01,2013-06-12 13:39:00,
2013-06-12 07:40:00,61.6,31.5,30.00,NNW,327,0.0,1.0,32,0.00,,SKC,0.00,VWS V14.01,2013-06-12 13:40:00,
2013-06-12 07:41:00,61.6,30.7,30.00,NNW,333,1.0,3.0,31,0.00,,SKC,0.00,VWS V14.01,2013-06-12 13:41:00,
2013-06-12 07:42:00,61.6,31.5,30.00,NNW,332,2.0,2.0,32,0.00,,SKC,0.00,VWS V14.01,2013-06-12 13:42:00,
2013-06-12 07:43:00,61.7,31.6,30.00,NNW,329,1.0,4.0,32,0.00,,SKC,0.00,VWS V14.01,2013-06-12 13:43:00,
2013-06-12 07:44:00,61.7,31.6,30.00,North,349,3.0,4.0,32,0.00,,SKC,0.00,VWS V14.01,2013-06-12 13:44:00,
2013-06-12 07:45:00,61.7,31.6,30.00,NNW,346,1.0,3.0,32,0.00,,SKC,0.00,VWS V14.01,2013-06-12 13:45:00,
2013-06-12 07:46:00,61.8,31.6,30.00,NNW,348,0.0,1.0,32,0.00,,SKC,0.00,VWS V14.01,2013-06-12 13:46:00,
2013-06-12 07:47:00,61.8,31.6,30.00,North,360,0.0,1.0,32,0.00,,SKC,0.00,VWS V14.01,2013-06-12 13:47:00,
2013-06-12 07:48:00,61.9,31.0,30.00,North,360,0.0,2.0,31,0.00,,SKC,0.00,VWS V14.01,2013-06-12 13:48:00,
2013-06-12 07:49:00,62.0,31.0,30.00,North,360,2.0,2.0,31,0.00,,SKC,0.00,VWS V14.01,2013-06-12 13:49:00,
2013-06-12 07:50:00,62.0,30.2,30.00,North,360,0.0,2.0,30,0.00,,SKC,0.00,VWS V14.01,2013-06-12 13:50:00,
2013-06-12 07:51:00,62.0,30.2,30.00,North,360,0.0,1.0,30,0.00,,SKC,0.00,VWS V14.01,2013-06-12 13:51:00,
2013-06-12 07:52:00,62.0,31.0,30.00,North,355,0.0,0.0,31,0.00,,SKC,0.00,VWS V14.01,2013-06-12 13:52:00,
2013-06-12 07:53:00,62.1,30.3,30.00,North,355,0.0,0.0,30,0.00,,SKC,0.00,VWS V14.01,2013-06-12 13:53:00,
2013-06-12 07:54:00,62.1,31.1,30.00,North,360,0.0,0.0,31,0.00,,SKC,0.00,VWS V14.01,2013-06-12 13:54:00,
2013-06-12 07:55:00,62.1,30.3,30.00,North,355,0.0,0.0,30,0.00,,SKC,0.00,VWS V14.01,2013-06-12 13:55:00,
2013-06-12 07:56:00,62.2,30.4,30.00,North,360,0.0,1.0,30,0.00,,SKC,0.00,VWS V14.01,2013-06-12 13:56:00,
2013-06-12 07:57:00,62.2,32.0,30.00,North,360,0.0,1.0,32,0.00,,SKC,0.00,VWS V14.01,2013-06-12 13:57:00,
2013-06-12 07:58:00,62.3,32.8,30.00,North,355,0.0,1.0,33,0.00,,SKC,0.00,VWS V14.01,2013-06-12 13:58:00,
2013-06-12 07:59:00,62.3,33.6,30.00,North,351,0.0,1.0,34,0.00,,SKC,0.00,VWS V14.01,2013-06-12 13:59:00,
2013-06-12 08:00:00,62.3,32.9,30.00,North,360,0.0,0.0,33,0.00,,SKC,0.00,VWS V14.01,2013-06-12 14:00:00,
2013-06-12 08:01:00,62.3,34.3,30.00,North,360,0.0,0.0,35,0.00,,SKC,0.00,VWS V14.01,2013-06-12 14:01:00,
2013-06-12 08:02:00,62.3,34.3,30.00,North,360,1.0,1.0,35,0.00,,SKC,0.00,VWS V14.01,2013-06-12 14:02:00,
2013-06-12 08:03:00,62.4,33.7,30.00,North,360,2.0,2.0,34,0.00,,SKC,0.00,VWS V14.01,2013-06-12 14:03:00,
2013-06-12 08:04:00,62.4,33.7,30.00,North,350,0.0,2.0,34,0.00,,SKC,0.00,VWS V14.01,2013-06-12 14:04:00,
2013-06-12 08:05:00,62.5,35.2,30.00,North,360,1.0,1.0,36,0.00,,SKC,0.00,VWS V14.01,2013-06-12 14:05:00,
2013-06-12 08:06:00,62.6,34.6,30.00,North,360,0.0,1.0,35,0.00,,SKC,0.00,VWS V14.01,2013-06-12 14:06:00,
2013-06-12 08:07:00,62.7,32.4,30.00,North,350,0.0,0.0,32,0.00,,SKC,0.00,VWS V14.01,2013-06-12 14:07:00,
2013-06-12 08:08:00,62.7,32.4,30.00,North,355,1.0,1.0,32,0.00,,SKC,0.00,VWS V14.01,2013-06-12 14:08:00,
2013-06-12 08:09:00,62.8,31.7,30.00,North,360,0.0,1.0,31,0.00,,SKC,0.00,VWS V14.01,2013-06-12 14:09:00,
2013-06-12 08:10:00,62.9,31.0,30.00,North,360,0.0,0.0,30,0.00,,SKC,0.00,VWS V14.01,2013-06-12 14:10:00,
2013-06-12 08:11:00,62.9,30.2,30.00,North,355,0.0,0.0,29,0.00,,SKC,0.00,VWS V14.01,2013-06-12 14:11:00,
2013-06-12 08:12:00,63.0,31.1,30.00,North,350,0.0,0.0,30,0.00,,SKC,0.00,VWS V14.01,2013-06-12 14:12:00,
2013-06-12 08:13:00,63.1,32.0,30.00,North,360,0.0,1.0,31,0.00,,SKC,0.00,VWS V14.01,2013-06-12 14:13:00,
2013-06-12 08:14:00,63.2,32.9,30.00,North,355,1.0,1.0,32,0.00,,SKC,0.00,VWS V14.01,2013-06-12 14:14:00,
2013-06-12 08:15:00,63.4,32.3,30.00,North,355,0.0,1.0,31,0.00,,SKC,0.00,VWS V14.01,2013-06-12 14:15:00,
2013-06-12 08:16:00,63.5,32.3,30.00,North,360,0.0,1.0,31,0.00,,SKC,0.00,VWS V14.01,2013-06-12 14:16:00,
2013-06-12 08:17:00,63.8,32.6,30.00,North,351,0.0,0.0,31,0.00,,SKC,0.00,VWS V14.01,2013-06-12 14:17:00,
2013-06-12 08:18:00,64.0,32.0,30.00,North,360,0.0,0.0,30,0.00,,SKC,0.00,VWS V14.01,2013-06-12 14:18:00,
2013-06-12 08:19:00,64.2,32.2,30.00,North,351,0.0,0.0,30,0.00,,SKC,0.00,VWS V14.01,2013-06-12 14:19:00,
2013-06-12 08:20:00,64.4,30.6,30.00,NNW,348,0.0,0.0,28,0.00,,SKC,0.00,VWS V14.01,2013-06-12 14:20:00,
2013-06-12 08:21:00,64.5,29.8,30.00,North,360,0.0,0.0,27,0.00,,SKC,0.00,VWS V14.01,2013-06-12 14:21:00,
2013-06-12 08:22:00,64.7,30.0,30.00,North,360,0.0,0.0,27,0.00,,SKC,0.00,VWS V14.01,2013-06-12 14:22:00,
2013-06-12 08:23:00,64.8,30.1,30.00,North,355,0.0,0.0,27,0.00,,SKC,0.00,VWS V14.01,2013-06-12 14:23:00,
2013-06-12 08:24:00,64.9,31.0,29.99,North,355,0.0,0.0,28,0.00,,SKC,0.00,VWS V14.01,2013-06-12 14:24:00,
2013-06-12 08:25:00,65.0,31.1,29.99,NE,35,3.0,3.0,28,0.00,,SKC,0.00,VWS V14.01,2013-06-12 14:25:00,
2013-06-12 08:26:00,65.1,32.9,29.99,NE,37,3.0,3.0,30,0.00,,SKC,0.00,VWS V14.01,2013-06-12 14:26:00,
2013-06-12 08:27:00,65.2,32.2,30.00,NE,35,0.0,3.0,29,0.00,,SKC,0.00,VWS V14.01,2013-06-12 14:27:00,
2013-06-12 08:28:00,65.3,32.3,29.99,ENE,66,3.0,5.0,29,0.00,,SKC,0.00,VWS V14.01,2013-06-12 14:28:00,
2013-06-12 08:29:00,65.4,34.0,30.00,East,101,6.0,7.0,31,0.00,,SKC,0.00,VWS V14.01,2013-06-12 14:29:00,
2013-06-12 08:30:00,65.6,31.6,30.00,East,90,3.0,6.0,28,0.00,,SKC,0.00,VWS V14.01,2013-06-12 14:30:00,
2013-06-12 08:31:00,65.7,31.7,30.00,East,100,4.0,6.0,28,0.00,,SKC,0.00,VWS V14.01,2013-06-12 14:31:00,
2013-06-12 08:32:00,65.8,30.9,30.00,East,83,3.0,6.0,27,0.00,,SKC,0.00,VWS V14.01,2013-06-12 14:32:00,
2013-06-12 08:33:00,65.9,31.9,30.00,East,86,4.0,7.0,28,0.00,,SKC,0.00,VWS V14.01,2013-06-12 14:33:00,
2013-06-12 08:34:00,66.0,32.9,30.00,East,86,3.0,4.0,29,0.00,,SKC,0.00,VWS V14.01,2013-06-12 14:34:00,
2013-06-12 08:35:00,66.1,32.1,29.99,East,84,4.0,4.0,28,0.00,,SKC,0.00,VWS V14.01,2013-06-12 14:35:00,
2013-06-12 08:36:00,66.2,32.2,29.99,East,88,3.0,5.0,28,0.00,,SKC,0.00,VWS V14.01,2013-06-12 14:36:00,
2013-06-12 08:37:00,66.4,31.4,29.99,ESE,116,5.0,7.0,27,0.00,,SKC,0.00,VWS V14.01,2013-06-12 14:37:00,
2013-06-12 08:38:00,66.5,30.6,29.99,ENE,78,0.0,5.0,26,0.00,,SKC,0.00,VWS V14.01,2013-06-12 14:38:00,
2013-06-12 08:39:00,66.6,32.5,29.99,ESE,104,4.0,5.0,28,0.00,,SKC,0.00,VWS V14.01,2013-06-12 14:39:00,
2013-06-12 08:40:00,66.7,31.7,29.99,East,100,3.0,5.0,27,0.00,,SKC,0.00,VWS V14.01,2013-06-12 14:40:00,
2013-06-12 08:41:00,66.9,32.8,29.99,ESE,107,5.0,5.0,28,0.00,,SKC,0.00,VWS V14.01,2013-06-12 14:41:00,
2013-06-12 08:42:00,67.0,32.0,29.99,East,100,3.0,5.0,27,0.00,,SKC,0.00,VWS V14.01,2013-06-12 14:42:00,
2013-06-12 08:43:00,67.1,32.0,29.99,ESE,105,3.0,5.0,27,0.00,,SKC,0.00,VWS V14.01,2013-06-12 14:43:00,
2013-06-12 08:44:00,67.3,32.2,29.99,ESE,103,2.0,4.0,27,0.00,,SKC,0.00,VWS V14.01,2013-06-12 14:44:00,
2013-06-12 08:45:00,67.4,33.2,29.99,ESE,104,4.0,6.0,28,0.00,,SKC,0.00,VWS V14.01,2013-06-12 14:45:00,
2013-06-12 08:46:00,67.6,33.4,29.99,East,101,5.0,5.0,28,0.00,,SKC,0.00,VWS V14.01,2013-06-12 14:46:00,
2013-06-12 08:47:00,67.7,31.6,29.99,East,91,2.0,5.0,26,0.00,,SKC,0.00,VWS V14.01,2013-06-12 14:47:00,
2013-06-12 08:48:00,67.8,32.6,29.99,East,90,3.0,5.0,27,0.00,,SKC,0.00,VWS V14.01,2013-06-12 14:48:00,
2013-06-12 08:49:00,67.9,32.7,29.99,East,101,5.0,5.0,27,0.00,,SKC,0.00,VWS V14.01,2013-06-12 14:49:00,
2013-06-12 08:50:00,68.0,32.8,29.99,ESE,103,3.0,7.0,27,0.00,,SKC,0.00,VWS V14.01,2013-06-12 14:50:00,
2013-06-12 08:51:00,68.2,32.0,29.99,East,90,4.0,6.0,26,0.00,,SKC,0.00,VWS V14.01,2013-06-12 14:51:00,
2013-06-12 08:52:00,68.4,33.2,29.99,East,98,6.0,10.0,27,0.00,,SKC,0.00,VWS V14.01,2013-06-12 14:52:00,
2013-06-12 08:53:00,68.5,32.3,29.99,ESE,103,6.0,6.0,26,0.00,,SKC,0.00,VWS V14.01,2013-06-12 14:53:00,
2013-06-12 08:54:00,68.6,33.3,29.99,ESE,103,7.0,7.0,27,0.00,,SKC,0.00,VWS V14.01,2013-06-12 14:54:00,
2013-06-12 08:55:00,68.8,32.5,29.99,East,90,5.0,9.0,26,0.00,,SKC,0.00,VWS V14.01,2013-06-12 14:55:00,
2013-06-12 08:56:00,68.9,31.7,29.99,East,98,7.0,8.0,25,0.00,,SKC,0.00,VWS V14.01,2013-06-12 14:56:00,
2013-06-12 08:57:00,69.0,32.7,29.99,East,92,6.0,9.0,26,0.00,,SKC,0.00,VWS V14.01,2013-06-12 14:57:00,
2013-06-12 08:58:00,69.2,32.9,29.99,East,96,6.0,7.0,26,0.00,,SKC,0.00,VWS V14.01,2013-06-12 14:58:00,
2013-06-12 08:59:00,69.3,33.9,29.99,ESE,113,5.0,7.0,27,0.00,,SKC,0.00,VWS V14.01,2013-06-12 14:59:00,
2013-06-12 09:00:00,69.4,33.1,29.99,ESE,109,5.0,7.0,26,0.00,,SKC,0.00,VWS V14.01,2013-06-12 15:00:00,
2013-06-12 09:01:00,69.5,33.1,29.99,ESE,106,4.0,6.0,26,0.00,,SKC,0.00,VWS V14.01,2013-06-12 15:01:00,
2013-06-12 09:02:00,69.6,32.2,29.99,East,80,6.0,7.0,25,0.00,,SKC,0.00,VWS V14.01,2013-06-12 15:02:00,
2013-06-12 09:03:00,69.7,32.3,29.99,ENE,63,1.0,7.0,25,0.00,,SKC,0.00,VWS V14.01,2013-06-12 15:03:00,
2013-06-12 09:04:00,69.8,32.4,29.99,NE,55,2.0,4.0,25,0.00,,SKC,0.00,VWS V14.01,2013-06-12 15:04:00,
2013-06-12 09:05:00,69.9,31.5,29.99,East,93,7.0,7.0,24,0.00,,SKC,0.00,VWS V14.01,2013-06-12 15:05:00,
2013-06-12 09:06:00,69.9,31.5,29.99,East,89,9.0,11.0,24,0.00,,SKC,0.00,VWS V14.01,2013-06-12 15:06:00,
2013-06-12 09:07:00,70.0,31.6,29.99,East,88,4.0,9.0,24,0.00,,SKC,0.00,VWS V14.01,2013-06-12 15:07:00,
2013-06-12 09:08:00,70.0,32.6,29.99,East,94,7.0,7.0,25,0.00,,SKC,0.00,VWS V14.01,2013-06-12 15:08:00,
2013-06-12 09:09:00,70.1,31.7,29.99,ESE,107,4.0,8.0,24,0.00,,SKC,0.00,VWS V14.01,2013-06-12 15:09:00,
2013-06-12 09:10:00,70.1,31.7,29.99,ESE,102,5.0,5.0,24,0.00,,SKC,0.00,VWS V14.01,2013-06-12 15:10:00,
2013-06-12 09:11:00,70.2,32.8,29.99,NE,51,0.0,6.0,25,0.00,,SKC,0.00,VWS V14.01,2013-06-12 15:11:00,
2013-06-12 09:12:00,70.3,32.8,29.99,ESE,107,5.0,7.0,25,0.00,,SKC,0.00,VWS V14.01,2013-06-12 15:12:00,
2013-06-12 09:13:00,70.3,31.8,29.99,East,89,6.0,7.0,24,0.00,,SKC,0.00,VWS V14.01,2013-06-12 15:13:00,
2013-06-12 09:14:00,70.4,31.9,29.99,East,79,4.0,9.0,24,0.00,,SKC,0.00,VWS V14.01,2013-06-12 15:14:00,
2013-06-12 09:15:00,70.4,31.9,29.99,East,86,6.0,7.0,24,0.00,,SKC,0.00,VWS V14.01,2013-06-12 15:15:00,
2013-06-12 09:16:00,70.5,32.0,29.98,East,93,5.0,9.0,24,0.00,,SKC,0.00,VWS V14.01,2013-06-12 15:16:00,
2013-06-12 09:17:00,70.6,32.1,29.99,SE,125,7.0,7.0,24,0.00,,SKC,0.00,VWS V14.01,2013-06-12 15:17:00,
2013-06-12 09:18:00,70.7,33.2,29.99,North,360,5.0,9.0,25,0.00,,SKC,0.00,VWS V14.01,2013-06-12 15:18:00,
2013-06-12 09:19:00,70.8,33.3,29.98,SE,127,5.0,6.0,25,0.00,,SKC,0.00,VWS V14.01,2013-06-12 15:19:00,
2013-06-12 09:20:00,70.9,32.3,29.98,ESE,103,5.0,7.0,24,0.00,,SKC,0.00,VWS V14.01,2013-06-12 15:20:00,
2013-06-12 09:21:00,71.1,32.5,29.98,East,97,3.0,7.0,24,0.00,,SKC,0.00,VWS V14.01,2013-06-12 15:21:00,
2013-06-12 09:22:00,71.2,32.6,29.98,East,96,1.0,4.0,24,0.00,,SKC,0.00,VWS V14.01,2013-06-12 15:22:00,
2013-06-12 09:23:00,71.3,31.6,29.98,ENE,70,1.0,6.0,23,0.00,,SKC,0.00,VWS V14.01,2013-06-12 15:23:00,
2013-06-12 09:24:00,71.3,31.6,29.98,East,98,7.0,9.0,23,0.00,,SKC,0.00,VWS V14.01,2013-06-12 15:24:00,
2013-06-12 09:25:00,71.4,31.7,29.98,ENE,77,5.0,9.0,23,0.00,,SKC,0.00,VWS V14.01,2013-06-12 15:25:00,
2013-06-12 09:26:00,71.5,31.8,29.98,ENE,75,7.0,7.0,23,0.00,,SKC,0.00,VWS V14.01,2013-06-12 15:26:00,
2013-06-12 09:27:00,71.6,32.9,29.98,East,86,7.0,10.0,24,0.00,,SKC,0.00,VWS V14.01,2013-06-12 15:27:00,
2013-06-12 09:28:00,71.7,32.0,29.98,NNE,26,2.0,10.0,23,0.00,,SKC,0.00,VWS V14.01,2013-06-12 15:28:00,
2013-06-12 09:29:00,71.8,32.0,29.98,East,94,12.0,12.0,23,0.00,,SKC,0.00,VWS V14.01,2013-06-12 15:29:00,
2013-06-12 09:30:00,71.9,32.1,29.98,North,360,6.0,12.0,23,0.00,,SKC,0.00,VWS V14.01,2013-06-12 15:30:00,
2013-06-12 09:31:00,71.9,32.1,29.98,ESE,114,4.0,6.0,23,0.00,,SKC,0.00,VWS V14.01,2013-06-12 15:31:00,
2013-06-12 09:32:00,71.9,33.2,29.98,ESE,113,9.0,13.0,24,0.00,,SKC,0.00,VWS V14.01,2013-06-12 15:32:00,
2013-06-12 09:33:00,72.0,32.2,29.98,ESE,113,11.0,11.0,23,0.00,,SKC,0.00,VWS V14.01,2013-06-12 15:33:00,
2013-06-12 09:34:00,72.0,33.3,29.98,ESE,110,6.0,12.0,24,0.00,,SKC,0.00,VWS V14.01,2013-06-12 15:34:00,
2013-06-12 09:35:00,72.1,32.3,29.98,ESE,103,7.0,12.0,23,0.00,,SKC,0.00,VWS V14.01,2013-06-12 15:35:00,
2013-06-12 09:36:00,72.1,32.3,29.98,East,84,9.0,9.0,23,0.00,,SKC,0.00,VWS V14.01,2013-06-12 15:36:00,
2013-06-12 09:37:00,72.2,33.4,29.98,East,79,5.0,9.0,24,0.00,,SKC,0.00,VWS V14.01,2013-06-12 15:37:00,
2013-06-12 09:38:00,72.2,33.4,29.98,East,97,7.0,7.0,24,0.00,,SKC,0.00,VWS V14.01,2013-06-12 15:38:00,
2013-06-12 09:39:00,72.3,34.5,29.98,ESE,110,3.0,9.0,25,0.00,,SKC,0.00,VWS V14.01,2013-06-12 15:39:00,
2013-06-12 09:40:00,72.4,33.6,29.98,ESE,123,3.0,6.0,24,0.00,,SKC,0.00,VWS V14.01,2013-06-12 15:40:00,
2013-06-12 09:41:00,72.4,33.6,29.98,SE,140,10.0,10.0,24,0.00,,SKC,0.00,VWS V14.01,2013-06-12 15:41:00,
2013-06-12 09:42:00,72.4,33.6,29.98,ESE,103,6.0,11.0,24,0.00,,SKC,0.00,VWS V14.01,2013-06-12 15:42:00,
2013-06-12 09:43:00,72.5,34.7,29.98,East,98,7.0,11.0,25,0.00,,SKC,0.00,VWS V14.01,2013-06-12 15:43:00,
2013-06-12 09:44:00,72.5,33.7,29.98,ENE,57,5.0,8.0,24,0.00,,SKC,0.00,VWS V14.01,2013-06-12 15:44:00,
2013-06-12 09:45:00,72.6,34.8,29.98,East,101,7.0,10.0,25,0.00,,SKC,0.00,VWS V14.01,2013-06-12 15:45:00,
2013-06-12 09:46:00,72.6,33.8,29.98,ENE,67,5.0,9.0,24,0.00,,SKC,0.00,VWS V14.01,2013-06-12 15:46:00,
2013-06-12 09:47:00,72.6,34.8,29.98,ENE,77,7.0,9.0,25,0.00,,SKC,0.00,VWS V14.01,2013-06-12 15:47:00,
2013-06-12 09:48:00,72.6,34.8,29.98,East,95,5.0,11.0,25,0.00,,SKC,0.00,VWS V14.01,2013-06-12 15:48:00,
2013-06-12 09:49:00,72.5,34.7,29.98,ESE,105,1.0,7.0,25,0.00,,SKC,0.00,VWS V14.01,2013-06-12 15:49:00,
2013-06-12 09:50:00,72.5,35.7,29.98,ESE,116,4.0,9.0,26,0.00,,SKC,0.00,VWS V14.01,2013-06-12 15:50:00,
2013-06-12 09:51:00,72.5,35.7,29.98,East,89,12.0,14.0,26,0.00,,SKC,0.00,VWS V14.01,2013-06-12 15:51:00,
2013-06-12 09:52:00,72.5,34.7,29.98,North,360,9.0,14.0,25,0.00,,SKC,0.00,VWS V14.01,2013-06-12 15:52:00,
2013-06-12 09:53:00,72.5,33.7,29.98,East,82,9.0,11.0,24,0.00,,SKC,0.00,VWS V14.01,2013-06-12 15:53:00,
2013-06-12 09:54:00,72.5,34.7,29.98,East,80,10.0,10.0,25,0.00,,SKC,0.00,VWS V14.01,2013-06-12 15:54:00,
2013-06-12 09:55:00,72.5,35.7,29.98,East,88,4.0,10.0,26,0.00,,SKC,0.00,VWS V14.01,2013-06-12 15:55:00,
2013-06-12 09:56:00,72.5,34.7,29.99,ENE,67,4.0,8.0,25,0.00,,SKC,0.00,VWS V14.01,2013-06-12 15:56:00,
2013-06-12 09:57:00,72.6,34.8,29.98,ENE,71,2.0,6.0,25,0.00,,SKC,0.00,VWS V14.01,2013-06-12 15:57:00,
2013-06-12 09:58:00,72.6,36.7,29.98,SE,138,4.0,6.0,27,0.00,,SKC,0.00,VWS V14.01,2013-06-12 15:58:00,
2013-06-12 09:59:00,72.7,35.9,29.98,East,98,10.0,11.0,26,0.00,,SKC,0.00,VWS V14.01,2013-06-12 15:59:00,
2013-06-12 10:00:00,72.7,34.9,29.99,East,88,3.0,9.0,25,0.00,,SKC,0.00,VWS V14.01,2013-06-12 16:00:00,
2013-06-12 10:01:00,72.8,35.0,29.98,ESE,119,4.0,7.0,25,0.00,,SKC,0.00,VWS V14.01,2013-06-12 16:01:00,
2013-06-12 10:02:00,72.8,36.9,29.99,ESE,109,6.0,12.0,27,0.00,,SKC,0.00,VWS V14.01,2013-06-12 16:02:00,
2013-06-12 10:03:00,72.9,36.0,29.98,SE,133,3.0,7.0,26,0.00,,SKC,0.00,VWS V14.01,2013-06-12 16:03:00,
2013-06-12 10:04:00,72.9,36.0,29.99,ESE,118,10.0,14.0,26,0.00,,SKC,0.00,VWS V14.01,2013-06-12 16:04:00,
2013-06-12 10:05:00,72.9,33.0,29.98,SE,127,7.0,12.0,23,0.00,,SKC,0.00,VWS V14.01,2013-06-12 16:05:00,
2013-06-12 10:06:00,72.8,33.9,29.98,ESE,117,9.0,14.0,24,0.00,,SKC,0.00,VWS V14.01,2013-06-12 16:06:00,
2013-06-12 10:07:00,72.7,33.9,29.98,SE,143,7.0,11.0,24,0.00,,SKC,0.00,VWS V14.01,2013-06-12 16:07:00,
2013-06-12 10:08:00,72.6,33.8,29.98,East,100,9.0,14.0,24,0.00,,SKC,0.00,VWS V14.01,2013-06-12 16:08:00,
2013-06-12 10:09:00,72.5,35.7,29.99,ESE,104,4.0,9.0,26,0.00,,SKC,0.00,VWS V14.01,2013-06-12 16:09:00,
2013-06-12 10:10:00,72.4,34.6,29.99,SE,145,9.0,10.0,25,0.00,,SKC,0.00,VWS V14.01,2013-06-12 16:10:00,
2013-06-12 10:11:00,72.4,35.6,29.98,SE,138,5.0,12.0,26,0.00,,SKC,0.00,VWS V14.01,2013-06-12 16:11:00,
2013-06-12 10:12:00,72.3,33.5,29.98,SE,134,6.0,11.0,24,0.00,,SKC,0.00,VWS V14.01,2013-06-12 16:12:00,
2013-06-12 10:13:00,72.2,34.5,29.98,ESE,115,5.0,7.0,25,0.00,,SKC,0.00,VWS V14.01,2013-06-12 16:13:00,
2013-06-12 10:14:00,72.2,34.5,29.98,SE,124,5.0,12.0,25,0.00,,SKC,0.00,VWS V14.01,2013-06-12 16:14:00,
2013-06-12 10:15:00,72.2,34.5,29.99,North,360,5.0,9.0,25,0.00,,SKC,0.00,VWS V14.01,2013-06-12 16:15:00,
2013-06-12 10:16:00,72.3,35.5,29.99,East,86,6.0,11.0,26,0.00,,SKC,0.00,VWS V14.01,2013-06-12 16:16:00,
2013-06-12 10:17:00,72.3,34.5,29.99,ESE,102,13.0,14.0,25,0.00,,SKC,0.00,VWS V14.01,2013-06-12 16:17:00,
2013-06-12 10:18:00,72.4,33.6,29.99,SE,125,11.0,13.0,24,0.00,,SKC,0.00,VWS V14.01,2013-06-12 16:18:00,
2013-06-12 10:19:00,72.5,35.7,29.98,ESE,121,5.0,15.0,26,0.00,,SKC,0.00,VWS V14.01,2013-06-12 16:19:00,
2013-06-12 10:20:00,72.6,33.8,29.98,SE,136,6.0,10.0,24,0.00,,SKC,0.00,VWS V14.01,2013-06-12 16:20:00,
2013-06-12 10:21:00,72.6,34.8,29.99,ENE,67,7.0,8.0,25,0.00,,SKC,0.00,VWS V14.01,2013-06-12 16:21:00,
2013-06-12 10:22:00,72.7,34.9,29.99,East,98,8.0,14.0,25,0.00,,SKC,0.00,VWS V14.01,2013-06-12 16:22:00,
2013-06-12 10:23:00,72.8,33.9,29.99,ENE,73,4.0,8.0,24,0.00,,SKC,0.00,VWS V14.01,2013-06-12 16:23:00,
2013-06-12 10:24:00,72.9,35.0,29.99,SE,126,8.0,8.0,25,0.00,,SKC,0.00,VWS V14.01,2013-06-12 16:24:00,
2013-06-12 10:25:00,73.0,36.1,29.99,ESE,111,10.0,11.0,26,0.00,,SKC,0.00,VWS V14.01,2013-06-12 16:25:00,
2013-06-12 10:26:00,73.1,36.2,29.99,East,98,11.0,11.0,26,0.00,,SKC,0.00,VWS V14.01,2013-06-12 16:26:00,
2013-06-12 10:27:00,73.1,34.2,29.98,SE,129,6.0,12.0,24,0.00,,SKC,0.00,VWS V14.01,2013-06-12 16:27:00,
2013-06-12 10:28:00,73.2,35.3,29.98,North,360,4.0,11.0,25,0.00,,SKC,0.00,VWS V14.01,2013-06-12 16:28:00,
2013-06-12 10:29:00,73.3,33.3,29.98,East,93,11.0,12.0,23,0.00,,SKC,0.00,VWS V14.01,2013-06-12 16:29:00,
2013-06-12 10:30:00,73.4,35.5,29.99,ESE,107,6.0,13.0,25,0.00,,SKC,0.00,VWS V14.01,2013-06-12 16:30:00,
2013-06-12 10:31:00,73.5,34.5,29.98,ESE,102,10.0,11.0,24,0.00,,SKC,0.00,VWS V14.01,2013-06-12 16:31:00,
2013-06-12 10:32:00,73.5,35.6,29.99,East,82,4.0,11.0,25,0.00,,SKC,0.00,VWS V14.01,2013-06-12 16:32:00,
2013-06-12 10:33:00,73.6,35.6,29.98,East,90,10.0,10.0,25,0.00,,SKC,0.00,VWS V14.01,2013-06-12 16:33:00,
2013-06-12 10:34:00,73.6,34.6,29.98,ENE,67,6.0,11.0,24,0.00,,SKC,0.00,VWS V14.01,2013-06-12 16:34:00,
2013-06-12 10:35:00,73.7,34.7,29.98,East,98,4.0,7.0,24,0.00,,SKC,0.00,VWS V14.01,2013-06-12 16:35:00,
2013-06-12 10:36:00,73.7,35.7,29.99,East,98,3.0,7.0,25,0.00,,SKC,0.00,VWS V14.01,2013-06-12 16:36:00,
2013-06-12 10:37:00,73.8,35.8,29.99,ESE,121,9.0,15.0,25,0.00,,SKC,0.00,VWS V14.01,2013-06-12 16:37:00,
2013-06-12 10:38:00,73.9,35.9,29.99,ESE,102,6.0,11.0,25,0.00,,SKC,0.00,VWS V14.01,2013-06-12 16:38:00,
2013-06-12 10:39:00,74.0,35.0,29.98,ESE,103,5.0,7.0,24,0.00,,SKC,0.00,VWS V14.01,2013-06-12 16:39:00,
2013-06-12 10:40:00,74.1,36.1,29.99,East,94,6.0,13.0,25,0.00,,SKC,0.00,VWS V14.01,2013-06-12 16:40:00,
2013-06-12 10:41:00,74.1,35.0,29.99,East,91,10.0,10.0,24,0.00,,SKC,0.00,VWS V14.01,2013-06-12 16:41:00,
2013-06-12 10:42:00,74.2,36.2,29.98,East,84,7.0,12.0,25,0.00,,SKC,0.00,VWS V14.01,2013-06-12 16:42:00,
2013-06-12 10:43:00,74.2,36.2,29.98,East,94,9.0,13.0,25,0.00,,SKC,0.00,VWS V14.01,2013-06-12 16:43:00,
2013-06-12 10:44:00,74.3,36.2,29.99,East,95,13.0,16.0,25,0.00,,SKC,0.00,VWS V14.01,2013-06-12 16:44:00,
2013-06-12 10:45:00,74.3,37.2,29.99,East,86,13.0,13.0,26,0.00,,SKC,0.00,VWS V14.01,2013-06-12 16:45:00,
2013-06-12 10:46:00,74.3,37.2,29.99,ESE,105,11.0,15.0,26,0.00,,SKC,0.00,VWS V14.01,2013-06-12 16:46:00,
2013-06-12 10:47:00,74.4,36.3,29.99,East,86,8.0,13.0,25,0.00,,SKC,0.00,VWS V14.01,2013-06-12 16:47:00,
2013-06-12 10:48:00,74.4,36.3,29.98,East,96,13.0,15.0,25,0.00,,SKC,0.00,VWS V14.01,2013-06-12 16:48:00,
2013-06-12 10:49:00,74.4,36.3,29.99,East,96,12.0,16.0,25,0.00,,SKC,0.00,VWS V14.01,2013-06-12 16:49:00,
2013-06-12 10:50:00,74.4,36.3,29.99,North,360,11.0,15.0,25,0.00,,SKC,0.00,VWS V14.01,2013-06-12 16:50:00,
2013-06-12 10:51:00,74.4,36.3,29.98,East,93,12.0,16.0,25,0.00,,SKC,0.00,VWS V14.01,2013-06-12 16:51:00,
2013-06-12 10:52:00,74.4,36.3,29.99,East,93,11.0,17.0,25,0.00,,SKC,0.00,VWS V14.01,2013-06-12 16:52:00,
2013-06-12 10:53:00,74.4,36.3,29.98,ENE,72,8.0,14.0,25,0.00,,SKC,0.00,VWS V14.01,2013-06-12 16:53:00,
2013-06-12 10:54:00,74.4,36.3,29.99,East,94,13.0,13.0,25,0.00,,SKC,0.00,VWS V14.01,2013-06-12 16:54:00,
2013-06-12 10:55:00,74.4,35.3,29.99,East,84,9.0,13.0,24,0.00,,SKC,0.00,VWS V14.01,2013-06-12 16:55:00,
2013-06-12 10:56:00,74.5,36.4,29.98,East,92,8.0,10.0,25,0.00,,SKC,0.00,VWS V14.01,2013-06-12 16:56:00,
2013-06-12 10:57:00,74.5,37.4,29.98,East,98,9.0,13.0,26,0.00,,SKC,0.00,VWS V14.01,2013-06-12 16:57:00,
2013-06-12 10:58:00,74.6,36.5,29.98,East,97,10.0,13.0,25,0.00,,SKC,0.00,VWS V14.01,2013-06-12 16:58:00,
2013-06-12 10:59:00,74.6,36.5,29.98,ESE,105,9.0,13.0,25,0.00,,SKC,0.00,VWS V14.01,2013-06-12 16:59:00,
2013-06-12 11:00:00,74.7,35.5,29.99,East,94,11.0,12.0,24,0.00,,SKC,0.00,VWS V14.01,2013-06-12 17:00:00,
2013-06-12 11:01:00,74.7,35.5,29.98,East,83,8.0,10.0,24,0.00,,SKC,0.00,VWS V14.01,2013-06-12 17:01:00,
2013-06-12 11:02:00,74.7,35.5,29.98,East,94,11.0,12.0,24,0.00,,SKC,0.00,VWS V14.01,2013-06-12 17:02:00,
2013-06-12 11:03:00,74.8,36.7,29.98,ESE,108,7.0,12.0,25,0.00,,SKC,0.00,VWS V14.01,2013-06-12 17:03:00,
2013-06-12 11:04:00,74.8,36.7,29.98,East,98,6.0,12.0,25,0.00,,SKC,0.00,VWS V14.01,2013-06-12 17:04:00,
2013-06-12 11:05:00,74.8,36.7,29.99,East,98,9.0,11.0,25,0.00,,SKC,0.00,VWS V14.01,2013-06-12 17:05:00,
2013-06-12 11:06:00,74.9,36.7,29.99,East,96,13.0,13.0,25,0.00,,SKC,0.00,VWS V14.01,2013-06-12 17:06:00,
2013-06-12 11:07:00,74.9,35.7,29.98,ESE,102,14.0,14.0,24,0.00,,SKC,0.00,VWS V14.01,2013-06-12 17:07:00,
2013-06-12 11:08:00,75.0,36.8,29.99,East,88,10.0,14.0,25,0.00,,SKC,0.00,VWS V14.01,2013-06-12 17:08:00,
2013-06-12 11:09:00,75.1,36.9,29.99,East,89,10.0,13.0,25,0.00,,SKC,0.00,VWS V14.01,2013-06-12 17:09:00,
2013-06-12 11:10:00,75.1,36.9,29.98,East,96,9.0,12.0,25,0.00,,SKC,0.00,VWS V14.01,2013-06-12 17:10:00,
2013-06-12 11:11:00,75.2,37.0,29.98,East,83,12.0,13.0,25,0.00,,SKC,0.00,VWS V14.01,2013-06-12 17:11:00,
2013-06-12 11:12:00,75.3,37.1,29.98,East,94,14.0,15.0,25,0.00,,SKC,0.00,VWS V14.01,2013-06-12 17:12:00,
2013-06-12 11:13:00,75.4,37.2,29.98,East,84,6.0,14.0,25,0.00,,SKC,0.00,VWS V14.01,2013-06-12 17:13:00,
2013-06-12 11:14:00,75.5,37.2,29.99,ENE,71,7.0,11.0,25,0.00,,SKC,0.00,VWS V14.01,2013-06-12 17:14:00,
2013-06-12 11:15:00,75.6,37.3,29.98,ENE,63,4.0,7.0,25,0.00,,SKC,0.00,VWS V14.01,2013-06-12 17:15:00,
2013-06-12 11:16:00,75.8,38.5,29.98,ESE,113,9.0,17.0,26,0.00,,SKC,0.00,VWS V14.01,2013-06-12 17:16:00,
2013-06-12 11:17:00,75.9,36.5,29.98,ESE,107,4.0,9.0,24,0.00,,SKC,0.00,VWS V14.01,2013-06-12 17:17:00,
2013-06-12 11:18:00,76.0,36.6,29.99,East,101,7.0,12.0,24,0.00,,SKC,0.00,VWS V14.01,2013-06-12 17:18:00,
2013-06-12 11:19:00,76.0,36.6,29.98,ESE,123,5.0,11.0,24,0.00,,SKC,0.00,VWS V14.01,2013-06-12 17:19:00,
2013-06-12 11:20:00,76.0,35.6,29.99,ESE,102,9.0,11.0,23,0.00,,SKC,0.00,VWS V14.01,2013-06-12 17:20:00,
2013-06-12 11:21:00,75.9,34.4,29.99,ESE,107,5.0,14.0,22,0.00,,SKC,0.00,VWS V14.01,2013-06-12 17:21:00,
2013-06-12 11:22:00,75.8,34.3,29.99,East,84,9.0,13.0,22,0.00,,SKC,0.00,VWS V14.01,2013-06-12 17:22:00,
2013-06-12 11:23:00,75.7,35.3,29.99,ESE,104,12.0,12.0,23,0.00,,SKC,0.00,VWS V14.01,2013-06-12 17:23:00,
2013-06-12 11:24:00,75.6,35.2,29.99,ESE,102,9.0,13.0,23,0.00,,SKC,0.00,VWS V14.01,2013-06-12 17:24:00,
2013-06-12 11:25:00,75.5,35.2,29.99,ESE,119,5.0,9.0,23,0.00,,SKC,0.00,VWS V14.01,2013-06-12 17:25:00,
2013-06-12 11:26:00,75.4,34.0,29.99,East,93,7.0,10.0,22,0.00,,SKC,0.00,VWS V14.01,2013-06-12 17:26:00,
2013-06-12 11:27:00,75.3,33.9,29.99,ENE,74,5.0,11.0,22,0.00,,SKC,0.00,VWS V14.01,2013-06-12 17:27:00,
2013-06-12 11:28:00,75.3,35.0,29.99,ENE,64,11.0,11.0,23,0.00,,SKC,0.00,VWS V14.01,2013-06-12 17:28:00,
2013-06-12 11:29:00,75.2,34.9,29.99,ESE,105,9.0,14.0,23,0.00,,SKC,0.00,VWS V14.01,2013-06-12 17:29:00,
2013-06-12 11:30:00,75.2,34.9,29.98,East,99,9.0,14.0,23,0.00,,SKC,0.00,VWS V14.01,2013-06-12 17:30:00,
2013-06-12 11:31:00,75.2,34.9,29.99,East,99,7.0,9.0,23,0.00,,SKC,0.00,VWS V14.01,2013-06-12 17:31:00,
2013-06-12 11:32:00,75.1,34.8,29.99,SE,130,13.0,13.0,23,0.00,,SKC,0.00,VWS V14.01,2013-06-12 17:32:00,
2013-06-12 11:33:00,75.1,34.8,29.99,ESE,108,12.0,14.0,23,0.00,,SKC,0.00,VWS V14.01,2013-06-12 17:33:00,
2013-06-12 11:34:00,75.0,34.7,29.98,ESE,105,14.0,14.0,23,0.00,,SKC,0.00,VWS V14.01,2013-06-12 17:34:00,
2013-06-12 11:35:00,74.9,35.7,29.99,ESE,107,9.0,14.0,24,0.00,,SKC,0.00,VWS V14.01,2013-06-12 17:35:00,
2013-06-12 11:36:00,74.9,34.6,29.98,East,100,6.0,10.0,23,0.00,,SKC,0.00,VWS V14.01,2013-06-12 17:36:00,
2013-06-12 11:37:00,74.9,35.7,29.98,ESE,107,10.0,11.0,24,0.00,,SKC,0.00,VWS V14.01,2013-06-12 17:37:00,
2013-06-12 11:38:00,74.9,34.6,29.98,ENE,78,11.0,15.0,23,0.00,,SKC,0.00,VWS V14.01,2013-06-12 17:38:00,
2013-06-12 11:39:00,74.9,34.6,29.98,East,95,10.0,13.0,23,0.00,,SKC,0.00,VWS V14.01,2013-06-12 17:39:00,
2013-06-12 11:40:00,75.0,35.8,29.98,East,98,14.0,15.0,24,0.00,,SKC,0.00,VWS V14.01,2013-06-12 17:40:00,
2013-06-12 11:41:00,75.1,34.8,29.98,East,90,11.0,14.0,23,0.00,,SKC,0.00,VWS V14.01,2013-06-12 17:41:00,
2013-06-12 11:42:00,75.2,34.9,29.98,East,99,12.0,14.0,23,0.00,,SKC,0.00,VWS V14.01,2013-06-12 17:42:00,
2013-06-12 11:43:00,75.3,35.0,29.99,East,91,6.0,13.0,23,0.00,,SKC,0.00,VWS V14.01,2013-06-12 17:43:00,
2013-06-12 11:44:00,75.3,33.9,29.99,East,91,13.0,13.0,22,0.00,,SKC,0.00,VWS V14.01,2013-06-12 17:44:00,
2013-06-12 11:45:00,75.3,33.9,29.98,East,89,10.0,15.0,22,0.00,,SKC,0.00,VWS V14.01,2013-06-12 17:45:00,
2013-06-12 11:46:00,75.3,35.0,29.98,East,99,10.0,11.0,23,0.00,,SKC,0.00,VWS V14.01,2013-06-12 17:46:00,
2013-06-12 11:47:00,75.4,35.1,29.98,East,83,12.0,13.0,23,0.00,,SKC,0.00,VWS V14.01,2013-06-12 17:47:00,
2013-06-12 11:48:00,75.5,37.2,29.98,East,100,11.0,13.0,25,0.00,,SKC,0.00,VWS V14.01,2013-06-12 17:48:00,
2013-06-12 11:49:00,75.7,35.3,29.98,East,96,9.0,13.0,23,0.00,,SKC,0.00,VWS V14.01,2013-06-12 17:49:00,
2013-06-12 11:50:00,75.8,34.3,29.98,East,84,19.0,19.0,22,0.00,,SKC,0.00,VWS V14.01,2013-06-12 17:50:00,
2013-06-12 11:51:00,75.9,34.4,29.98,East,90,8.0,19.0,22,0.00,,SKC,0.00,VWS V14.01,2013-06-12 17:51:00,
2013-06-12 11:52:00,76.1,34.5,29.98,ENE,77,15.0,20.0,22,0.00,,SKC,0.00,VWS V14.01,2013-06-12 17:52:00,
2013-06-12 11:53:00,76.2,34.6,29.99,SE,136,6.0,16.0,22,0.00,,SKC,0.00,VWS V14.01,2013-06-12 17:53:00,
2013-06-12 11:54:00,76.3,35.8,29.98,East,94,9.0,13.0,23,0.00,,SKC,0.00,VWS V14.01,2013-06-12 17:54:00,
2013-06-12 11:55:00,76.4,35.9,29.98,East,79,9.0,11.0,23,0.00,,SKC,0.00,VWS V14.01,2013-06-12 17:55:00,
2013-06-12 11:56:00,76.5,36.0,29.98,East,99,11.0,15.0,23,0.00,,SKC,0.00,VWS V14.01,2013-06-12 17:56:00,
2013-06-12 11:57:00,76.7,36.2,29.98,ESE,102,7.0,11.0,23,0.00,,SKC,0.00,VWS V14.01,2013-06-12 17:57:00,
2013-06-12 11:58:00,76.8,36.2,29.98,East,95,10.0,11.0,23,0.00,,SKC,0.00,VWS V14.01,2013-06-12 17:58:00,
2013-06-12 11:59:00,76.9,35.2,29.98,East,101,16.0,16.0,22,0.00,,SKC,0.00,VWS V14.01,2013-06-12 17:59:00,
2013-06-12 12:00:00,77.0,34.1,29.99,East,101,13.0,15.0,21,0.00,,SKC,0.00,VWS V14.01,2013-06-12 18:00:00,
2013-06-12 12:01:00,77.1,34.2,29.98,ESE,104,9.0,13.0,21,0.00,,SKC,0.00,VWS V14.01,2013-06-12 18:01:00,
2013-06-12 12:02:00,77.2,34.3,29.98,East,97,16.0,16.0,21,0.00,,SKC,0.00,VWS V14.01,2013-06-12 18:02:00,
2013-06-12 12:03:00,77.3,34.4,29.99,ENE,71,13.0,21.0,21,0.00,,SKC,0.00,VWS V14.01,2013-06-12 18:03:00,
2013-06-12 12:04:00,77.3,34.4,29.98,ENE,78,12.0,18.0,21,0.00,,SKC,0.00,VWS V14.01,2013-06-12 18:04:00,
2013-06-12 12:05:00,77.3,35.5,29.99,ENE,75,6.0,12.0,22,0.00,,SKC,0.00,VWS V14.01,2013-06-12 18:05:00,
2013-06-12 12:06:00,77.4,35.6,29.99,East,85,6.0,13.0,22,0.00,,SKC,0.00,VWS V14.01,2013-06-12 18:06:00,
2013-06-12 12:07:00,77.4,34.4,29.99,East,98,6.0,12.0,21,0.00,,SKC,0.00,VWS V14.01,2013-06-12 18:07:00,
2013-06-12 12:08:00,77.4,35.6,29.99,East,80,5.0,10.0,22,0.00,,SKC,0.00,VWS V14.01,2013-06-12 18:08:00,
2013-06-12 12:09:00,77.5,35.7,29.99,ESE,111,3.0,6.0,22,0.00,,SKC,0.00,VWS V14.01,2013-06-12 18:09:00,
2013-06-12 12:10:00,77.6,36.9,29.98,East,100,10.0,10.0,23,0.00,,SKC,0.00,VWS V14.01,2013-06-12 18:10:00,
2013-06-12 12:11:00,77.7,35.9,29.99,ESE,110,9.0,12.0,22,0.00,,SKC,0.00,VWS V14.01,2013-06-12 18:11:00,
2013-06-12 12:12:00,77.8,34.8,29.99,ENE,61,2.0,13.0,21,0.00,,SKC,0.00,VWS V14.01,2013-06-12 18:12:00,
2013-06-12 12:13:00,77.8,36.0,29.99,ENE,78,11.0,11.0,22,0.00,,SKC,0.00,VWS V14.01,2013-06-12 18:13:00,
2013-06-12 12:14:00,77.9,34.9,29.98,East,84,5.0,14.0,21,0.00,,SKC,0.00,VWS V14.01,2013-06-12 18:14:00,
2013-06-12 12:15:00,78.0,37.2,29.98,ESE,102,7.0,12.0,23,0.00,,SKC,0.00,VWS V14.01,2013-06-12 18:15:00,
2013-06-12 12:16:00,78.0,37.2,29.98,East,98,8.0,10.0,23,0.00,,SKC,0.00,VWS V14.01,2013-06-12 18:16:00,
2013-06-12 12:17:00,78.2,37.4,29.98,SE,128,5.0,9.0,23,0.00,,SKC,0.00,VWS V14.01,2013-06-12 18:17:00,
2013-06-12 12:18:00,78.4,36.5,29.98,East,88,14.0,14.0,22,0.00,,SKC,0.00,VWS V14.01,2013-06-12 18:18:00,
2013-06-12 12:19:00,78.6,35.4,29.98,East,90,6.0,15.0,21,0.00,,SKC,0.00,VWS V14.01,2013-06-12 18:19:00,
2013-06-12 12:20:00,78.7,36.7,29.98,East,84,13.0,16.0,22,0.00,,SKC,0.00,VWS V14.01,2013-06-12 18:20:00,
2013-06-12 12:21:00,78.7,35.5,29.98,East,98,10.0,20.0,21,0.00,,SKC,0.00,VWS V14.01,2013-06-12 18:21:00,
2013-06-12 12:22:00,78.7,35.5,29.98,East,94,14.0,15.0,21,0.00,,SKC,0.00,VWS V14.01,2013-06-12 18:22:00,
2013-06-12 12:23:00,78.7,35.5,29.99,ESE,109,11.0,14.0,21,0.00,,SKC,0.00,VWS V14.01,2013-06-12 18:23:00,
2013-06-12 12:24:00,78.7,34.3,29.99,East,100,10.0,17.0,20,0.00,,SKC,0.00,VWS V14.01,2013-06-12 18:24:00,
2013-06-12 12:25:00,78.7,35.5,29.98,East,93,15.0,15.0,21,0.00,,SKC,0.00,VWS V14.01,2013-06-12 18:25:00,
2013-06-12 12:26:00,78.5,34.1,29.99,East,84,11.0,15.0,20,0.00,,SKC,0.00,VWS V14.01,2013-06-12 18:26:00,
2013-06-12 12:27:00,78.4,34.0,29.98,ESE,119,4.0,11.0,20,0.00,,SKC,0.00,VWS V14.01,2013-06-12 18:27:00,
2013-06-12 12:28:00,78.2,35.1,29.99,East,94,14.0,14.0,21,0.00,,SKC,0.00,VWS V14.01,2013-06-12 18:28:00,
2013-06-12 12:29:00,78.0,34.9,29.98,ENE,78,10.0,15.0,21,0.00,,SKC,0.00,VWS V14.01,2013-06-12 18:29:00,
2013-06-12 12:30:00,77.9,34.9,29.98,East,84,8.0,15.0,21,0.00,,SKC,0.00,VWS V14.01,2013-06-12 18:30:00,
2013-06-12 12:31:00,77.7,34.7,29.98,East,98,8.0,10.0,21,0.00,,SKC,0.00,VWS V14.01,2013-06-12 18:31:00,
2013-06-12 12:32:00,77.6,34.6,29.98,NE,42,6.0,13.0,21,0.00,,SKC,0.00,VWS V14.01,2013-06-12 18:32:00,
2013-06-12 12:33:00,77.5,36.8,29.98,NE,45,4.0,11.0,23,0.00,,SKC,0.00,VWS V14.01,2013-06-12 18:33:00,
2013-06-12 12:34:00,77.5,36.8,29.98,ESE,113,12.0,12.0,23,0.00,,SKC,0.00,VWS V14.01,2013-06-12 18:34:00,
2013-06-12 12:35:00,77.5,35.7,29.98,ENE,69,6.0,16.0,22,0.00,,SKC,0.00,VWS V14.01,2013-06-12 18:35:00,
2013-06-12 12:36:00,77.6,36.9,29.98,ESE,119,7.0,8.0,23,0.00,,SKC,0.00,VWS V14.01,2013-06-12 18:36:00,
2013-06-12 12:37:00,77.7,35.9,29.98,SSE,151,4.0,7.0,22,0.00,,SKC,0.00,VWS V14.01,2013-06-12 18:37:00,
2013-06-12 12:38:00,77.8,36.0,29.98,SE,130,5.0,6.0,22,0.00,,SKC,0.00,VWS V14.01,2013-06-12 18:38:00,
2013-06-12 12:39:00,77.9,37.2,29.98,ESE,119,15.0,15.0,23,0.00,,SKC,0.00,VWS V14.01,2013-06-12 18:39:00,
2013-06-12 12:40:00,78.0,38.3,29.98,SE,134,7.0,15.0,24,0.00,,SKC,0.00,VWS V14.01,2013-06-12 18:40:00,
2013-06-12 12:41:00,78.2,36.3,29.98,ESE,116,7.0,12.0,22,0.00,,SKC,0.00,VWS V14.01,2013-06-12 18:41:00,
2013-06-12 12:42:00,78.4,36.5,29.98,ESE,104,15.0,15.0,22,0.00,,SKC,0.00,VWS V14.01,2013-06-12 18:42:00,
2013-06-12 12:43:00,78.6,37.7,29.98,ESE,115,9.0,15.0,23,0.00,,SKC,0.00,VWS V14.01,2013-06-12 18:43:00,
2013-06-12 12:44:00,78.7,36.7,29.98,SE,124,11.0,17.0,22,0.00,,SKC,0.00,VWS V14.01,2013-06-12 18:44:00,
2013-06-12 12:45:00,78.7,36.7,29.98,East,94,11.0,15.0,22,0.00,,SKC,0.00,VWS V14.01,2013-06-12 18:45:00,
2013-06-12 12:46:00,78.7,36.7,29.98,East,98,12.0,13.0,22,0.00,,SKC,0.00,VWS V14.01,2013-06-12 18:46:00,
2013-06-12 12:47:00,78.8,36.8,29.98,ESE,122,17.0,17.0,22,0.00,,SKC,0.00,VWS V14.01,2013-06-12 18:47:00,
2013-06-12 12:48:00,78.9,36.9,29.98,ENE,68,3.0,17.0,22,0.00,,SKC,0.00,VWS V14.01,2013-06-12 18:48:00,
2013-06-12 12:49:00,78.9,36.9,29.98,ESE,114,4.0,6.0,22,0.00,,SKC,0.00,VWS V14.01,2013-06-12 18:49:00,
2013-06-12 12:50:00,79.0,38.1,29.98,ESE,115,3.0,5.0,23,0.00,,SKC,0.00,VWS V14.01,2013-06-12 18:50:00,
2013-06-12 12:51:00,79.0,38.1,29.98,SSE,158,7.0,11.0,23,0.00,,SKC,0.00,VWS V14.01,2013-06-12 18:51:00,
2013-06-12 12:52:00,79.0,38.1,29.97,SE,127,11.0,11.0,23,0.00,,SKC,0.00,VWS V14.01,2013-06-12 18:52:00,
2013-06-12 12:53:00,79.1,38.2,29.97,East,90,6.0,12.0,23,0.00,,SKC,0.00,VWS V14.01,2013-06-12 18:53:00,
2013-06-12 12:54:00,79.0,37.0,29.97,SE,140,11.0,13.0,22,0.00,,SKC,0.00,VWS V14.01,2013-06-12 18:54:00,
2013-06-12 12:55:00,79.0,37.0,29.97,ESE,117,5.0,13.0,22,0.00,,SKC,0.00,VWS V14.01,2013-06-12 18:55:00,
2013-06-12 12:56:00,79.1,38.2,29.97,ESE,111,6.0,6.0,23,0.00,,SKC,0.00,VWS V14.01,2013-06-12 18:56:00,
2013-06-12 12:57:00,79.2,37.1,29.97,East,101,12.0,13.0,22,0.00,,SKC,0.00,VWS V14.01,2013-06-12 18:57:00,
2013-06-12 12:58:00,79.3,37.2,29.97,East,97,10.0,12.0,22,0.00,,SKC,0.00,VWS V14.01,2013-06-12 18:58:00,
2013-06-12 12:59:00,79.4,37.3,29.97,East,96,11.0,13.0,22,0.00,,SKC,0.00,VWS V14.01,2013-06-12 18:59:00,
2013-06-12 13:00:00,79.5,38.5,29.97,ESE,109,6.0,11.0,23,0.00,,SKC,0.00,VWS V14.01,2013-06-12 19:00:00,
2013-06-12 13:01:00,79.6,37.5,29.97,East,90,9.0,10.0,22,0.00,,SKC,0.00,VWS V14.01,2013-06-12 19:01:00,
2013-06-12 13:02:00,79.8,38.8,29.97,East,94,12.0,12.0,23,0.00,,SKC,0.00,VWS V14.01,2013-06-12 19:02:00,
2013-06-12 13:03:00,79.9,36.5,29.97,East,94,9.0,13.0,21,0.00,,SKC,0.00,VWS V14.01,2013-06-12 19:03:00,
2013-06-12 13:04:00,80.0,37.8,29.97,East,100,9.0,13.0,22,0.00,,SKC,0.00,VWS V14.01,2013-06-12 19:04:00,
2013-06-12 13:05:00,80.1,36.7,29.97,East,101,14.0,14.0,21,0.00,,SKC,0.00,VWS V14.01,2013-06-12 19:05:00,
2013-06-12 13:06:00,80.1,36.7,29.97,ESE,113,5.0,14.0,21,0.00,,SKC,0.00,VWS V14.01,2013-06-12 19:06:00,
2013-06-12 13:07:00,80.1,36.7,29.97,ESE,111,4.0,6.0,21,0.00,,SKC,0.00,VWS V14.01,2013-06-12 19:07:00,
2013-06-12 13:08:00,80.1,37.9,29.97,SE,130,1.0,4.0,22,0.00,,SKC,0.00,VWS V14.01,2013-06-12 19:08:00,
2013-06-12 13:09:00,80.2,38.0,29.97,ESE,113,12.0,13.0,22,0.00,,SKC,0.00,VWS V14.01,2013-06-12 19:09:00,
2013-06-12 13:10:00,80.3,38.0,29.97,ESE,119,14.0,18.0,22,0.00,,SKC,0.00,VWS V14.01,2013-06-12 19:10:00,
2013-06-12 13:11:00,80.2,38.0,29.97,ESE,119,9.0,16.0,22,0.00,,SKC,0.00,VWS V14.01,2013-06-12 19:11:00,
2013-06-12 13:12:00,80.2,36.8,29.97,ESE,102,11.0,14.0,21,0.00,,SKC,0.00,VWS V14.01,2013-06-12 19:12:00,
2013-06-12 13:13:00,80.2,36.8,29.97,East,90,13.0,15.0,21,0.00,,SKC,0.00,VWS V14.01,2013-06-12 19:13:00,
2013-06-12 13:14:00,80.3,36.8,29.97,East,94,7.0,13.0,21,0.00,,SKC,0.00,VWS V14.01,2013-06-12 19:14:00,
2013-06-12 13:15:00,80.3,38.0,29.97,East,101,3.0,9.0,22,0.00,,SKC,0.00,VWS V14.01,2013-06-12 19:15:00,
2013-06-12 13:16:00,80.3,36.8,29.97,ESE,105,16.0,16.0,21,0.00,,SKC,0.00,VWS V14.01,2013-06-12 19:16:00,
2013-06-12 13:17:00,80.4,36.9,29.97,East,91,11.0,16.0,21,0.00,,SKC,0.00,VWS V14.01,2013-06-12 19:17:00,
2013-06-12 13:18:00,80.4,38.1,29.97,SE,128,13.0,14.0,22,0.00,,SKC,0.00,VWS V14.01,2013-06-12 19:18:00,
2013-06-12 13:19:00,80.5,37.0,29.96,East,99,10.0,16.0,21,0.00,,SKC,0.00,VWS V14.01,2013-06-12 19:19:00,
2013-06-12 13:20:00,80.5,37.0,29.97,East,86,18.0,18.0,21,0.00,,SKC,0.00,VWS V14.01,2013-06-12 19:20:00,
2013-06-12 13:21:00,80.6,37.1,29.96,East,90,12.0,18.0,21,0.00,,SKC,0.00,VWS V14.01,2013-06-12 19:21:00,
2013-06-12 13:22:00,80.7,37.2,29.96,East,82,12.0,13.0,21,0.00,,SKC,0.00,VWS V14.01,2013-06-12 19:22:00,
2013-06-12 13:23:00,80.7,37.2,29.96,East,89,7.0,15.0,21,0.00,,SKC,0.00,VWS V14.01,2013-06-12 19:23:00,
2013-06-12 13:24:00,80.8,38.4,29.96,East,80,8.0,12.0,22,0.00,,SKC,0.00,VWS V14.01,2013-06-12 19:24:00,
2013-06-12 13:25:00,80.9,37.3,29.96,ESE,110,18.0,19.0,21,0.00,,SKC,0.00,VWS V14.01,2013-06-12 19:25:00,
2013-06-12 13:26:00,80.9,36.1,29.96,ESE,122,5.0,18.0,20,0.00,,SKC,0.00,VWS V14.01,2013-06-12 19:26:00,
2013-06-12 13:27:00,81.0,38.6,29.96,ESE,123,9.0,13.0,22,0.00,,SKC,0.00,VWS V14.01,2013-06-12 19:27:00,
2013-06-12 13:28:00,81.0,38.6,29.96,East,94,16.0,16.0,22,0.00,,SKC,0.00,VWS V14.01,2013-06-12 19:28:00,
2013-06-12 13:29:00,81.1,37.5,29.96,East,88,10.0,18.0,21,0.00,,SKC,0.00,VWS V14.01,2013-06-12 19:29:00,
2013-06-12 13:30:00,81.2,36.4,29.96,ENE,67,7.0,12.0,20,0.00,,SKC,0.00,VWS V14.01,2013-06-12 19:30:00,
2013-06-12 13:31:00,81.2,37.6,29.96,East,86,3.0,11.0,21,0.00,,SKC,0.00,VWS V14.01,2013-06-12 19:31:00,
2013-06-12 13:32:00,81.3,38.9,29.95,SE,136,8.0,10.0,22,0.00,,SKC,0.00,VWS V14.01,2013-06-12 19:32:00,
2013-06-12 13:33:00,81.4,37.8,29.96,ESE,119,12.0,15.0,21,0.00,,SKC,0.00,VWS V14.01,2013-06-12 19:33:00,
2013-06-12 13:34:00,81.4,38.9,29.96,East,97,5.0,12.0,22,0.00,,SKC,0.00,VWS V14.01,2013-06-12 19:34:00,
2013-06-12 13:35:00,81.6,37.9,29.95,East,86,4.0,6.0,21,0.00,,SKC,0.00,VWS V14.01,2013-06-12 19:35:00,
2013-06-12 13:36:00,81.6,37.9,29.95,East,96,9.0,11.0,21,0.00,,SKC,0.00,VWS V14.01,2013-06-12 19:36:00,
2013-06-12 13:37:00,81.7,38.0,29.95,ESE,104,9.0,12.0,21,0.00,,SKC,0.00,VWS V14.01,2013-06-12 19:37:00,
2013-06-12 13:38:00,81.8,39.3,29.95,ESE,111,7.0,9.0,22,0.00,,SKC,0.00,VWS V14.01,2013-06-12 19:38:00,
2013-06-12 13:39:00,81.9,38.2,29.96,East,101,10.0,11.0,21,0.00,,SKC,0.00,VWS V14.01,2013-06-12 19:39:00,
2013-06-12 13:40:00,82.0,37.0,29.96,East,96,11.0,16.0,20,0.00,,SKC,0.00,VWS V14.01,2013-06-12 19:40:00,
2013-06-12 13:41:00,82.0,37.0,29.96,ESE,118,11.0,15.0,20,0.00,,SKC,0.00,VWS V14.01,2013-06-12 19:41:00,
2013-06-12 13:42:00,82.1,37.1,29.95,East,88,6.0,12.0,20,0.00,,SKC,0.00,VWS V14.01,2013-06-12 19:42:00,
2013-06-12 13:43:00,82.1,37.1,29.95,East,98,6.0,14.0,20,0.00,,SKC,0.00,VWS V14.01,2013-06-12 19:43:00,
2013-06-12 13:44:00,82.2,37.2,29.95,East,88,14.0,17.0,20,0.00,,SKC,0.00,VWS V14.01,2013-06-12 19:44:00,
2013-06-12 13:45:00,82.2,37.2,29.96,ENE,78,10.0,18.0,20,0.00,,SKC,0.00,VWS V14.01,2013-06-12 19:45:00,
2013-06-12 13:46:00,82.3,37.3,29.96,East,93,11.0,12.0,20,0.00,,SKC,0.00,VWS V14.01,2013-06-12 19:46:00,
2013-06-12 13:47:00,82.3,37.3,29.96,ENE,74,12.0,13.0,20,0.00,,SKC,0.00,VWS V14.01,2013-06-12 19:47:00,
2013-06-12 13:48:00,82.3,37.3,29.95,ENE,73,9.0,12.0,20,0.00,,SKC,0.00,VWS V14.01,2013-06-12 19:48:00,
2013-06-12 13:49:00,82.3,38.5,29.95,East,101,12.0,17.0,21,0.00,,SKC,0.00,VWS V14.01,2013-06-12 19:49:00,
2013-06-12 13:50:00,82.3,37.3,29.95,East,92,10.0,12.0,20,0.00,,SKC,0.00,VWS V14.01,2013-06-12 19:50:00,
2013-06-12 13:51:00,82.3,38.5,29.95,ESE,121,7.0,10.0,21,0.00,,SKC,0.00,VWS V14.01,2013-06-12 19:51:00,
2013-06-12 13:52:00,82.4,37.3,29.95,ENE,71,17.0,17.0,20,0.00,,SKC,0.00,VWS V14.01,2013-06-12 19:52:00,
2013-06-12 13:53:00,82.4,37.3,29.95,ESE,107,7.0,17.0,20,0.00,,SKC,0.00,VWS V14.01,2013-06-12 19:53:00,
2013-06-12 13:54:00,82.4,37.3,29.95,ESE,105,12.0,12.0,20,0.00,,SKC,0.00,VWS V14.01,2013-06-12 19:54:00,
2013-06-12 13:55:00,82.4,37.3,29.95,East,100,12.0,14.0,20,0.00,,SKC,0.00,VWS V14.01,2013-06-12 19:55:00,
2013-06-12 13:56:00,82.5,38.7,29.95,ESE,104,15.0,16.0,21,0.00,,SKC,0.00,VWS V14.01,2013-06-12 19:56:00,
2013-06-12 13:57:00,82.5,37.4,29.95,East,96,16.0,16.0,20,0.00,,SKC,0.00,VWS V14.01,2013-06-12 19:57:00,
2013-06-12 13:58:00,82.5,37.4,29.95,ENE,75,12.0,16.0,20,0.00,,SKC,0.00,VWS V14.01,2013-06-12 19:58:00,
2013-06-12 13:59:00,82.5,37.4,29.95,East,88,10.0,16.0,20,0.00,,SKC,0.00,VWS V14.01,2013-06-12 19:59:00,
2013-06-12 14:00:00,82.5,37.4,29.95,East,97,11.0,12.0,20,0.00,,SKC,0.00,VWS V14.01,2013-06-12 20:00:00,
2013-06-12 14:01:00,82.5,38.7,29.95,East,96,9.0,12.0,21,0.00,,SKC,0.00,VWS V14.01,2013-06-12 20:01:00,
2013-06-12 14:02:00,82.5,37.4,29.95,East,90,11.0,12.0,20,0.00,,SKC,0.00,VWS V14.01,2013-06-12 20:02:00,
2013-06-12 14:03:00,82.5,37.4,29.95,ENE,71,3.0,11.0,20,0.00,,SKC,0.00,VWS V14.01,2013-06-12 20:03:00,
2013-06-12 14:04:00,82.5,37.4,29.95,SE,128,8.0,10.0,20,0.00,,SKC,0.00,VWS V14.01,2013-06-12 20:04:00,
2013-06-12 14:05:00,82.4,37.3,29.94,SSE,165,7.0,9.0,20,0.00,,SKC,0.00,VWS V14.01,2013-06-12 20:05:00,
2013-06-12 14:06:00,82.4,38.6,29.94,SSE,156,5.0,7.0,21,0.00,,SKC,0.00,VWS V14.01,2013-06-12 20:06:00,
2013-06-12 14:07:00,82.5,39.9,29.94,East,82,7.0,10.0,22,0.00,,SKC,0.00,VWS V14.01,2013-06-12 20:07:00,
2013-06-12 14:08:00,82.5,37.4,29.95,ESE,103,12.0,12.0,20,0.00,,SKC,0.00,VWS V14.01,2013-06-12 20:08:00,
2013-06-12 14:09:00,82.7,37.6,29.95,ESE,113,11.0,16.0,20,0.00,,SKC,0.00,VWS V14.01,2013-06-12 20:09:00,
2013-06-12 14:10:00,82.8,37.7,29.95,ESE,103,10.0,11.0,20,0.00,,SKC,0.00,VWS V14.01,2013-06-12 20:10:00,
2013-06-12 14:11:00,82.9,37.8,29.94,East,88,3.0,10.0,20,0.00,,SKC,0.00,VWS V14.01,2013-06-12 20:11:00,
2013-06-12 14:12:00,83.0,37.8,29.94,East,89,12.0,14.0,20,0.00,,SKC,0.00,VWS V14.01,2013-06-12 20:12:00,
2013-06-12 14:13:00,83.1,37.9,29.94,ESE,118,12.0,13.0,20,0.00,,SKC,0.00,VWS V14.01,2013-06-12 20:13:00,
2013-06-12 14:14:00,83.3,38.1,29.94,East,92,15.0,15.0,20,0.00,,SKC,0.00,VWS V14.01,2013-06-12 20:14:00,
2013-06-12 14:15:00,83.4,38.2,29.95,East,84,8.0,15.0,20,0.00,,SKC,0.00,VWS V14.01,2013-06-12 20:15:00,
2013-06-12 14:16:00,83.4,38.2,29.95,East,97,10.0,16.0,20,0.00,,SKC,0.00,VWS V14.01,2013-06-12 20:16:00,
2013-06-12 14:17:00,83.5,38.2,29.95,East,89,12.0,15.0,20,0.00,,SKC,0.00,VWS V14.01,2013-06-12 20:17:00,
2013-06-12 14:18:00,83.5,36.9,29.95,East,90,19.0,19.0,19,0.00,,SKC,0.00,VWS V14.01,2013-06-12 20:18:00,
2013-06-12 14:19:00,83.5,38.2,29.95,ENE,78,14.0,19.0,20,0.00,,SKC,0.00,VWS V14.01,2013-06-12 20:19:00,
2013-06-12 14:20:00,83.5,38.2,29.94,East,91,13.0,17.0,20,0.00,,SKC,0.00,VWS V14.01,2013-06-12 20:20:00,
2013-06-12 14:21:00,83.6,37.0,29.95,East,88,6.0,15.0,19,0.00,,SKC,0.00,VWS V14.01,2013-06-12 20:21:00,
2013-06-12 14:22:00,83.5,36.9,29.95,East,101,14.0,14.0,19,0.00,,SKC,0.00,VWS V14.01,2013-06-12 20:22:00,
2013-06-12 14:23:00,83.5,36.9,29.94,ENE,74,10.0,15.0,19,0.00,,SKC,0.00,VWS V14.01,2013-06-12 20:23:00,
2013-06-12 14:24:00,83.5,38.2,29.94,East,91,13.0,14.0,20,0.00,,SKC,0.00,VWS V14.01,2013-06-12 20:24:00,
2013-06-12 14:25:00,83.4,38.2,29.94,East,98,14.0,15.0,20,0.00,,SKC,0.00,VWS V14.01,2013-06-12 20:25:00,
2013-06-12 14:26:00,83.4,36.9,29.94,ESE,107,14.0,16.0,19,0.00,,SKC,0.00,VWS V14.01,2013-06-12 20:26:00,
2013-06-12 14:27:00,83.3,38.1,29.94,East,89,11.0,14.0,20,0.00,,SKC,0.00,VWS V14.01,2013-06-12 20:27:00,
2013-06-12 14:28:00,83.3,36.8,29.94,East,87,12.0,14.0,19,0.00,,SKC,0.00,VWS V14.01,2013-06-12 20:28:00,
2013-06-12 14:29:00,83.2,38.0,29.94,East,95,15.0,15.0,20,0.00,,SKC,0.00,VWS V14.01,2013-06-12 20:29:00,
2013-06-12 14:30:00,83.2,36.7,29.94,East,92,11.0,18.0,19,0.00,,SKC,0.00,VWS V14.01,2013-06-12 20:30:00,
2013-06-12 14:31:00,83.1,37.9,29.94,ENE,68,7.0,18.0,20,0.00,,SKC,0.00,VWS V14.01,2013-06-12 20:31:00,
2013-06-12 14:32:00,83.1,37.9,29.94,ENE,65,5.0,8.0,20,0.00,,SKC,0.00,VWS V14.01,2013-06-12 20:32:00,
2013-06-12 14:33:00,83.2,39.2,29.94,ESE,119,10.0,10.0,21,0.00,,SKC,0.00,VWS V14.01,2013-06-12 20:33:00,
2013-06-12 14:34:00,83.2,38.0,29.94,SE,127,11.0,13.0,20,0.00,,SKC,0.00,VWS V14.01,2013-06-12 20:34:00,
2013-06-12 14:35:00,83.3,38.1,29.94,East,96,19.0,19.0,20,0.00,,SKC,0.00,VWS V14.01,2013-06-12 20:35:00,
2013-06-12 14:36:00,83.3,36.8,29.94,ESE,110,10.0,19.0,19,0.00,,SKC,0.00,VWS V14.01,2013-06-12 20:36:00,
2013-06-12 14:37:00,83.3,38.1,29.94,East,87,12.0,13.0,20,0.00,,SKC,0.00,VWS V14.01,2013-06-12 20:37:00,
2013-06-12 14:38:00,83.3,38.1,29.94,East,90,10.0,13.0,20,0.00,,SKC,0.00,VWS V14.01,2013-06-12 20:38:00,
2013-06-12 14:39:00,83.4,38.2,29.94,ENE,77,4.0,11.0,20,0.00,,SKC,0.00,VWS V14.01,2013-06-12 20:39:00,
2013-06-12 14:40:00,83.4,39.4,29.94,East,91,9.0,14.0,21,0.00,,SKC,0.00,VWS V14.01,2013-06-12 20:40:00,
2013-06-12 14:41:00,83.5,38.2,29.94,East,100,12.0,12.0,20,0.00,,SKC,0.00,VWS V14.01,2013-06-12 20:41:00,
2013-06-12 14:42:00,83.5,38.2,29.94,East,96,10.0,13.0,20,0.00,,SKC,0.00,VWS V14.01,2013-06-12 20:42:00,
2013-06-12 14:43:00,83.6,38.3,29.94,ESE,123,5.0,13.0,20,0.00,,SKC,0.00,VWS V14.01,2013-06-12 20:43:00,
2013-06-12 14:44:00,83.6,39.6,29.94,SE,130,6.0,13.0,21,0.00,,SKC,0.00,VWS V14.01,2013-06-12 20:44:00,
2013-06-12 14:45:00,83.6,38.3,29.94,SE,139,12.0,12.0,20,0.00,,SKC,0.00,VWS V14.01,2013-06-12 20:45:00,
2013-06-12 14:46:00,83.6,38.3,29.94,East,88,12.0,19.0,20,0.00,,SKC,0.00,VWS V14.01,2013-06-12 20:46:00,
2013-06-12 14:47:00,83.6,38.3,29.94,ESE,107,14.0,15.0,20,0.00,,SKC,0.00,VWS V14.01,2013-06-12 20:47:00,
2013-06-12 14:48:00,83.6,39.6,29.94,ESE,107,12.0,14.0,21,0.00,,SKC,0.00,VWS V14.01,2013-06-12 20:48:00,
2013-06-12 14:49:00,83.7,38.4,29.94,SE,125,11.0,15.0,20,0.00,,SKC,0.00,VWS V14.01,2013-06-12 20:49:00,
2013-06-12 14:50:00,83.8,38.5,29.94,SE,130,8.0,15.0,20,0.00,,SKC,0.00,VWS V14.01,2013-06-12 20:50:00,
2013-06-12 14:51:00,83.8,37.2,29.94,East,96,9.0,12.0,19,0.00,,SKC,0.00,VWS V14.01,2013-06-12 20:51:00,
2013-06-12 14:52:00,83.8,37.2,29.94,ESE,103,16.0,16.0,19,0.00,,SKC,0.00,VWS V14.01,2013-06-12 20:52:00,
2013-06-12 14:53:00,83.8,37.2,29.94,East,99,10.0,17.0,19,0.00,,SKC,0.00,VWS V14.01,2013-06-12 20:53:00,
2013-06-12 14:54:00,83.8,37.2,29.94,ENE,78,11.0,12.0,19,0.00,,SKC,0.00,VWS V14.01,2013-06-12 20:54:00,
2013-06-12 14:55:00,83.9,37.3,29.94,East,90,5.0,12.0,19,0.00,,SKC,0.00,VWS V14.01,2013-06-12 20:55:00,
2013-06-12 14:56:00,84.0,38.7,29.94,East,89,5.0,6.0,20,0.00,,SKC,0.00,VWS V14.01,2013-06-12 20:56:00,
2013-06-12 14:57:00,84.1,38.7,29.94,East,82,11.0,13.0,20,0.00,,SKC,0.00,VWS V14.01,2013-06-12 20:57:00,
2013-06-12 14:58:00,84.2,37.5,29.94,ESE,109,12.0,14.0,19,0.00,,SKC,0.00,VWS V14.01,2013-06-12 20:58:00,
2013-06-12 14:59:00,84.2,37.5,29.94,East,101,10.0,15.0,19,0.00,,SKC,0.00,VWS V14.01,2013-06-12 20:59:00,
2013-06-12 15:00:00,84.2,37.5,29.94,East,101,13.0,17.0,19,0.00,,SKC,0.00,VWS V14.01,2013-06-12 21:00:00,
2013-06-12 15:01:00,84.2,37.5,29.94,East,96,12.0,14.0,19,0.00,,SKC,0.00,VWS V14.01,2013-06-12 21:01:00,
2013-06-12 15:02:00,84.2,37.5,29.94,East,97,10.0,12.0,19,0.00,,SKC,0.00,VWS V14.01,2013-06-12 21:02:00,
2013-06-12 15:03:00,84.2,38.8,29.94,East,93,6.0,11.0,20,0.00,,SKC,0.00,VWS V14.01,2013-06-12 21:03:00,
2013-06-12 15:04:00,84.2,38.8,29.93,ESE,122,6.0,11.0,20,0.00,,SKC,0.00,VWS V14.01,2013-06-12 21:04:00,
2013-06-12 15:05:00,84.2,36.2,29.93,SE,142,5.0,16.0,18,0.00,,SKC,0.00,VWS V14.01,2013-06-12 21:05:00,
2013-06-12 15:06:00,84.1,38.7,29.93,East,101,16.0,16.0,20,0.00,,SKC,0.00,VWS V14.01,2013-06-12 21:06:00,
2013-06-12 15:07:00,84.1,38.7,29.94,East,98,5.0,16.0,20,0.00,,SKC,0.00,VWS V14.01,2013-06-12 21:07:00,
2013-06-12 15:08:00,84.1,38.7,29.94,ESE,105,9.0,11.0,20,0.00,,SKC,0.00,VWS V14.01,2013-06-12 21:08:00,
2013-06-12 15:09:00,84.1,37.4,29.94,East,88,12.0,16.0,19,0.00,,SKC,0.00,VWS V14.01,2013-06-12 21:09:00,
2013-06-12 15:10:00,84.2,37.5,29.94,East,93,10.0,13.0,19,0.00,,SKC,0.00,VWS V14.01,2013-06-12 21:10:00,
2013-06-12 15:11:00,84.2,37.5,29.93,East,100,11.0,11.0,19,0.00,,SKC,0.00,VWS V14.01,2013-06-12 21:11:00,
2013-06-12 15:12:00,84.2,37.5,29.93,ESE,110,14.0,14.0,19,0.00,,SKC,0.00,VWS V14.01,2013-06-12 21:12:00,
2013-06-12 15:13:00,84.2,37.5,29.94,East,83,10.0,14.0,19,0.00,,SKC,0.00,VWS V14.01,2013-06-12 21:13:00,
2013-06-12 15:14:00,84.2,37.5,29.94,ENE,75,7.0,13.0,19,0.00,,SKC,0.00,VWS V14.01,2013-06-12 21:14:00,
2013-06-12 15:15:00,84.3,37.6,29.94,East,95,16.0,16.0,19,0.00,,SKC,0.00,VWS V14.01,2013-06-12 21:15:00,
2013-06-12 15:16:00,84.3,37.6,29.94,East,89,8.0,16.0,19,0.00,,SKC,0.00,VWS V14.01,2013-06-12 21:16:00,
2013-06-12 15:17:00,84.3,37.6,29.94,SSE,150,5.0,16.0,19,0.00,,SKC,0.00,VWS V14.01,2013-06-12 21:17:00,
2013-06-12 15:18:00,84.5,37.8,29.94,East,101,7.0,13.0,19,0.00,,SKC,0.00,VWS V14.01,2013-06-12 21:18:00,
2013-06-12 15:19:00,84.6,39.2,29.94,ESE,117,9.0,15.0,20,0.00,,SKC,0.00,VWS V14.01,2013-06-12 21:19:00,
2013-06-12 15:20:00,84.6,37.8,29.94,ESE,116,5.0,13.0,19,0.00,,SKC,0.00,VWS V14.01,2013-06-12 21:20:00,
2013-06-12 15:21:00,84.6,36.5,29.94,East,91,13.0,13.0,18,0.00,,SKC,0.00,VWS V14.01,2013-06-12 21:21:00,
2013-06-12 15:22:00,84.6,36.5,29.94,East,99,10.0,13.0,18,0.00,,SKC,0.00,VWS V14.01,2013-06-12 21:22:00,
2013-06-12 15:23:00,84.5,37.8,29.94,ENE,74,10.0,10.0,19,0.00,,SKC,0.00,VWS V14.01,2013-06-12 21:23:00,
2013-06-12 15:24:00,84.5,37.8,29.94,East,81,5.0,10.0,19,0.00,,SKC,0.00,VWS V14.01,2013-06-12 21:24:00,
2013-06-12 15:25:00,84.6,39.2,29.94,ESE,111,8.0,13.0,20,0.00,,SKC,0.00,VWS V14.01,2013-06-12 21:25:00,
2013-06-12 15:26:00,84.6,37.8,29.94,ESE,102,8.0,8.0,19,0.00,,SKC,0.00,VWS V14.01,2013-06-12 21:26:00,
2013-06-12 15:27:00,84.6,37.8,29.93,East,89,2.0,8.0,19,0.00,,SKC,0.00,VWS V14.01,2013-06-12 21:27:00,
2013-06-12 15:28:00,84.6,39.2,29.93,SE,127,6.0,7.0,20,0.00,,SKC,0.00,VWS V14.01,2013-06-12 21:28:00,
2013-06-12 15:29:00,84.6,37.8,29.94,East,96,10.0,14.0,19,0.00,,SKC,0.00,VWS V14.01,2013-06-12 21:29:00,
2013-06-12 15:30:00,84.5,37.8,29.94,ESE,123,9.0,14.0,19,0.00,,SKC,0.00,VWS V14.01,2013-06-12 21:30:00,
2013-06-12 15:31:00,84.4,39.0,29.94,ESE,105,11.0,11.0,20,0.00,,SKC,0.00,VWS V14.01,2013-06-12 21:31:00,
2013-06-12 15:32:00,84.3,37.6,29.94,ESE,115,6.0,12.0,19,0.00,,SKC,0.00,VWS V14.01,2013-06-12 21:32:00,
2013-06-12 15:33:00,84.1,36.1,29.94,ESE,112,5.0,11.0,18,0.00,,SKC,0.00,VWS V14.01,2013-06-12 21:33:00,
2013-06-12 15:34:00,84.0,37.3,29.94,East,90,15.0,15.0,19,0.00,,SKC,0.00,VWS V14.01,2013-06-12 21:34:00,
2013-06-12 15:35:00,84.0,37.3,29.94,East,97,10.0,15.0,19,0.00,,SKC,0.00,VWS V14.01,2013-06-12 21:35:00,
2013-06-12 15:36:00,83.9,37.3,29.94,East,97,10.0,10.0,19,0.00,,SKC,0.00,VWS V14.01,2013-06-12 21:36:00,
2013-06-12 15:37:00,83.9,37.3,29.94,East,92,11.0,12.0,19,0.00,,SKC,0.00,VWS V14.01,2013-06-12 21:37:00,
2013-06-12 15:38:00,84.0,37.3,29.94,East,98,14.0,14.0,19,0.00,,SKC,0.00,VWS V14.01,2013-06-12 21:38:00,
2013-06-12 15:39:00,84.0,37.3,29.93,East,94,14.0,14.0,19,0.00,,SKC,0.00,VWS V14.01,2013-06-12 21:39:00,
2013-06-12 15:40:00,84.0,37.3,29.94,East,97,11.0,16.0,19,0.00,,SKC,0.00,VWS V14.01,2013-06-12 21:40:00,
2013-06-12 15:41:00,83.9,35.9,29.94,East,92,9.0,15.0,18,0.00,,SKC,0.00,VWS V14.01,2013-06-12 21:41:00,
2013-06-12 15:42:00,83.8,37.2,29.94,East,80,9.0,14.0,19,0.00,,SKC,0.00,VWS V14.01,2013-06-12 21:42:00,
2013-06-12 15:43:00,83.7,37.1,29.93,East,97,11.0,12.0,19,0.00,,SKC,0.00,VWS V14.01,2013-06-12 21:43:00,
2013-06-12 15:44:00,83.7,37.1,29.93,East,95,5.0,11.0,19,0.00,,SKC,0.00,VWS V14.01,2013-06-12 21:44:00,
2013-06-12 15:45:00,83.6,37.0,29.93,East,90,12.0,12.0,19,0.00,,SKC,0.00,VWS V14.01,2013-06-12 21:45:00,
2013-06-12 15:46:00,83.7,37.1,29.93,ESE,105,4.0,12.0,19,0.00,,SKC,0.00,VWS V14.01,2013-06-12 21:46:00,
2013-06-12 15:47:00,83.6,37.0,29.93,ESE,118,8.0,11.0,19,0.00,,SKC,0.00,VWS V14.01,2013-06-12 21:47:00,
2013-06-12 15:48:00,83.6,37.0,29.93,ESE,107,7.0,12.0,19,0.00,,SKC,0.00,VWS V14.01,2013-06-12 21:48:00,
2013-06-12 15:49:00,83.6,37.0,29.93,ESE,104,11.0,14.0,19,0.00,,SKC,0.00,VWS V14.01,2013-06-12 21:49:00,
2013-06-12 15:50:00,83.6,37.0,29.93,ENE,67,13.0,16.0,19,0.00,,SKC,0.00,VWS V14.01,2013-06-12 21:50:00,
2013-06-12 15:51:00,83.6,37.0,29.93,ESE,117,6.0,15.0,19,0.00,,SKC,0.00,VWS V14.01,2013-06-12 21:51:00,
2013-06-12 15:52:00,83.4,36.9,29.93,ESE,104,10.0,11.0,19,0.00,,SKC,0.00,VWS V14.01,2013-06-12 21:52:00,
2013-06-12 15:53:00,83.4,36.9,29.93,ESE,118,9.0,11.0,19,0.00,,SKC,0.00,VWS V14.01,2013-06-12 21:53:00,
2013-06-12 15:54:00,83.3,38.1,29.94,North,360,9.0,13.0,20,0.00,,SKC,0.00,VWS V14.01,2013-06-12 21:54:00,
2013-06-12 15:55:00,83.2,38.0,29.93,ESE,119,9.0,15.0,20,0.00,,SKC,0.00,VWS V14.01,2013-06-12 21:55:00,
2013-06-12 15:56:00,83.2,36.7,29.93,ESE,121,11.0,12.0,19,0.00,,SKC,0.00,VWS V14.01,2013-06-12 21:56:00,
2013-06-12 15:57:00,83.1,37.9,29.93,ESE,115,9.0,13.0,20,0.00,,SKC,0.00,VWS V14.01,2013-06-12 21:57:00,
2013-06-12 15:58:00,83.2,38.0,29.93,SE,125,11.0,13.0,20,0.00,,SKC,0.00,VWS V14.01,2013-06-12 21:58:00,
2013-06-12 15:59:00,83.2,36.7,29.93,East,96,9.0,11.0,19,0.00,,SKC,0.00,VWS V14.01,2013-06-12 21:59:00,
2013-06-12 16:00:00,83.4,38.2,29.93,North,360,12.0,12.0,20,0.00,,SKC,0.00,VWS V14.01,2013-06-12 22:00:00,
2013-06-12 16:01:00,83.5,36.9,29.93,East,85,11.0,12.0,19,0.00,,SKC,0.00,VWS V14.01,2013-06-12 22:01:00,
2013-06-12 16:02:00,83.6,37.0,29.93,East,96,5.0,11.0,19,0.00,,SKC,0.00,VWS V14.01,2013-06-12 22:02:00,
2013-06-12 16:03:00,83.7,38.4,29.93,ESE,103,6.0,11.0,20,0.00,,SKC,0.00,VWS V14.01,2013-06-12 22:03:00,
2013-06-12 16:04:00,83.8,37.2,29.93,ESE,105,5.0,8.0,19,0.00,,SKC,0.00,VWS V14.01,2013-06-12 22:04:00,
2013-06-12 16:05:00,83.9,38.6,29.93,East,89,4.0,7.0,20,0.00,,SKC,0.00,VWS V14.01,2013-06-12 22:05:00,
2013-06-12 16:06:00,84.1,38.7,29.92,East,86,4.0,10.0,20,0.00,,SKC,0.00,VWS V14.01,2013-06-12 22:06:00,
2013-06-12 16:07:00,84.3,37.6,29.93,East,86,11.0,13.0,19,0.00,,SKC,0.00,VWS V14.01,2013-06-12 22:07:00,
2013-06-12 16:08:00,84.5,37.8,29.92,East,92,15.0,15.0,19,0.00,,SKC,0.00,VWS V14.01,2013-06-12 22:08:00,
2013-06-12 16:09:00,84.6,37.8,29.92,East,89,9.0,15.0,19,0.00,,SKC,0.00,VWS V14.01,2013-06-12 22:09:00,
2013-06-12 16:10:00,84.7,36.5,29.93,East,92,6.0,11.0,18,0.00,,SKC,0.00,VWS V14.01,2013-06-12 22:10:00,
2013-06-12 16:11:00,84.7,37.9,29.92,North,360,3.0,6.0,19,0.00,,SKC,0.00,VWS V14.01,2013-06-12 22:11:00,
2013-06-12 16:12:00,84.7,36.5,29.92,East,80,2.0,4.0,18,0.00,,SKC,0.00,VWS V14.01,2013-06-12 22:12:00,
2013-06-12 16:13:00,84.6,37.8,29.92,East,97,4.0,6.0,19,0.00,,SKC,0.00,VWS V14.01,2013-06-12 22:13:00,
2013-06-12 16:14:00,84.6,37.8,29.92,ESE,104,11.0,11.0,19,0.00,,SKC,0.00,VWS V14.01,2013-06-12 22:14:00,
2013-06-12 16:15:00,84.3,36.2,29.92,ESE,113,5.0,14.0,18,0.00,,SKC,0.00,VWS V14.01,2013-06-12 22:15:00,
2013-06-12 16:16:00,84.1,37.4,29.92,SE,132,10.0,11.0,19,0.00,,SKC,0.00,VWS V14.01,2013-06-12 22:16:00,
2013-06-12 16:17:00,83.9,37.3,29.92,East,97,5.0,10.0,19,0.00,,SKC,0.00,VWS V14.01,2013-06-12 22:17:00,
2013-06-12 16:18:00,83.7,37.1,29.92,NNE,33,1.0,6.0,19,0.00,,SKC,0.00,VWS V14.01,2013-06-12 22:18:00,
2013-06-12 16:19:00,83.5,36.9,29.92,East,79,9.0,9.0,19,0.00,,SKC,0.00,VWS V14.01,2013-06-12 22:19:00,
2013-06-12 16:20:00,83.2,36.7,29.92,NE,36,3.0,9.0,19,0.00,,SKC,0.00,VWS V14.01,2013-06-12 22:20:00,
2013-06-12 16:21:00,83.0,36.5,29.92,NNE,28,6.0,6.0,19,0.00,,SKC,0.00,VWS V14.01,2013-06-12 22:21:00,
2013-06-12 16:22:00,82.9,36.5,29.92,ENE,65,3.0,6.0,19,0.00,,SKC,0.00,VWS V14.01,2013-06-12 22:22:00,
2013-06-12 16:23:00,82.8,36.4,29.92,East,83,5.0,7.0,19,0.00,,SKC,0.00,VWS V14.01,2013-06-12 22:23:00,
2013-06-12 16:24:00,82.8,37.7,29.92,ESE,108,9.0,12.0,20,0.00,,SKC,0.00,VWS V14.01,2013-06-12 22:24:00,
2013-06-12 16:25:00,82.7,34.9,29.92,ESE,119,7.0,16.0,18,0.00,,SKC,0.00,VWS V14.01,2013-06-12 22:25:00,
2013-06-12 16:26:00,82.5,36.1,29.92,East,98,9.0,10.0,19,0.00,,SKC,0.00,VWS V14.01,2013-06-12 22:26:00,
2013-06-12 16:27:00,82.3,36.0,29.93,East,94,8.0,9.0,19,0.00,,SKC,0.00,VWS V14.01,2013-06-12 22:27:00,
2013-06-12 16:28:00,82.1,35.8,29.92,East,84,6.0,10.0,19,0.00,,SKC,0.00,VWS V14.01,2013-06-12 22:28:00,
2013-06-12 16:29:00,82.0,35.7,29.92,ENE,59,3.0,6.0,19,0.00,,SKC,0.00,VWS V14.01,2013-06-12 22:29:00,
2013-06-12 16:30:00,81.9,38.2,29.92,ENE,72,4.0,4.0,21,0.00,,SKC,0.00,VWS V14.01,2013-06-12 22:30:00,
2013-06-12 16:31:00,81.8,38.1,29.92,ESE,105,5.0,6.0,21,0.00,,SKC,0.00,VWS V14.01,2013-06-12 22:31:00,
2013-06-12 16:32:00,81.7,38.0,29.92,ESE,117,6.0,9.0,21,0.00,,SKC,0.00,VWS V14.01,2013-06-12 22:32:00,
2013-06-12 16:33:00,81.6,37.9,29.92,ESE,115,3.0,8.0,21,0.00,,SKC,0.00,VWS V14.01,2013-06-12 22:33:00,
2013-06-12 16:34:00,81.4,37.8,29.92,SE,127,4.0,6.0,21,0.00,,SKC,0.00,VWS V14.01,2013-06-12 22:34:00,
2013-06-12 16:35:00,81.3,36.4,29.92,SE,126,3.0,4.0,20,0.00,,SKC,0.00,VWS V14.01,2013-06-12 22:35:00,
2013-06-12 16:36:00,81.2,37.6,29.92,East,101,5.0,12.0,21,0.00,,SKC,0.00,VWS V14.01,2013-06-12 22:36:00,
2013-06-12 16:37:00,81.1,37.5,29.93,East,94,7.0,7.0,21,0.00,,SKC,0.00,VWS V14.01,2013-06-12 22:37:00,
2013-06-12 16:38:00,80.9,36.1,29.93,East,100,8.0,13.0,20,0.00,,SKC,0.00,VWS V14.01,2013-06-12 22:38:00,
2013-06-12 16:39:00,80.7,35.9,29.93,ESE,109,6.0,11.0,20,0.00,,SKC,0.00,VWS V14.01,2013-06-12 22:39:00,
2013-06-12 16:40:00,80.5,35.8,29.93,SE,128,10.0,13.0,20,0.00,,SKC,0.00,VWS V14.01,2013-06-12 22:40:00,
2013-06-12 16:41:00,80.3,35.6,29.93,ESE,123,6.0,13.0,20,0.00,,SKC,0.00,VWS V14.01,2013-06-12 22:41:00,
2013-06-12 16:42:00,80.1,35.5,29.92,ESE,112,3.0,7.0,20,0.00,,SKC,0.00,VWS V14.01,2013-06-12 22:42:00,
2013-06-12 16:43:00,80.0,35.4,29.93,SE,134,11.0,12.0,20,0.00,,SKC,0.00,VWS V14.01,2013-06-12 22:43:00,
2013-06-12 16:44:00,79.8,35.2,29.93,SSE,159,7.0,12.0,20,0.00,,SKC,0.00,VWS V14.01,2013-06-12 22:44:00,
2013-06-12 16:45:00,79.7,35.1,29.93,SE,132,9.0,10.0,20,0.00,,SKC,0.00,VWS V14.01,2013-06-12 22:45:00,
2013-06-12 16:46:00,79.5,36.2,29.92,SE,134,9.0,9.0,21,0.00,,SKC,0.00,VWS V14.01,2013-06-12 22:46:00,
2013-06-12 16:47:00,79.4,37.3,29.93,ESE,121,4.0,9.0,22,0.00,,SKC,0.00,VWS V14.01,2013-06-12 22:47:00,
2013-06-12 16:48:00,79.3,36.0,29.92,ESE,116,5.0,5.0,21,0.00,,SKC,0.00,VWS V14.01,2013-06-12 22:48:00,
2013-06-12 16:49:00,79.2,37.1,29.92,SE,125,4.0,6.0,22,0.00,,SKC,0.00,VWS V14.01,2013-06-12 22:49:00,
2013-06-12 16:50:00,79.2,35.9,29.92,ESE,123,2.0,4.0,21,0.00,,SKC,0.00,VWS V14.01,2013-06-12 22:50:00,
2013-06-12 16:51:00,79.1,37.0,29.92,ESE,112,5.0,5.0,22,0.00,,SKC,0.00,VWS V14.01,2013-06-12 22:51:00,
2013-06-12 16:52:00,79.0,37.0,29.92,SE,144,5.0,5.0,22,0.00,,SKC,0.00,VWS V14.01,2013-06-12 22:52:00,
2013-06-12 16:53:00,79.0,37.0,29.92,SE,145,4.0,5.0,22,0.00,,SKC,0.00,VWS V14.01,2013-06-12 22:53:00,
2013-06-12 16:54:00,79.0,37.0,29.92,ESE,103,6.0,7.0,22,0.00,,SKC,0.00,VWS V14.01,2013-06-12 22:54:00,
2013-06-12 16:55:00,79.0,38.1,29.92,East,92,2.0,7.0,23,0.00,,SKC,0.00,VWS V14.01,2013-06-12 22:55:00,
2013-06-12 16:56:00,79.0,37.0,29.92,NNE,22,3.0,3.0,22,0.00,,SKC,0.00,VWS V14.01,2013-06-12 22:56:00,
2013-06-12 16:57:00,79.1,38.2,29.92,NE,46,2.0,4.0,23,0.00,,SKC,0.00,VWS V14.01,2013-06-12 22:57:00,
2013-06-12 16:58:00,79.2,38.2,29.92,NNE,32,6.0,6.0,23,0.00,,SKC,0.00,VWS V14.01,2013-06-12 22:58:00,
2013-06-12 16:59:00,79.3,37.2,29.93,East,94,8.0,10.0,22,0.00,,SKC,0.00,VWS V14.01,2013-06-12 22:59:00,
2013-06-12 17:00:00,79.4,37.3,29.92,SSE,165,0.0,9.0,22,0.00,,SKC,0.00,VWS V14.01,2013-06-12 23:00:00,
2013-06-12 17:01:00,79.5,37.4,29.92,SSE,148,6.0,6.0,22,0.00,,SKC,0.00,VWS V14.01,2013-06-12 23:01:00,
2013-06-12 17:02:00,79.6,37.5,29.92,East,97,5.0,7.0,22,0.00,,SKC,0.00,VWS V14.01,2013-06-12 23:02:00,
2013-06-12 17:03:00,79.7,36.3,29.92,East,83,6.0,7.0,21,0.00,,SKC,0.00,VWS V14.01,2013-06-12 23:03:00,
2013-06-12 17:04:00,79.8,37.6,29.92,East,90,6.0,10.0,22,0.00,,SKC,0.00,VWS V14.01,2013-06-12 23:04:00,
2013-06-12 17:05:00,79.9,37.7,29.92,NNE,33,4.0,8.0,22,0.00,,SKC,0.00,VWS V14.01,2013-06-12 23:05:00,
2013-06-12 17:06:00,80.0,37.8,29.92,NE,43,4.0,4.0,22,0.00,,SKC,0.00,VWS V14.01,2013-06-12 23:06:00,
2013-06-12 17:07:00,80.1,37.9,29.92,ENE,57,4.0,6.0,22,0.00,,SKC,0.00,VWS V14.01,2013-06-12 23:07:00,
2013-06-12 17:08:00,80.1,37.9,29.92,ENE,63,3.0,6.0,22,0.00,,SKC,0.00,VWS V14.01,2013-06-12 23:08:00,
2013-06-12 17:09:00,80.2,38.0,29.92,ENE,57,4.0,5.0,22,0.00,,SKC,0.00,VWS V14.01,2013-06-12 23:09:00,
2013-06-12 17:10:00,80.2,38.0,29.92,East,92,6.0,11.0,22,0.00,,SKC,0.00,VWS V14.01,2013-06-12 23:10:00,
2013-06-12 17:11:00,80.2,36.8,29.92,East,98,4.0,9.0,21,0.00,,SKC,0.00,VWS V14.01,2013-06-12 23:11:00,
2013-06-12 17:12:00,80.1,36.7,29.92,East,96,1.0,5.0,21,0.00,,SKC,0.00,VWS V14.01,2013-06-12 23:12:00,
2013-06-12 17:13:00,80.1,37.9,29.92,East,93,3.0,4.0,22,0.00,,SKC,0.00,VWS V14.01,2013-06-12 23:13:00,
2013-06-12 17:14:00,80.0,36.6,29.92,North,360,4.0,4.0,21,0.00,,SKC,0.00,VWS V14.01,2013-06-12 23:14:00,
2013-06-12 17:15:00,80.0,37.8,29.92,East,96,4.0,5.0,22,0.00,,SKC,0.00,VWS V14.01,2013-06-12 23:15:00,
2013-06-12 17:16:00,79.9,37.7,29.92,East,92,4.0,4.0,22,0.00,,SKC,0.00,VWS V14.01,2013-06-12 23:16:00,
2013-06-12 17:17:00,79.9,36.5,29.92,East,92,5.0,5.0,21,0.00,,SKC,0.00,VWS V14.01,2013-06-12 23:17:00,
2013-06-12 17:18:00,79.8,36.4,29.92,East,92,3.0,6.0,21,0.00,,SKC,0.00,VWS V14.01,2013-06-12 23:18:00,
2013-06-12 17:19:00,79.8,37.6,29.92,ENE,73,2.0,3.0,22,0.00,,SKC,0.00,VWS V14.01,2013-06-12 23:19:00,
2013-06-12 17:20:00,79.7,36.3,29.92,ENE,60,1.0,4.0,21,0.00,,SKC,0.00,VWS V14.01,2013-06-12 23:20:00,
2013-06-12 17:21:00,79.7,36.3,29.92,NE,51,3.0,6.0,21,0.00,,SKC,0.00,VWS V14.01,2013-06-12 23:21:00,
2013-06-12 17:22:00,79.6,36.3,29.92,NE,54,1.0,5.0,21,0.00,,SKC,0.00,VWS V14.01,2013-06-12 23:22:00,
2013-06-12 17:23:00,79.5,35.0,29.92,ENE,57,9.0,11.0,20,0.00,,SKC,0.00,VWS V14.01,2013-06-12 23:23:00,
2013-06-12 17:24:00,79.4,36.1,29.92,NNE,32,10.0,10.0,21,0.00,,SKC,0.00,VWS V14.01,2013-06-12 23:24:00,
2013-06-12 17:25:00,79.4,36.1,29.92,East,80,1.0,11.0,21,0.00,,SKC,0.00,VWS V14.01,2013-06-12 23:25:00,
2013-06-12 17:26:00,79.3,36.0,29.92,East,82,3.0,5.0,21,0.00,,SKC,0.00,VWS V14.01,2013-06-12 23:26:00,
2013-06-12 17:27:00,79.3,37.2,29.92,ENE,74,3.0,3.0,22,0.00,,SKC,0.00,VWS V14.01,2013-06-12 23:27:00,
2013-06-12 17:28:00,79.3,37.2,29.92,East,85,5.0,5.0,22,0.00,,SKC,0.00,VWS V14.01,2013-06-12 23:28:00,
2013-06-12 17:29:00,79.3,37.2,29.92,East,83,5.0,6.0,22,0.00,,SKC,0.00,VWS V14.01,2013-06-12 23:29:00,
2013-06-12 17:30:00,79.2,35.9,29.92,East,80,2.0,5.0,21,0.00,,SKC,0.00,VWS V14.01,2013-06-12 23:30:00,
2013-06-12 17:31:00,79.2,37.1,29.92,ENE,73,4.0,4.0,22,0.00,,SKC,0.00,VWS V14.01,2013-06-12 23:31:00,
2013-06-12 17:32:00,79.2,35.9,29.92,ENE,77,8.0,8.0,21,0.00,,SKC,0.00,VWS V14.01,2013-06-12 23:32:00,
2013-06-12 17:33:00,79.2,35.9,29.92,East,84,7.0,8.0,21,0.00,,SKC,0.00,VWS V14.01,2013-06-12 23:33:00,
2013-06-12 17:34:00,79.1,35.8,29.92,ENE,77,7.0,7.0,21,0.00,,SKC,0.00,VWS V14.01,2013-06-12 23:34:00,
2013-06-12 17:35:00,79.1,35.8,29.92,NE,52,2.0,7.0,21,0.00,,SKC,0.00,VWS V14.01,2013-06-12 23:35:00,
2013-06-12 17:36:00,79.1,35.8,29.92,East,80,6.0,6.0,21,0.00,,SKC,0.00,VWS V14.01,2013-06-12 23:36:00,
2013-06-12 17:37:00,79.1,37.0,29.92,East,82,3.0,6.0,22,0.00,,SKC,0.00,VWS V14.01,2013-06-12 23:37:00,
2013-06-12 17:38:00,79.1,35.8,29.92,ENE,78,3.0,5.0,21,0.00,,SKC,0.00,VWS V14.01,2013-06-12 23:38:00,
2013-06-12 17:39:00,79.1,35.8,29.92,East,80,5.0,5.0,21,0.00,,SKC,0.00,VWS V14.01,2013-06-12 23:39:00,
2013-06-12 17:40:00,79.0,35.8,29.92,ENE,74,5.0,5.0,21,0.00,,SKC,0.00,VWS V14.01,2013-06-12 23:40:00,
2013-06-12 17:41:00,79.0,35.8,29.92,ENE,65,2.0,5.0,21,0.00,,SKC,0.00,VWS V14.01,2013-06-12 23:41:00,
2013-06-12 17:42:00,79.0,35.8,29.92,NE,53,1.0,3.0,21,0.00,,SKC,0.00,VWS V14.01,2013-06-12 23:42:00,
2013-06-12 17:43:00,78.9,35.7,29.92,ENE,65,0.0,2.0,21,0.00,,SKC,0.00,VWS V14.01,2013-06-12 23:43:00,
2013-06-12 17:44:00,78.9,35.7,29.92,ENE,66,0.0,2.0,21,0.00,,SKC,0.00,VWS V14.01,2013-06-12 23:44:00,
2013-06-12 17:45:00,78.9,35.7,29.92,ENE,62,1.0,3.0,21,0.00,,SKC,0.00,VWS V14.01,2013-06-12 23:45:00,
2013-06-12 17:46:00,78.8,35.6,29.92,ENE,63,0.0,1.0,21,0.00,,SKC,0.00,VWS V14.01,2013-06-12 23:46:00,
2013-06-12 17:47:00,78.8,37.9,29.92,ENE,60,2.0,2.0,23,0.00,,SKC,0.00,VWS V14.01,2013-06-12 23:47:00,
2013-06-12 17:48:00,78.9,36.9,29.92,ENE,64,1.0,2.0,22,0.00,,SKC,0.00,VWS V14.01,2013-06-12 23:48:00,
2013-06-12 17:49:00,78.9,36.9,29.92,ENE,63,0.0,1.0,22,0.00,,SKC,0.00,VWS V14.01,2013-06-12 23:49:00,
2013-06-12 17:50:00,78.9,34.5,29.92,ENE,64,0.0,1.0,20,0.00,,SKC,0.00,VWS V14.01,2013-06-12 23:50:00,
2013-06-12 17:51:00,78.9,36.9,29.92,ENE,63,0.0,1.0,22,0.00,,SKC,0.00,VWS V14.01,2013-06-12 23:51:00,
2013-06-12 17:52:00,79.0,38.1,29.92,ENE,63,3.0,3.0,23,0.00,,SKC,0.00,VWS V14.01,2013-06-12 23:52:00,
2013-06-12 17:53:00,79.0,38.1,29.92,ENE,62,3.0,3.0,23,0.00,,SKC,0.00,VWS V14.01,2013-06-12 23:53:00,
2013-06-12 17:54:00,79.1,35.8,29.92,ENE,63,2.0,3.0,21,0.00,,SKC,0.00,VWS V14.01,2013-06-12 23:54:00,
2013-06-12 17:55:00,79.1,38.2,29.92,ENE,64,2.0,3.0,23,0.00,,SKC,0.00,VWS V14.01,2013-06-12 23:55:00,
2013-06-12 17:56:00,79.1,37.0,29.92,ENE,64,3.0,3.0,22,0.00,,SKC,0.00,VWS V14.01,2013-06-12 23:56:00,
2013-06-12 17:57:00,79.2,35.9,29.92,ENE,63,3.0,3.0,21,0.00,,SKC,0.00,VWS V14.01,2013-06-12 23:57:00,
2013-06-12 17:58:00,79.2,38.2,29.92,ENE,63,1.0,3.0,23,0.00,,SKC,0.00,VWS V14.01,2013-06-12 23:58:00,
2013-06-12 17:59:00,79.2,38.2,29.92,ENE,67,3.0,3.0,23,0.00,,SKC,0.00,VWS V14.01,2013-06-12 23:59:00,
2013-06-12 18:00:00,79.3,37.2,29.92,ENE,61,1.0,2.0,22,0.00,,SKC,0.00,VWS V14.01,2013-06-13 00:00:00,
2013-06-12 18:01:00,79.3,38.3,29.92,NE,53,3.0,5.0,23,0.00,,SKC,0.00,VWS V14.01,2013-06-13 00:01:00,
2013-06-12 18:02:00,79.3,37.2,29.92,ENE,62,2.0,5.0,22,0.00,,SKC,0.00,VWS V14.01,2013-06-13 00:02:00,
2013-06-12 18:03:00,79.3,37.2,29.92,ENE,61,1.0,3.0,22,0.00,,SKC,0.00,VWS V14.01,2013-06-13 00:03:00,
2013-06-12 18:04:00,79.3,38.3,29.92,ENE,58,2.0,4.0,23,0.00,,SKC,0.00,VWS V14.01,2013-06-13 00:04:00,
2013-06-12 18:05:00,79.2,38.2,29.91,ENE,57,0.0,2.0,23,0.00,,SKC,0.00,VWS V14.01,2013-06-13 00:05:00,
2013-06-12 18:06:00,79.2,37.1,29.91,NE,49,0.0,3.0,22,0.00,,SKC,0.00,VWS V14.01,2013-06-13 00:06:00,
2013-06-12 18:07:00,79.2,37.1,29.92,NE,48,1.0,2.0,22,0.00,,SKC,0.00,VWS V14.01,2013-06-13 00:07:00,
2013-06-12 18:08:00,79.1,37.0,29.91,NE,49,2.0,3.0,22,0.00,,SKC,0.00,VWS V14.01,2013-06-13 00:08:00,
2013-06-12 18:09:00,79.1,37.0,29.92,NE,44,3.0,4.0,22,0.00,,SKC,0.00,VWS V14.01,2013-06-13 00:09:00,
2013-06-12 18:10:00,79.0,37.0,29.92,NE,43,5.0,6.0,22,0.00,,SKC,0.00,VWS V14.01,2013-06-13 00:10:00,
2013-06-12 18:11:00,78.9,36.9,29.92,NE,40,3.0,5.0,22,0.00,,SKC,0.00,VWS V14.01,2013-06-13 00:11:00,
2013-06-12 18:12:00,78.8,36.8,29.92,NE,42,2.0,3.0,22,0.00,,SKC,0.00,VWS V14.01,2013-06-13 00:12:00,
2013-06-12 18:13:00,78.7,37.8,29.92,NE,44,3.0,6.0,23,0.00,,SKC,0.00,VWS V14.01,2013-06-13 00:13:00,
2013-06-12 18:14:00,78.7,38.9,29.92,NE,44,1.0,4.0,24,0.00,,SKC,0.00,VWS V14.01,2013-06-13 00:14:00,
2013-06-12 18:15:00,78.7,38.9,29.92,NE,48,0.0,2.0,24,0.00,,SKC,0.00,VWS V14.01,2013-06-13 00:15:00,
2013-06-12 18:16:00,78.7,37.8,29.92,NE,42,4.0,5.0,23,0.00,,SKC,0.00,VWS V14.01,2013-06-13 00:16:00,
2013-06-12 18:17:00,78.7,37.8,29.92,NE,46,1.0,4.0,23,0.00,,SKC,0.00,VWS V14.01,2013-06-13 00:17:00,
2013-06-12 18:18:00,78.6,37.7,29.92,NE,48,0.0,2.0,23,0.00,,SKC,0.00,VWS V14.01,2013-06-13 00:18:00,
2013-06-12 18:19:00,78.5,37.7,29.92,NE,48,2.0,2.0,23,0.00,,SKC,0.00,VWS V14.01,2013-06-13 00:19:00,
2013-06-12 18:20:00,78.5,38.7,29.92,NE,44,3.0,4.0,24,0.00,,SKC,0.00,VWS V14.01,2013-06-13 00:20:00,
2013-06-12 18:21:00,78.4,37.6,29.92,NE,44,2.0,4.0,23,0.00,,SKC,0.00,VWS V14.01,2013-06-13 00:21:00,
2013-06-12 18:22:00,78.3,37.5,29.92,NE,44,3.0,3.0,23,0.00,,SKC,0.00,VWS V14.01,2013-06-13 00:22:00,
2013-06-12 18:23:00,78.3,38.6,29.92,NE,42,1.0,3.0,24,0.00,,SKC,0.00,VWS V14.01,2013-06-13 00:23:00,
2013-06-12 18:24:00,78.2,38.5,29.92,NE,43,0.0,2.0,24,0.00,,SKC,0.00,VWS V14.01,2013-06-13 00:24:00,
2013-06-12 18:25:00,78.2,38.5,29.92,NE,44,1.0,1.0,24,0.00,,SKC,0.00,VWS V14.01,2013-06-13 00:25:00,
2013-06-12 18:26:00,78.2,38.5,29.92,NE,41,1.0,1.0,24,0.00,,SKC,0.00,VWS V14.01,2013-06-13 00:26:00,
2013-06-12 18:27:00,78.2,37.4,29.92,NE,43,1.0,2.0,23,0.00,,SKC,0.00,VWS V14.01,2013-06-13 00:27:00,
2013-06-12 18:28:00,78.1,37.3,29.92,NE,45,0.0,1.0,23,0.00,,SKC,0.00,VWS V14.01,2013-06-13 00:28:00,
2013-06-12 18:29:00,78.1,38.4,29.92,NE,43,0.0,0.0,24,0.00,,SKC,0.00,VWS V14.01,2013-06-13 00:29:00,
2013-06-12 18:30:00,78.1,38.4,29.92,NE,42,3.0,3.0,24,0.00,,SKC,0.00,VWS V14.01,2013-06-13 00:30:00,
2013-06-12 18:31:00,78.0,36.1,29.92,NE,42,2.0,3.0,22,0.00,,SKC,0.00,VWS V14.01,2013-06-13 00:31:00,
2013-06-12 18:32:00,77.9,38.2,29.92,NE,42,0.0,5.0,24,0.00,,SKC,0.00,VWS V14.01,2013-06-13 00:32:00,
2013-06-12 18:33:00,77.8,36.0,29.92,NE,49,0.0,1.0,22,0.00,,SKC,0.00,VWS V14.01,2013-06-13 00:33:00,
2013-06-12 18:34:00,77.8,36.0,29.92,NE,42,1.0,1.0,22,0.00,,SKC,0.00,VWS V14.01,2013-06-13 00:34:00,
2013-06-12 18:35:00,77.7,37.0,29.92,NE,43,0.0,1.0,23,0.00,,SKC,0.00,VWS V14.01,2013-06-13 00:35:00,
2013-06-12 18:36:00,77.6,36.9,29.92,NE,35,0.0,1.0,23,0.00,,SKC,0.00,VWS V14.01,2013-06-13 00:36:00,
2013-06-12 18:37:00,77.6,36.9,29.92,NE,44,0.0,0.0,23,0.00,,SKC,0.00,VWS V14.01,2013-06-13 00:37:00,
2013-06-12 18:38:00,77.5,35.7,29.92,NE,40,0.0,0.0,22,0.00,,SKC,0.00,VWS V14.01,2013-06-13 00:38:00,
2013-06-12 18:39:00,77.5,35.7,29.92,NE,41,0.0,0.0,22,0.00,,SKC,0.00,VWS V14.01,2013-06-13 00:39:00,
2013-06-12 18:40:00,77.5,36.8,29.92,NE,41,0.0,0.0,23,0.00,,SKC,0.00,VWS V14.01,2013-06-13 00:40:00,
2013-06-12 18:41:00,77.4,36.7,29.92,NE,44,0.0,0.0,23,0.00,,SKC,0.00,VWS V14.01,2013-06-13 00:41:00,
2013-06-12 18:42:00,77.4,35.6,29.92,NE,42,0.0,0.0,22,0.00,,SKC,0.00,VWS V14.01,2013-06-13 00:42:00,
2013-06-12 18:43:00,77.3,37.7,29.92,NE,38,0.0,0.0,24,0.00,,SKC,0.00,VWS V14.01,2013-06-13 00:43:00,
2013-06-12 18:44:00,77.3,38.8,29.92,NE,42,0.0,0.0,25,0.00,,SKC,0.00,VWS V14.01,2013-06-13 00:44:00,
2013-06-12 18:45:00,77.3,35.5,29.92,NE,40,0.0,0.0,22,0.00,,SKC,0.00,VWS V14.01,2013-06-13 00:45:00,
2013-06-12 18:46:00,77.2,35.5,29.92,NE,43,0.0,0.0,22,0.00,,SKC,0.00,VWS V14.01,2013-06-13 00:46:00,
2013-06-12 18:47:00,77.2,36.6,29.92,NE,49,0.0,0.0,23,0.00,,SKC,0.00,VWS V14.01,2013-06-13 00:47:00,
2013-06-12 18:48:00,77.2,37.7,29.92,NE,43,0.0,0.0,24,0.00,,SKC,0.00,VWS V14.01,2013-06-13 00:48:00,
2013-06-12 18:49:00,77.2,37.7,29.92,NE,43,0.0,0.0,24,0.00,,SKC,0.00,VWS V14.01,2013-06-13 00:49:00,
2013-06-12 18:50:00,77.1,36.5,29.92,NE,41,0.0,0.0,23,0.00,,SKC,0.00,VWS V14.01,2013-06-13 00:50:00,
2013-06-12 18:51:00,77.1,35.4,29.92,NE,41,1.0,1.0,22,0.00,,SKC,0.00,VWS V14.01,2013-06-13 00:51:00,
2013-06-12 18:52:00,77.1,36.5,29.93,NE,40,0.0,1.0,23,0.00,,SKC,0.00,VWS V14.01,2013-06-13 00:52:00,
2013-06-12 18:53:00,77.1,37.6,29.92,NE,40,0.0,0.0,24,0.00,,SKC,0.00,VWS V14.01,2013-06-13 00:53:00,
2013-06-12 18:54:00,77.1,36.5,29.92,NE,38,0.0,1.0,23,0.00,,SKC,0.00,VWS V14.01,2013-06-13 00:54:00,
2013-06-12 18:55:00,77.1,36.5,29.92,NE,46,0.0,1.0,23,0.00,,SKC,0.00,VWS V14.01,2013-06-13 00:55:00,
2013-06-12 18:56:00,77.1,36.5,29.92,NE,41,3.0,3.0,23,0.00,,SKC,0.00,VWS V14.01,2013-06-13 00:56:00,
2013-06-12 18:57:00,77.1,35.4,29.92,NE,39,0.0,4.0,22,0.00,,SKC,0.00,VWS V14.01,2013-06-13 00:57:00,
2013-06-12 18:58:00,77.1,34.2,29.92,NE,38,1.0,1.0,21,0.00,,SKC,0.00,VWS V14.01,2013-06-13 00:58:00,
2013-06-12 18:59:00,77.1,36.5,29.92,NE,42,0.0,1.0,23,0.00,,SKC,0.00,VWS V14.01,2013-06-13 00:59:00,
2013-06-12 19:00:00,77.0,35.3,29.92,NE,42,3.0,3.0,22,0.00,,SKC,0.00,VWS V14.01,2013-06-13 01:00:00,
2013-06-12 19:01:00,77.0,35.3,29.93,NE,43,2.0,3.0,22,0.00,,SKC,0.00,VWS V14.01,2013-06-13 01:01:00,
2013-06-12 19:02:00,77.0,35.3,29.93,NE,39,3.0,3.0,22,0.00,,SKC,0.00,VWS V14.01,2013-06-13 01:02:00,
2013-06-12 19:03:00,76.9,36.3,29.92,NNE,17,4.0,5.0,23,0.00,,SKC,0.00,VWS V14.01,2013-06-13 01:03:00,
2013-06-12 19:04:00,76.9,37.4,29.92,NNE,13,4.0,5.0,24,0.00,,SKC,0.00,VWS V14.01,2013-06-13 01:04:00,
2013-06-12 19:05:00,76.8,37.3,29.93,North,5,5.0,6.0,24,0.00,,SKC,0.00,VWS V14.01,2013-06-13 01:05:00,
2013-06-12 19:06:00,76.7,37.2,29.93,North,5,4.0,5.0,24,0.00,,SKC,0.00,VWS V14.01,2013-06-13 01:06:00,
2013-06-12 19:07:00,76.7,37.2,29.93,North,5,3.0,4.0,24,0.00,,SKC,0.00,VWS V14.01,2013-06-13 01:07:00,
2013-06-12 19:08:00,76.6,37.1,29.93,North,9,4.0,5.0,24,0.00,,SKC,0.00,VWS V14.01,2013-06-13 01:08:00,
2013-06-12 19:09:00,76.6,37.1,29.93,North,11,4.0,5.0,24,0.00,,SKC,0.00,VWS V14.01,2013-06-13 01:09:00,
2013-06-12 19:10:00,76.5,36.0,29.93,North,9,3.0,4.0,23,0.00,,SKC,0.00,VWS V14.01,2013-06-13 01:10:00,
2013-06-12 19:11:00,76.5,37.1,29.92,North,9,3.0,4.0,24,0.00,,SKC,0.00,VWS V14.01,2013-06-13 01:11:00,
2013-06-12 19:12:00,76.4,37.0,29.92,North,5,4.0,4.0,24,0.00,,SKC,0.00,VWS V14.01,2013-06-13 01:12:00,
2013-06-12 19:13:00,76.4,37.0,29.92,North,9,2.0,4.0,24,0.00,,SKC,0.00,VWS V14.01,2013-06-13 01:13:00,
2013-06-12 19:14:00,76.4,38.0,29.92,North,5,2.0,2.0,25,0.00,,SKC,0.00,VWS V14.01,2013-06-13 01:14:00,
2013-06-12 19:15:00,76.4,37.0,29.92,North,9,1.0,4.0,24,0.00,,SKC,0.00,VWS V14.01,2013-06-13 01:15:00,
2013-06-12 19:16:00,76.3,36.9,29.92,North,9,3.0,4.0,24,0.00,,SKC,0.00,VWS V14.01,2013-06-13 01:16:00,
2013-06-12 19:17:00,76.3,36.9,29.92,North,9,2.0,4.0,24,0.00,,SKC,0.00,VWS V14.01,2013-06-13 01:17:00,
2013-06-12 19:18:00,76.2,36.8,29.92,North,5,0.0,2.0,24,0.00,,SKC,0.00,VWS V14.01,2013-06-13 01:18:00,
2013-06-12 19:19:00,76.2,36.8,29.92,North,5,0.0,0.0,24,0.00,,SKC,0.00,VWS V14.01,2013-06-13 01:19:00,
2013-06-12 19:20:00,76.1,35.7,29.92,North,5,0.0,1.0,23,0.00,,SKC,0.00,VWS V14.01,2013-06-13 01:20:00,
2013-06-12 19:21:00,76.1,35.7,29.92,North,5,0.0,0.0,23,0.00,,SKC,0.00,VWS V14.01,2013-06-13 01:21:00,
2013-06-12 19:22:00,76.0,36.6,29.92,North,9,0.0,0.0,24,0.00,,SKC,0.00,VWS V14.01,2013-06-13 01:22:00,
2013-06-12 19:23:00,76.0,35.6,29.92,North,5,0.0,0.0,23,0.00,,SKC,0.00,VWS V14.01,2013-06-13 01:23:00,
2013-06-12 19:24:00,76.0,34.5,29.92,North,9,0.0,0.0,22,0.00,,SKC,0.00,VWS V14.01,2013-06-13 01:24:00,
2013-06-12 19:25:00,75.9,35.5,29.92,North,9,0.0,1.0,23,0.00,,SKC,0.00,VWS V14.01,2013-06-13 01:25:00,
2013-06-12 19:26:00,75.9,36.6,29.92,North,10,0.0,1.0,24,0.00,,SKC,0.00,VWS V14.01,2013-06-13 01:26:00,
2013-06-12 19:27:00,75.9,35.5,29.93,North,10,0.0,1.0,23,0.00,,SKC,0.00,VWS V14.01,2013-06-13 01:27:00,
2013-06-12 19:28:00,75.8,35.4,29.92,North,5,1.0,1.0,23,0.00,,SKC,0.00,VWS V14.01,2013-06-13 01:28:00,
2013-06-12 19:29:00,75.8,35.4,29.92,North,5,1.0,3.0,23,0.00,,SKC,0.00,VWS V14.01,2013-06-13 01:29:00,
2013-06-12 19:30:00,75.8,35.4,29.92,North,5,5.0,6.0,23,0.00,,SKC,0.00,VWS V14.01,2013-06-13 01:30:00,
2013-06-12 19:31:00,75.7,36.4,29.92,NW,324,7.0,7.0,24,0.00,,SKC,0.00,VWS V14.01,2013-06-13 01:31:00,
2013-06-12 19:32:00,75.7,35.3,29.92,NW,324,5.0,7.0,23,0.00,,SKC,0.00,VWS V14.01,2013-06-13 01:32:00,
2013-06-12 19:33:00,75.7,35.3,29.92,NW,324,4.0,5.0,23,0.00,,SKC,0.00,VWS V14.01,2013-06-13 01:33:00,
2013-06-12 19:34:00,75.7,35.3,29.92,NW,323,3.0,4.0,23,0.00,,SKC,0.00,VWS V14.01,2013-06-13 01:34:00,
2013-06-12 19:35:00,75.7,36.4,29.92,NW,323,2.0,3.0,24,0.00,,SKC,0.00,VWS V14.01,2013-06-13 01:35:00,
2013-06-12 19:36:00,75.6,36.3,29.92,NW,322,1.0,2.0,24,0.00,,SKC,0.00,VWS V14.01,2013-06-13 01:36:00,
2013-06-12 19:37:00,75.6,36.3,29.92,NW,321,2.0,2.0,24,0.00,,SKC,0.00,VWS V14.01,2013-06-13 01:37:00,
2013-06-12 19:38:00,75.5,36.2,29.92,NW,325,0.0,2.0,24,0.00,,SKC,0.00,VWS V14.01,2013-06-13 01:38:00,
2013-06-12 19:39:00,75.5,37.2,29.92,NW,324,0.0,1.0,25,0.00,,SKC,0.00,VWS V14.01,2013-06-13 01:39:00,
2013-06-12 19:40:00,75.5,36.2,29.92,NW,322,0.0,1.0,24,0.00,,SKC,0.00,VWS V14.01,2013-06-13 01:40:00,
2013-06-12 19:41:00,75.4,37.2,29.92,NW,321,0.0,0.0,25,0.00,,SKC,0.00,VWS V14.01,2013-06-13 01:41:00,
2013-06-12 19:42:00,75.4,36.1,29.92,NW,324,0.0,2.0,24,0.00,,SKC,0.00,VWS V14.01,2013-06-13 01:42:00,
2013-06-12 19:43:00,75.3,36.0,29.92,North,360,0.0,0.0,24,0.00,,SKC,0.00,VWS V14.01,2013-06-13 01:43:00,
2013-06-12 19:44:00,75.3,35.0,29.92,NW,324,0.0,0.0,23,0.00,,SKC,0.00,VWS V14.01,2013-06-13 01:44:00,
2013-06-12 19:45:00,75.2,34.9,29.92,NW,325,0.0,0.0,23,0.00,,SKC,0.00,VWS V14.01,2013-06-13 01:45:00,
2013-06-12 19:46:00,75.2,34.9,29.92,North,360,1.0,1.0,23,0.00,,SKC,0.00,VWS V14.01,2013-06-13 01:46:00,
2013-06-12 19:47:00,75.2,34.9,29.92,NW,325,0.0,1.0,23,0.00,,SKC,0.00,VWS V14.01,2013-06-13 01:47:00,
2013-06-12 19:48:00,75.2,36.0,29.92,North,360,0.0,0.0,24,0.00,,SKC,0.00,VWS V14.01,2013-06-13 01:48:00,
2013-06-12 19:49:00,75.2,36.0,29.92,NW,320,2.0,2.0,24,0.00,,SKC,0.00,VWS V14.01,2013-06-13 01:49:00,
2013-06-12 19:50:00,75.2,34.9,29.92,NW,324,1.0,2.0,23,0.00,,SKC,0.00,VWS V14.01,2013-06-13 01:50:00,
2013-06-12 19:51:00,75.1,34.8,29.92,NNW,333,3.0,3.0,23,0.00,,SKC,0.00,VWS V14.01,2013-06-13 01:51:00,
2013-06-12 19:52:00,75.1,34.8,29.92,North,360,2.0,3.0,23,0.00,,SKC,0.00,VWS V14.01,2013-06-13 01:52:00,
2013-06-12 19:53:00,75.1,34.8,29.92,NW,321,0.0,2.0,23,0.00,,SKC,0.00,VWS V14.01,2013-06-13 01:53:00,
2013-06-12 19:54:00,75.1,34.8,29.92,NW,324,4.0,4.0,23,0.00,,SKC,0.00,VWS V14.01,2013-06-13 01:54:00,
2013-06-12 19:55:00,75.1,34.8,29.92,NNW,342,3.0,4.0,23,0.00,,SKC,0.00,VWS V14.01,2013-06-13 01:55:00,
2013-06-12 19:56:00,75.1,35.9,29.92,NNW,340,2.0,3.0,24,0.00,,SKC,0.00,VWS V14.01,2013-06-13 01:56:00,
2013-06-12 19:58:00,75.1,35.9,29.92,NNW,340,0.0,2.0,24,0.00,,SKC,0.00,VWS V14.01,2013-06-13 01:58:00,
2013-06-12 20:06:00,74.9,35.7,29.93,North,0,4.0,5.0,24,0.00,,SKC,0.00,VWS V14.01,2013-06-13 02:06:00,
2013-06-12 20:15:00,74.4,35.3,29.93,NNW,338,0.0,1.0,24,0.00,,SKC,0.00,VWS V14.01,2013-06-13 02:15:00,
2013-06-12 20:21:00,74.4,35.3,29.93,North,360,4.0,4.0,24,0.00,,SKC,0.00,VWS V14.01,2013-06-13 02:21:00,
2013-06-12 20:26:00,74.0,37.0,29.94,NNW,327,2.0,4.0,26,0.00,,SKC,0.00,VWS V14.01,2013-06-13 02:26:00,
2013-06-12 20:32:00,72.9,37.0,29.94,NW,321,2.0,4.0,27,0.00,,SKC,0.00,VWS V14.01,2013-06-13 02:32:00,
2013-06-12 20:38:00,71.7,36.9,29.94,North,360,3.0,3.0,28,0.00,,SKC,0.00,VWS V14.01,2013-06-13 02:38:00,
2013-06-12 20:43:00,71.3,35.6,29.93,NW,320,5.0,7.0,27,0.00,,SKC,0.00,VWS V14.01,2013-06-13 02:43:00,
2013-06-12 20:48:00,71.6,35.9,29.93,WNW,294,9.0,10.0,27,0.00,,SKC,0.00,VWS V14.01,2013-06-13 02:48:00,
2013-06-12 20:53:00,71.8,36.0,29.94,North,360,5.0,9.0,27,0.00,,SKC,0.00,VWS V14.01,2013-06-13 02:53:00,
2013-06-12 20:58:00,71.5,37.6,29.94,West,266,3.0,4.0,29,0.00,,SKC,0.00,VWS V14.01,2013-06-13 02:58:00,
2013-06-12 21:03:00,70.8,37.9,29.94,West,275,3.0,5.0,30,0.00,,SKC,0.00,VWS V14.01,2013-06-13 03:03:00,
2013-06-12 21:09:00,70.3,36.6,29.95,WSW,254,5.0,6.0,29,0.00,,SKC,0.00,VWS V14.01,2013-06-13 03:09:00,
2013-06-12 21:14:00,69.9,37.1,29.95,West,264,4.0,5.0,30,0.00,,SKC,0.00,VWS V14.01,2013-06-13 03:14:00,
2013-06-12 21:20:00,69.5,35.9,29.95,West,262,0.0,1.0,29,0.00,,SKC,0.00,VWS V14.01,2013-06-13 03:20:00,
2013-06-12 21:25:00,69.5,36.7,29.95,West,267,4.0,5.0,30,0.00,,SKC,0.00,VWS V14.01,2013-06-13 03:25:00,
2013-06-12 21:30:00,69.4,37.5,29.96,West,273,5.0,7.0,31,0.00,,SKC,0.00,VWS V14.01,2013-06-13 03:30:00,
2013-06-12 21:36:00,69.3,37.4,29.96,West,274,2.0,6.0,31,0.00,,SKC,0.00,VWS V14.01,2013-06-13 03:36:00,
2013-06-12 21:41:00,69.2,36.5,29.96,West,278,1.0,3.0,30,0.00,,SKC,0.00,VWS V14.01,2013-06-13 03:41:00,
2013-06-12 21:46:00,69.2,37.3,29.97,West,277,4.0,5.0,31,0.00,,SKC,0.00,VWS V14.01,2013-06-13 03:46:00,
2013-06-12 21:52:00,68.7,36.9,29.98,West,278,3.0,6.0,31,0.00,,SKC,0.00,VWS V14.01,2013-06-13 03:52:00,
2013-06-12 21:58:00,68.5,36.7,29.98,West,279,0.0,1.0,31,0.00,,SKC,0.00,VWS V14.01,2013-06-13 03:58:00,
2013-06-12 22:01:00,68.4,36.6,29.99,ENE,59,1.0,4.0,31,0.00,,SKC,0.00,VWS V14.01,2013-06-13 04:01:00,
2013-06-12 22:02:00,68.4,36.6,29.99,ENE,69,1.0,4.0,31,0.00,,SKC,0.00,VWS V14.01,2013-06-13 04:02:00,
2013-06-12 22:04:00,68.3,36.5,29.99,ENE,65,2.0,3.0,31,0.00,,SKC,0.00,VWS V14.01,2013-06-13 04:04:00,
2013-06-12 22:06:00,68.3,36.5,29.99,ENE,64,2.0,3.0,31,0.00,,SKC,0.00,VWS V14.01,2013-06-13 04:06:00,
2013-06-12 22:12:00,68.3,36.5,29.99,North,10,4.0,6.0,31,0.00,,SKC,0.00,VWS V14.01,2013-06-13 04:12:00,
2013-06-12 22:17:00,68.8,37.8,29.99,North,360,3.0,3.0,32,0.00,,SKC,0.00,VWS V14.01,2013-06-13 04:17:00,
2013-06-12 22:22:00,69.2,38.1,29.99,North,349,3.0,3.0,32,0.00,,SKC,0.00,VWS V14.01,2013-06-13 04:22:00,
2013-06-12 22:28:00,69.3,39.0,29.99,NE,46,2.0,9.0,33,0.00,,SKC,0.00,VWS V14.01,2013-06-13 04:28:00,
2013-06-12 22:34:00,69.0,40.2,29.99,North,355,4.0,6.0,35,0.00,,SKC,0.00,VWS V14.01,2013-06-13 04:34:00,
2013-06-12 22:39:00,68.7,41.4,29.99,North,360,9.0,15.0,37,0.00,,SKC,0.00,VWS V14.01,2013-06-13 04:39:00,
2013-06-12 22:45:00,68.3,42.4,29.99,North,360,8.0,12.0,39,0.00,,SKC,0.00,VWS V14.01,2013-06-13 04:45:00,
2013-06-12 22:50:00,67.9,42.7,29.99,North,360,8.0,9.0,40,0.00,,SKC,0.00,VWS V14.01,2013-06-13 04:50:00,
2013-06-12 22:55:00,67.5,43.6,30.00,NNE,32,10.0,16.0,42,0.00,,SKC,0.00,VWS V14.01,2013-06-13 04:55:00,
2013-06-12 23:00:00,67.1,43.9,29.99,North,360,7.0,18.0,43,0.00,,SKC,0.00,VWS V14.01,2013-06-13 05:00:00,
2013-06-12 23:06:00,66.7,44.7,30.00,NNE,29,3.0,11.0,45,0.00,,SKC,0.00,VWS V14.01,2013-06-13 05:06:00,
2013-06-12 23:12:00,66.1,44.7,30.00,NNW,344,1.0,10.0,46,0.00,,SKC,0.00,VWS V14.01,2013-06-13 05:12:00,
2013-06-12 23:17:00,65.9,45.7,30.00,North,360,14.0,18.0,48,0.00,,SKC,0.00,VWS V14.01,2013-06-13 05:17:00,
2013-06-12 23:22:00,65.5,45.3,30.01,NE,55,2.0,14.0,48,0.00,,SKC,0.00,VWS V14.01,2013-06-13 05:22:00,
2013-06-12 23:28:00,65.3,46.7,30.00,NNW,344,1.0,13.0,51,0.00,,SKC,0.00,VWS V14.01,2013-06-13 05:28:00,
2013-06-12 23:33:00,65.0,45.9,30.00,NNE,24,5.0,9.0,50,0.00,,SKC,0.00,VWS V14.01,2013-06-13 05:33:00,
2013-06-12 23:38:00,64.9,46.4,30.00,SSW,196,0.0,3.0,51,0.00,,SKC,0.00,VWS V14.01,2013-06-13 05:38:00,
2013-06-12 23:43:00,64.7,47.2,30.00,North,9,10.0,13.0,53,0.00,,SKC,0.00,VWS V14.01,2013-06-13 05:43:00,
2013-06-12 23:49:00,64.2,47.2,30.00,NNW,328,5.0,13.0,54,0.00,,SKC,0.00,VWS V14.01,2013-06-13 05:49:00,
2013-06-12 23:54:00,63.8,46.8,30.00,North,360,0.0,3.0,54,0.00,,SKC,0.00,VWS V14.01,2013-06-13 05:54:00,
2013-06-12 23:59:00,63.6,47.2,30.00,North,360,1.0,2.0,55,0.00,,SKC,0.00,VWS V14.01,2013-06-13 05:59:00,